<?xml version="1.0" encoding="UTF-8" standalone="no" ?>
<gpx xmlns="http://www.topografix.com/GPX/1/1" xmlns:xsi="http://www.w3.org/2001/XMLSchema-instance" xsi:schemaLocation="http://www.topografix.com/GPX/1/1 http://www.topografix.com/GPX/1/1/gpx.xsd" version="1.1" creator="VisuGPX - https://www.visugpx.com">
  <metadata>
    <name>Pointe d'Anterne </name>
    <desc><![CDATA[De la station de ski de Flaine, prendre le DMC des Grandes Platières, descendre sur la gauche en direction du Dérochoir sans perdre trop d'altitude, Remonter les pentes faciles en direction de la Pointe d'Anterne, une courte partie plus raide sur la fin permet d'accéder au point coté 2741 m à gauche et au Nord du sommet lui-même, La descente de ce point est plus intéressante que la pointe d'Anterne elle-même.
Redescendre comme à la montée ou directement dans le versant ouest plus raide, pentes à 40° maxi. Descendre ensuite au choix soit en légère traversée descendante en direction de l'Enclume puis vers le Nord par de belles pentes vallonnées, soit descendre en suivant le tracé bleu des cartes IGN. Remonter enfin aux télécabine puis emprunter les pistes jusqu'au parking.]]></desc>
  </metadata>
  <trk>
    <name><![CDATA[Pointe d'Anterne depuis Flaine]]></name>
    <cmt><![CDATA[par les Grandes Platières]]></cmt>
    <desc><![CDATA[comment ...]]></desc>
    <trkseg>
      <trkpt lat="45.98416" lon="6.7228">
        <ele>2481</ele>
        <time>2017-03-30T07:36:32Z</time>
      </trkpt>
      <trkpt lat="45.98405" lon="6.72289">
        <ele>2481</ele>
        <time>2017-03-30T07:36:38Z</time>
      </trkpt>
      <trkpt lat="45.98398" lon="6.72293">
        <ele>2481</ele>
        <time>2017-03-30T07:37:21Z</time>
      </trkpt>
      <trkpt lat="45.98392" lon="6.72301">
        <ele>2481</ele>
        <time>2017-03-30T07:37:24Z</time>
      </trkpt>
      <trkpt lat="45.98383" lon="6.72306">
        <ele>2480</ele>
        <time>2017-03-30T07:37:27Z</time>
      </trkpt>
      <trkpt lat="45.98375" lon="6.7231">
        <ele>2479</ele>
        <time>2017-03-30T07:37:29Z</time>
      </trkpt>
      <trkpt lat="45.98372" lon="6.7231">
        <ele>2481</ele>
        <time>2017-03-30T07:38:34Z</time>
      </trkpt>
      <trkpt lat="45.98369" lon="6.72312">
        <ele>2482</ele>
        <time>2017-03-30T07:39:07Z</time>
      </trkpt>
      <trkpt lat="45.98357" lon="6.72319">
        <ele>2480</ele>
        <time>2017-03-30T07:39:11Z</time>
      </trkpt>
      <trkpt lat="45.98354" lon="6.72319">
        <ele>2479</ele>
        <time>2017-03-30T07:39:13Z</time>
      </trkpt>
      <trkpt lat="45.98349" lon="6.72325">
        <ele>2478</ele>
        <time>2017-03-30T07:39:22Z</time>
      </trkpt>
      <trkpt lat="45.98338" lon="6.72331">
        <ele>2476</ele>
        <time>2017-03-30T07:39:25Z</time>
      </trkpt>
      <trkpt lat="45.98327" lon="6.72335">
        <ele>2474</ele>
        <time>2017-03-30T07:39:27Z</time>
      </trkpt>
      <trkpt lat="45.98325" lon="6.72333">
        <ele>2474</ele>
        <time>2017-03-30T07:39:28Z</time>
      </trkpt>
      <trkpt lat="45.98323" lon="6.72335">
        <ele>2473</ele>
        <time>2017-03-30T07:40:40Z</time>
      </trkpt>
      <trkpt lat="45.98316" lon="6.72336">
        <ele>2471</ele>
        <time>2017-03-30T07:42:27Z</time>
      </trkpt>
      <trkpt lat="45.9831" lon="6.72336">
        <ele>2471</ele>
        <time>2017-03-30T07:42:29Z</time>
      </trkpt>
      <trkpt lat="45.98295" lon="6.72342">
        <ele>2468</ele>
        <time>2017-03-30T07:42:33Z</time>
      </trkpt>
      <trkpt lat="45.98292" lon="6.72343">
        <ele>2468</ele>
        <time>2017-03-30T07:42:34Z</time>
      </trkpt>
      <trkpt lat="45.9829" lon="6.72343">
        <ele>2468</ele>
        <time>2017-03-30T07:42:44Z</time>
      </trkpt>
      <trkpt lat="45.98288" lon="6.72347">
        <ele>2468</ele>
        <time>2017-03-30T07:43:56Z</time>
      </trkpt>
      <trkpt lat="45.98283" lon="6.72353">
        <ele>2467</ele>
        <time>2017-03-30T07:43:59Z</time>
      </trkpt>
      <trkpt lat="45.98266" lon="6.72367">
        <ele>2464</ele>
        <time>2017-03-30T07:44:03Z</time>
      </trkpt>
      <trkpt lat="45.9824" lon="6.72376">
        <ele>2461</ele>
        <time>2017-03-30T07:44:08Z</time>
      </trkpt>
      <trkpt lat="45.98183" lon="6.72376">
        <ele>2451</ele>
        <time>2017-03-30T07:44:16Z</time>
      </trkpt>
      <trkpt lat="45.98149" lon="6.72377">
        <ele>2447</ele>
        <time>2017-03-30T07:44:21Z</time>
      </trkpt>
      <trkpt lat="45.98123" lon="6.72372">
        <ele>2443</ele>
        <time>2017-03-30T07:44:25Z</time>
      </trkpt>
      <trkpt lat="45.9809" lon="6.72377">
        <ele>2439</ele>
        <time>2017-03-30T07:44:29Z</time>
      </trkpt>
      <trkpt lat="45.98083" lon="6.72378">
        <ele>2439</ele>
        <time>2017-03-30T07:44:30Z</time>
      </trkpt>
      <trkpt lat="45.98077" lon="6.72383">
        <ele>2438</ele>
        <time>2017-03-30T07:44:31Z</time>
      </trkpt>
      <trkpt lat="45.98075" lon="6.72391">
        <ele>2438</ele>
        <time>2017-03-30T07:44:32Z</time>
      </trkpt>
      <trkpt lat="45.9807" lon="6.72407">
        <ele>2436</ele>
        <time>2017-03-30T07:44:34Z</time>
      </trkpt>
      <trkpt lat="45.98058" lon="6.72413">
        <ele>2434</ele>
        <time>2017-03-30T07:44:36Z</time>
      </trkpt>
      <trkpt lat="45.98033" lon="6.72431">
        <ele>2430</ele>
        <time>2017-03-30T07:44:40Z</time>
      </trkpt>
      <trkpt lat="45.97947" lon="6.72511">
        <ele>2423</ele>
        <time>2017-03-30T07:45:00Z</time>
      </trkpt>
      <trkpt lat="45.97904" lon="6.7254">
        <ele>2418</ele>
        <time>2017-03-30T07:45:12Z</time>
      </trkpt>
      <trkpt lat="45.97905" lon="6.72547">
        <ele>2417</ele>
        <time>2017-03-30T07:45:13Z</time>
      </trkpt>
      <trkpt lat="45.97909" lon="6.72552">
        <ele>2413</ele>
        <time>2017-03-30T07:45:14Z</time>
      </trkpt>
      <trkpt lat="45.97912" lon="6.72556">
        <ele>2413</ele>
        <time>2017-03-30T07:45:15Z</time>
      </trkpt>
      <trkpt lat="45.97913" lon="6.72561">
        <ele>2411</ele>
        <time>2017-03-30T07:45:16Z</time>
      </trkpt>
      <trkpt lat="45.9791" lon="6.72566">
        <ele>2410</ele>
        <time>2017-03-30T07:45:17Z</time>
      </trkpt>
      <trkpt lat="45.97907" lon="6.7257">
        <ele>2408</ele>
        <time>2017-03-30T07:45:18Z</time>
      </trkpt>
      <trkpt lat="45.97893" lon="6.72571">
        <ele>2405</ele>
        <time>2017-03-30T07:45:20Z</time>
      </trkpt>
      <trkpt lat="45.97873" lon="6.72579">
        <ele>2401</ele>
        <time>2017-03-30T07:45:24Z</time>
      </trkpt>
      <trkpt lat="45.97871" lon="6.72586">
        <ele>2400</ele>
        <time>2017-03-30T07:45:25Z</time>
      </trkpt>
      <trkpt lat="45.97869" lon="6.72597">
        <ele>2399</ele>
        <time>2017-03-30T07:45:26Z</time>
      </trkpt>
      <trkpt lat="45.97877" lon="6.72611">
        <ele>2396</ele>
        <time>2017-03-30T07:45:28Z</time>
      </trkpt>
      <trkpt lat="45.97878" lon="6.7262">
        <ele>2396</ele>
        <time>2017-03-30T07:45:29Z</time>
      </trkpt>
      <trkpt lat="45.97874" lon="6.72627">
        <ele>2395</ele>
        <time>2017-03-30T07:45:30Z</time>
      </trkpt>
      <trkpt lat="45.97866" lon="6.72626">
        <ele>2392</ele>
        <time>2017-03-30T07:45:32Z</time>
      </trkpt>
      <trkpt lat="45.97817" lon="6.72639">
        <ele>2382</ele>
        <time>2017-03-30T07:45:43Z</time>
      </trkpt>
      <trkpt lat="45.97805" lon="6.72655">
        <ele>2382</ele>
        <time>2017-03-30T07:45:46Z</time>
      </trkpt>
      <trkpt lat="45.978" lon="6.72664">
        <ele>2382</ele>
        <time>2017-03-30T07:45:48Z</time>
      </trkpt>
      <trkpt lat="45.97773" lon="6.72706">
        <ele>2367</ele>
        <time>2017-03-30T07:46:08Z</time>
      </trkpt>
      <trkpt lat="45.97691" lon="6.72797">
        <ele>2348</ele>
        <time>2017-03-30T07:46:24Z</time>
      </trkpt>
      <trkpt lat="45.97602" lon="6.72877">
        <ele>2336</ele>
        <time>2017-03-30T07:46:45Z</time>
      </trkpt>
      <trkpt lat="45.97594" lon="6.72881">
        <ele>2334</ele>
        <time>2017-03-30T07:46:47Z</time>
      </trkpt>
      <trkpt lat="45.97593" lon="6.72891">
        <ele>2334</ele>
        <time>2017-03-30T07:46:48Z</time>
      </trkpt>
      <trkpt lat="45.97576" lon="6.72901">
        <ele>2332</ele>
        <time>2017-03-30T07:46:52Z</time>
      </trkpt>
      <trkpt lat="45.97541" lon="6.72915">
        <ele>2330</ele>
        <time>2017-03-30T07:47:00Z</time>
      </trkpt>
      <trkpt lat="45.97537" lon="6.72924">
        <ele>2330</ele>
        <time>2017-03-30T07:47:02Z</time>
      </trkpt>
      <trkpt lat="45.97473" lon="6.72945">
        <ele>2323</ele>
        <time>2017-03-30T07:47:19Z</time>
      </trkpt>
      <trkpt lat="45.97465" lon="6.72943">
        <ele>2322</ele>
        <time>2017-03-30T07:47:21Z</time>
      </trkpt>
      <trkpt lat="45.9742" lon="6.72952">
        <ele>2316</ele>
        <time>2017-03-30T07:47:52Z</time>
      </trkpt>
      <trkpt lat="45.97415" lon="6.7295">
        <ele>2315</ele>
        <time>2017-03-30T07:47:53Z</time>
      </trkpt>
      <trkpt lat="45.97358" lon="6.72948">
        <ele>2305</ele>
        <time>2017-03-30T07:48:06Z</time>
      </trkpt>
      <trkpt lat="45.97349" lon="6.72945">
        <ele>2305</ele>
        <time>2017-03-30T07:48:09Z</time>
      </trkpt>
      <trkpt lat="45.97343" lon="6.72937">
        <ele>2302</ele>
        <time>2017-03-30T07:48:24Z</time>
      </trkpt>
      <trkpt lat="45.97334" lon="6.72933">
        <ele>2305</ele>
        <time>2017-03-30T07:48:50Z</time>
      </trkpt>
      <trkpt lat="45.97256" lon="6.72948">
        <ele>2301</ele>
        <time>2017-03-30T07:49:13Z</time>
      </trkpt>
      <trkpt lat="45.97146" lon="6.72978">
        <ele>2300</ele>
        <time>2017-03-30T07:49:39Z</time>
      </trkpt>
      <trkpt lat="45.97127" lon="6.72989">
        <ele>2295</ele>
        <time>2017-03-30T07:49:44Z</time>
      </trkpt>
      <trkpt lat="45.97097" lon="6.73003">
        <ele>2291</ele>
        <time>2017-03-30T07:49:53Z</time>
      </trkpt>
      <trkpt lat="45.97051" lon="6.73015">
        <ele>2289</ele>
        <time>2017-03-30T07:50:25Z</time>
      </trkpt>
      <trkpt lat="45.97012" lon="6.73039">
        <ele>2287</ele>
        <time>2017-03-30T07:50:34Z</time>
      </trkpt>
      <trkpt lat="45.96972" lon="6.73072">
        <ele>2286</ele>
        <time>2017-03-30T07:50:42Z</time>
      </trkpt>
      <trkpt lat="45.96961" lon="6.73085">
        <ele>2286</ele>
        <time>2017-03-30T07:50:46Z</time>
      </trkpt>
      <trkpt lat="45.96958" lon="6.73113">
        <ele>2285</ele>
        <time>2017-03-30T07:51:20Z</time>
      </trkpt>
      <trkpt lat="45.96952" lon="6.73129">
        <ele>2288</ele>
        <time>2017-03-30T07:51:23Z</time>
      </trkpt>
      <trkpt lat="45.96954" lon="6.73142">
        <ele>2286</ele>
        <time>2017-03-30T07:51:24Z</time>
      </trkpt>
      <trkpt lat="45.96952" lon="6.73164">
        <ele>2284</ele>
        <time>2017-03-30T07:51:26Z</time>
      </trkpt>
      <trkpt lat="45.96944" lon="6.7318">
        <ele>2283</ele>
        <time>2017-03-30T07:51:28Z</time>
      </trkpt>
      <trkpt lat="45.96942" lon="6.73203">
        <ele>2281</ele>
        <time>2017-03-30T07:51:30Z</time>
      </trkpt>
      <trkpt lat="45.96941" lon="6.73217">
        <ele>2275</ele>
        <time>2017-03-30T07:51:32Z</time>
      </trkpt>
      <trkpt lat="45.96942" lon="6.73239">
        <ele>2270</ele>
        <time>2017-03-30T07:51:34Z</time>
      </trkpt>
      <trkpt lat="45.96941" lon="6.73255">
        <ele>2264</ele>
        <time>2017-03-30T07:51:36Z</time>
      </trkpt>
      <trkpt lat="45.96936" lon="6.73272">
        <ele>2261</ele>
        <time>2017-03-30T07:51:38Z</time>
      </trkpt>
      <trkpt lat="45.96939" lon="6.73292">
        <ele>2258</ele>
        <time>2017-03-30T07:51:40Z</time>
      </trkpt>
      <trkpt lat="45.96944" lon="6.73313">
        <ele>2253</ele>
        <time>2017-03-30T07:51:42Z</time>
      </trkpt>
      <trkpt lat="45.96944" lon="6.73335">
        <ele>2251</ele>
        <time>2017-03-30T07:51:44Z</time>
      </trkpt>
      <trkpt lat="45.96945" lon="6.73356">
        <ele>2249</ele>
        <time>2017-03-30T07:51:46Z</time>
      </trkpt>
      <trkpt lat="45.96953" lon="6.7339">
        <ele>2246</ele>
        <time>2017-03-30T07:51:50Z</time>
      </trkpt>
      <trkpt lat="45.96958" lon="6.73416">
        <ele>2242</ele>
        <time>2017-03-30T07:51:54Z</time>
      </trkpt>
      <trkpt lat="45.96958" lon="6.7343">
        <ele>2240</ele>
        <time>2017-03-30T07:51:56Z</time>
      </trkpt>
      <trkpt lat="45.96971" lon="6.73486">
        <ele>2232</ele>
        <time>2017-03-30T07:52:08Z</time>
      </trkpt>
      <trkpt lat="45.9698" lon="6.73523">
        <ele>2228</ele>
        <time>2017-03-30T07:52:15Z</time>
      </trkpt>
      <trkpt lat="45.9699" lon="6.73547">
        <ele>2227</ele>
        <time>2017-03-30T07:52:19Z</time>
      </trkpt>
      <trkpt lat="45.96986" lon="6.73562">
        <ele>2226</ele>
        <time>2017-03-30T07:52:21Z</time>
      </trkpt>
      <trkpt lat="45.96989" lon="6.73586">
        <ele>2224</ele>
        <time>2017-03-30T07:52:25Z</time>
      </trkpt>
      <trkpt lat="45.96993" lon="6.73622">
        <ele>2221</ele>
        <time>2017-03-30T07:52:33Z</time>
      </trkpt>
      <trkpt lat="45.96987" lon="6.73641">
        <ele>2220</ele>
        <time>2017-03-30T07:52:38Z</time>
      </trkpt>
      <trkpt lat="45.96958" lon="6.73692">
        <ele>2216</ele>
        <time>2017-03-30T07:52:52Z</time>
      </trkpt>
      <trkpt lat="45.96951" lon="6.73697">
        <ele>2216</ele>
        <time>2017-03-30T07:52:54Z</time>
      </trkpt>
      <trkpt lat="45.96941" lon="6.73709">
        <ele>2216</ele>
        <time>2017-03-30T07:52:56Z</time>
      </trkpt>
      <trkpt lat="45.96937" lon="6.73723">
        <ele>2217</ele>
        <time>2017-03-30T07:52:59Z</time>
      </trkpt>
      <trkpt lat="45.96923" lon="6.73757">
        <ele>2213</ele>
        <time>2017-03-30T07:53:11Z</time>
      </trkpt>
      <trkpt lat="45.96921" lon="6.7376">
        <ele>2213</ele>
        <time>2017-03-30T07:53:14Z</time>
      </trkpt>
      <trkpt lat="45.96911" lon="6.73763">
        <ele>2212</ele>
        <time>2017-03-30T07:53:19Z</time>
      </trkpt>
      <trkpt lat="45.96908" lon="6.73765">
        <ele>2212</ele>
        <time>2017-03-30T07:53:20Z</time>
      </trkpt>
      <trkpt lat="45.96904" lon="6.73778">
        <ele>2211</ele>
        <time>2017-03-30T07:53:23Z</time>
      </trkpt>
      <trkpt lat="45.96884" lon="6.73879">
        <ele>2207</ele>
        <time>2017-03-30T07:53:36Z</time>
      </trkpt>
      <trkpt lat="45.96889" lon="6.73886">
        <ele>2205</ele>
        <time>2017-03-30T07:53:37Z</time>
      </trkpt>
      <trkpt lat="45.96903" lon="6.73895">
        <ele>2203</ele>
        <time>2017-03-30T07:53:39Z</time>
      </trkpt>
      <trkpt lat="45.96907" lon="6.73904">
        <ele>2202</ele>
        <time>2017-03-30T07:53:40Z</time>
      </trkpt>
      <trkpt lat="45.96908" lon="6.73915">
        <ele>2200</ele>
        <time>2017-03-30T07:53:41Z</time>
      </trkpt>
      <trkpt lat="45.96907" lon="6.73925">
        <ele>2198</ele>
        <time>2017-03-30T07:53:42Z</time>
      </trkpt>
      <trkpt lat="45.96901" lon="6.73936">
        <ele>2198</ele>
        <time>2017-03-30T07:53:44Z</time>
      </trkpt>
      <trkpt lat="45.96893" lon="6.73942">
        <ele>2197</ele>
        <time>2017-03-30T07:53:46Z</time>
      </trkpt>
      <trkpt lat="45.9689" lon="6.73945">
        <ele>2197</ele>
        <time>2017-03-30T07:53:47Z</time>
      </trkpt>
      <trkpt lat="45.96889" lon="6.73951">
        <ele>2196</ele>
        <time>2017-03-30T07:53:48Z</time>
      </trkpt>
      <trkpt lat="45.96891" lon="6.73972">
        <ele>2192</ele>
        <time>2017-03-30T07:53:51Z</time>
      </trkpt>
      <trkpt lat="45.96887" lon="6.73983">
        <ele>2191</ele>
        <time>2017-03-30T07:53:52Z</time>
      </trkpt>
      <trkpt lat="45.96889" lon="6.73992">
        <ele>2189</ele>
        <time>2017-03-30T07:53:53Z</time>
      </trkpt>
      <trkpt lat="45.96897" lon="6.74018">
        <ele>2184</ele>
        <time>2017-03-30T07:53:56Z</time>
      </trkpt>
      <trkpt lat="45.96889" lon="6.74039">
        <ele>2182</ele>
        <time>2017-03-30T07:53:58Z</time>
      </trkpt>
      <trkpt lat="45.96888" lon="6.74043">
        <ele>2182</ele>
        <time>2017-03-30T07:53:59Z</time>
      </trkpt>
      <trkpt lat="45.96879" lon="6.74057">
        <ele>2179</ele>
        <time>2017-03-30T07:54:01Z</time>
      </trkpt>
      <trkpt lat="45.96881" lon="6.74066">
        <ele>2177</ele>
        <time>2017-03-30T07:54:02Z</time>
      </trkpt>
      <trkpt lat="45.96893" lon="6.74081">
        <ele>2172</ele>
        <time>2017-03-30T07:54:04Z</time>
      </trkpt>
      <trkpt lat="45.96895" lon="6.7409">
        <ele>2171</ele>
        <time>2017-03-30T07:54:05Z</time>
      </trkpt>
      <trkpt lat="45.96893" lon="6.74098">
        <ele>2170</ele>
        <time>2017-03-30T07:54:06Z</time>
      </trkpt>
      <trkpt lat="45.96885" lon="6.74112">
        <ele>2166</ele>
        <time>2017-03-30T07:54:08Z</time>
      </trkpt>
      <trkpt lat="45.96874" lon="6.7413">
        <ele>2166</ele>
        <time>2017-03-30T07:54:13Z</time>
      </trkpt>
      <trkpt lat="45.96872" lon="6.74136">
        <ele>2165</ele>
        <time>2017-03-30T07:54:21Z</time>
      </trkpt>
      <trkpt lat="45.96872" lon="6.74141">
        <ele>2165</ele>
        <time>2017-03-30T07:56:02Z</time>
      </trkpt>
      <trkpt lat="45.96869" lon="6.74156">
        <ele>2162</ele>
        <time>2017-03-30T07:56:05Z</time>
      </trkpt>
      <trkpt lat="45.96859" lon="6.74233">
        <ele>2155</ele>
        <time>2017-03-30T07:56:17Z</time>
      </trkpt>
      <trkpt lat="45.96865" lon="6.74306">
        <ele>2151</ele>
        <time>2017-03-30T07:56:25Z</time>
      </trkpt>
      <trkpt lat="45.96878" lon="6.74349">
        <ele>2150</ele>
        <time>2017-03-30T07:56:31Z</time>
      </trkpt>
      <trkpt lat="45.96893" lon="6.74398">
        <ele>2147</ele>
        <time>2017-03-30T07:56:39Z</time>
      </trkpt>
      <trkpt lat="45.96915" lon="6.74508">
        <ele>2135</ele>
        <time>2017-03-30T07:56:58Z</time>
      </trkpt>
      <trkpt lat="45.96909" lon="6.74535">
        <ele>2134</ele>
        <time>2017-03-30T07:57:04Z</time>
      </trkpt>
      <trkpt lat="45.96902" lon="6.74546">
        <ele>2133</ele>
        <time>2017-03-30T07:57:08Z</time>
      </trkpt>
      <trkpt lat="45.96902" lon="6.74554">
        <ele>2132</ele>
        <time>2017-03-30T07:57:10Z</time>
      </trkpt>
      <trkpt lat="45.96902" lon="6.74577">
        <ele>2131</ele>
        <time>2017-03-30T07:57:15Z</time>
      </trkpt>
      <trkpt lat="45.96895" lon="6.7459">
        <ele>2130</ele>
        <time>2017-03-30T07:57:19Z</time>
      </trkpt>
      <trkpt lat="45.96884" lon="6.74611">
        <ele>2129</ele>
        <time>2017-03-30T07:57:23Z</time>
      </trkpt>
      <trkpt lat="45.9688" lon="6.74663">
        <ele>2125</ele>
        <time>2017-03-30T07:57:31Z</time>
      </trkpt>
      <trkpt lat="45.96871" lon="6.74712">
        <ele>2121</ele>
        <time>2017-03-30T07:57:38Z</time>
      </trkpt>
      <trkpt lat="45.96864" lon="6.7476">
        <ele>2119</ele>
        <time>2017-03-30T07:57:44Z</time>
      </trkpt>
      <trkpt lat="45.96866" lon="6.74805">
        <ele>2117</ele>
        <time>2017-03-30T07:57:50Z</time>
      </trkpt>
      <trkpt lat="45.96863" lon="6.74845">
        <ele>2115</ele>
        <time>2017-03-30T07:57:55Z</time>
      </trkpt>
      <trkpt lat="45.96861" lon="6.74875">
        <ele>2112</ele>
        <time>2017-03-30T07:57:59Z</time>
      </trkpt>
      <trkpt lat="45.96867" lon="6.74908">
        <ele>2110</ele>
        <time>2017-03-30T07:58:04Z</time>
      </trkpt>
      <trkpt lat="45.96875" lon="6.7492">
        <ele>2109</ele>
        <time>2017-03-30T07:58:07Z</time>
      </trkpt>
      <trkpt lat="45.96892" lon="6.74962">
        <ele>2104</ele>
        <time>2017-03-30T07:58:14Z</time>
      </trkpt>
      <trkpt lat="45.96918" lon="6.75016">
        <ele>2099</ele>
        <time>2017-03-30T07:58:25Z</time>
      </trkpt>
      <trkpt lat="45.96922" lon="6.75019">
        <ele>2099</ele>
        <time>2017-03-30T07:58:27Z</time>
      </trkpt>
      <trkpt lat="45.96918" lon="6.75025">
        <ele>2099</ele>
        <time>2017-03-30T07:58:29Z</time>
      </trkpt>
      <trkpt lat="45.96927" lon="6.75025">
        <ele>2100</ele>
        <time>2017-03-30T07:58:36Z</time>
      </trkpt>
      <trkpt lat="45.96947" lon="6.75032">
        <ele>2097</ele>
        <time>2017-03-30T07:58:40Z</time>
      </trkpt>
      <trkpt lat="45.96958" lon="6.7504">
        <ele>2096</ele>
        <time>2017-03-30T07:58:42Z</time>
      </trkpt>
      <trkpt lat="45.96958" lon="6.75059">
        <ele>2095</ele>
        <time>2017-03-30T07:58:44Z</time>
      </trkpt>
      <trkpt lat="45.96953" lon="6.75089">
        <ele>2093</ele>
        <time>2017-03-30T07:58:48Z</time>
      </trkpt>
      <trkpt lat="45.96959" lon="6.75095">
        <ele>2093</ele>
        <time>2017-03-30T07:58:51Z</time>
      </trkpt>
      <trkpt lat="45.96962" lon="6.7512">
        <ele>2090</ele>
        <time>2017-03-30T07:58:54Z</time>
      </trkpt>
      <trkpt lat="45.96961" lon="6.75138">
        <ele>2087</ele>
        <time>2017-03-30T07:58:56Z</time>
      </trkpt>
      <trkpt lat="45.96955" lon="6.75158">
        <ele>2084</ele>
        <time>2017-03-30T07:58:58Z</time>
      </trkpt>
      <trkpt lat="45.96959" lon="6.75174">
        <ele>2081</ele>
        <time>2017-03-30T07:59:00Z</time>
      </trkpt>
      <trkpt lat="45.96961" lon="6.75185">
        <ele>2079</ele>
        <time>2017-03-30T07:59:01Z</time>
      </trkpt>
      <trkpt lat="45.96966" lon="6.75216">
        <ele>2075</ele>
        <time>2017-03-30T07:59:04Z</time>
      </trkpt>
      <trkpt lat="45.96975" lon="6.75251">
        <ele>2072</ele>
        <time>2017-03-30T07:59:10Z</time>
      </trkpt>
      <trkpt lat="45.96992" lon="6.75278">
        <ele>2069</ele>
        <time>2017-03-30T07:59:18Z</time>
      </trkpt>
      <trkpt lat="45.96997" lon="6.75284">
        <ele>2067</ele>
        <time>2017-03-30T07:59:20Z</time>
      </trkpt>
      <trkpt lat="45.96999" lon="6.75285">
        <ele>2059</ele>
        <time>2017-03-30T08:00:38Z</time>
      </trkpt>
      <trkpt lat="45.96999" lon="6.75292">
        <ele>2055</ele>
        <time>2017-03-30T08:03:01Z</time>
      </trkpt>
      <trkpt lat="45.96995" lon="6.75293">
        <ele>2056</ele>
        <time>2017-03-30T08:04:15Z</time>
      </trkpt>
      <trkpt lat="45.96997" lon="6.75294">
        <ele>2053</ele>
        <time>2017-03-30T08:09:45Z</time>
      </trkpt>
      <trkpt lat="45.96998" lon="6.7529">
        <ele>2053</ele>
        <time>2017-03-30T08:10:41Z</time>
      </trkpt>
      <trkpt lat="45.97" lon="6.75293">
        <ele>2053</ele>
        <time>2017-03-30T08:12:07Z</time>
      </trkpt>
      <trkpt lat="45.97008" lon="6.75302">
        <ele>2053</ele>
        <time>2017-03-30T08:12:40Z</time>
      </trkpt>
      <trkpt lat="45.97006" lon="6.75306">
        <ele>2054</ele>
        <time>2017-03-30T08:15:17Z</time>
      </trkpt>
      <trkpt lat="45.97003" lon="6.75338">
        <ele>2056</ele>
        <time>2017-03-30T08:15:50Z</time>
      </trkpt>
      <trkpt lat="45.97004" lon="6.75376">
        <ele>2060</ele>
        <time>2017-03-30T08:16:24Z</time>
      </trkpt>
      <trkpt lat="45.97003" lon="6.75394">
        <ele>2062</ele>
        <time>2017-03-30T08:16:41Z</time>
      </trkpt>
      <trkpt lat="45.96998" lon="6.75422">
        <ele>2066</ele>
        <time>2017-03-30T08:17:13Z</time>
      </trkpt>
      <trkpt lat="45.96995" lon="6.7543">
        <ele>2067</ele>
        <time>2017-03-30T08:17:22Z</time>
      </trkpt>
      <trkpt lat="45.96978" lon="6.75454">
        <ele>2068</ele>
        <time>2017-03-30T08:17:49Z</time>
      </trkpt>
      <trkpt lat="45.96954" lon="6.7549">
        <ele>2069</ele>
        <time>2017-03-30T08:18:21Z</time>
      </trkpt>
      <trkpt lat="45.96944" lon="6.75528">
        <ele>2072</ele>
        <time>2017-03-30T08:18:48Z</time>
      </trkpt>
      <trkpt lat="45.96945" lon="6.75552">
        <ele>2074</ele>
        <time>2017-03-30T08:19:02Z</time>
      </trkpt>
      <trkpt lat="45.96947" lon="6.75561">
        <ele>2073</ele>
        <time>2017-03-30T08:19:10Z</time>
      </trkpt>
      <trkpt lat="45.96957" lon="6.75585">
        <ele>2075</ele>
        <time>2017-03-30T08:19:30Z</time>
      </trkpt>
      <trkpt lat="45.96963" lon="6.75615">
        <ele>2075</ele>
        <time>2017-03-30T08:19:56Z</time>
      </trkpt>
      <trkpt lat="45.96963" lon="6.75628">
        <ele>2077</ele>
        <time>2017-03-30T08:20:05Z</time>
      </trkpt>
      <trkpt lat="45.96968" lon="6.75645">
        <ele>2078</ele>
        <time>2017-03-30T08:20:18Z</time>
      </trkpt>
      <trkpt lat="45.96973" lon="6.75657">
        <ele>2077</ele>
        <time>2017-03-30T08:20:28Z</time>
      </trkpt>
      <trkpt lat="45.96982" lon="6.75669">
        <ele>2076</ele>
        <time>2017-03-30T08:20:42Z</time>
      </trkpt>
      <trkpt lat="45.96989" lon="6.75683">
        <ele>2078</ele>
        <time>2017-03-30T08:21:12Z</time>
      </trkpt>
      <trkpt lat="45.96992" lon="6.7569">
        <ele>2078</ele>
        <time>2017-03-30T08:21:22Z</time>
      </trkpt>
      <trkpt lat="45.96996" lon="6.75691">
        <ele>2078</ele>
        <time>2017-03-30T08:21:26Z</time>
      </trkpt>
      <trkpt lat="45.96999" lon="6.75695">
        <ele>2078</ele>
        <time>2017-03-30T08:21:33Z</time>
      </trkpt>
      <trkpt lat="45.97005" lon="6.75717">
        <ele>2081</ele>
        <time>2017-03-30T08:21:52Z</time>
      </trkpt>
      <trkpt lat="45.97009" lon="6.75729">
        <ele>2083</ele>
        <time>2017-03-30T08:22:03Z</time>
      </trkpt>
      <trkpt lat="45.97021" lon="6.75755">
        <ele>2083</ele>
        <time>2017-03-30T08:22:34Z</time>
      </trkpt>
      <trkpt lat="45.97031" lon="6.75782">
        <ele>2087</ele>
        <time>2017-03-30T08:23:02Z</time>
      </trkpt>
      <trkpt lat="45.97031" lon="6.7579">
        <ele>2088</ele>
        <time>2017-03-30T08:23:09Z</time>
      </trkpt>
      <trkpt lat="45.97029" lon="6.75799">
        <ele>2090</ele>
        <time>2017-03-30T08:23:17Z</time>
      </trkpt>
      <trkpt lat="45.97026" lon="6.75808">
        <ele>2091</ele>
        <time>2017-03-30T08:23:27Z</time>
      </trkpt>
      <trkpt lat="45.97026" lon="6.75822">
        <ele>2093</ele>
        <time>2017-03-30T08:23:39Z</time>
      </trkpt>
      <trkpt lat="45.97028" lon="6.75839">
        <ele>2094</ele>
        <time>2017-03-30T08:23:53Z</time>
      </trkpt>
      <trkpt lat="45.97037" lon="6.75872">
        <ele>2097</ele>
        <time>2017-03-30T08:24:23Z</time>
      </trkpt>
      <trkpt lat="45.97041" lon="6.75903">
        <ele>2101</ele>
        <time>2017-03-30T08:24:56Z</time>
      </trkpt>
      <trkpt lat="45.97044" lon="6.75921">
        <ele>2105</ele>
        <time>2017-03-30T08:25:13Z</time>
      </trkpt>
      <trkpt lat="45.97051" lon="6.75932">
        <ele>2108</ele>
        <time>2017-03-30T08:25:32Z</time>
      </trkpt>
      <trkpt lat="45.97056" lon="6.75948">
        <ele>2110</ele>
        <time>2017-03-30T08:26:05Z</time>
      </trkpt>
      <trkpt lat="45.97058" lon="6.75951">
        <ele>2112</ele>
        <time>2017-03-30T08:26:12Z</time>
      </trkpt>
      <trkpt lat="45.97058" lon="6.75956">
        <ele>2112</ele>
        <time>2017-03-30T08:26:17Z</time>
      </trkpt>
      <trkpt lat="45.9706" lon="6.75959">
        <ele>2113</ele>
        <time>2017-03-30T08:26:22Z</time>
      </trkpt>
      <trkpt lat="45.97067" lon="6.75985">
        <ele>2116</ele>
        <time>2017-03-30T08:26:55Z</time>
      </trkpt>
      <trkpt lat="45.97077" lon="6.76013">
        <ele>2119</ele>
        <time>2017-03-30T08:27:30Z</time>
      </trkpt>
      <trkpt lat="45.97085" lon="6.76038">
        <ele>2123</ele>
        <time>2017-03-30T08:28:02Z</time>
      </trkpt>
      <trkpt lat="45.97092" lon="6.76054">
        <ele>2127</ele>
        <time>2017-03-30T08:28:21Z</time>
      </trkpt>
      <trkpt lat="45.971" lon="6.76059">
        <ele>2125</ele>
        <time>2017-03-30T08:28:28Z</time>
      </trkpt>
      <trkpt lat="45.97102" lon="6.76063">
        <ele>2126</ele>
        <time>2017-03-30T08:28:34Z</time>
      </trkpt>
      <trkpt lat="45.97104" lon="6.76071">
        <ele>2126</ele>
        <time>2017-03-30T08:28:45Z</time>
      </trkpt>
      <trkpt lat="45.97106" lon="6.76083">
        <ele>2128</ele>
        <time>2017-03-30T08:29:00Z</time>
      </trkpt>
      <trkpt lat="45.97109" lon="6.76086">
        <ele>2130</ele>
        <time>2017-03-30T08:29:05Z</time>
      </trkpt>
      <trkpt lat="45.97109" lon="6.76092">
        <ele>2131</ele>
        <time>2017-03-30T08:29:11Z</time>
      </trkpt>
      <trkpt lat="45.9712" lon="6.76118">
        <ele>2134</ele>
        <time>2017-03-30T08:29:40Z</time>
      </trkpt>
      <trkpt lat="45.97129" lon="6.76143">
        <ele>2138</ele>
        <time>2017-03-30T08:30:12Z</time>
      </trkpt>
      <trkpt lat="45.97139" lon="6.76164">
        <ele>2142</ele>
        <time>2017-03-30T08:30:42Z</time>
      </trkpt>
      <trkpt lat="45.97149" lon="6.76188">
        <ele>2146</ele>
        <time>2017-03-30T08:31:16Z</time>
      </trkpt>
      <trkpt lat="45.97161" lon="6.76203">
        <ele>2149</ele>
        <time>2017-03-30T08:31:44Z</time>
      </trkpt>
      <trkpt lat="45.97162" lon="6.76207">
        <ele>2149</ele>
        <time>2017-03-30T08:31:47Z</time>
      </trkpt>
      <trkpt lat="45.97164" lon="6.76209">
        <ele>2152</ele>
        <time>2017-03-30T08:31:56Z</time>
      </trkpt>
      <trkpt lat="45.97164" lon="6.76213">
        <ele>2152</ele>
        <time>2017-03-30T08:32:05Z</time>
      </trkpt>
      <trkpt lat="45.97163" lon="6.76217">
        <ele>2153</ele>
        <time>2017-03-30T08:32:07Z</time>
      </trkpt>
      <trkpt lat="45.97167" lon="6.76223">
        <ele>2153</ele>
        <time>2017-03-30T08:32:14Z</time>
      </trkpt>
      <trkpt lat="45.97175" lon="6.7623">
        <ele>2155</ele>
        <time>2017-03-30T08:32:31Z</time>
      </trkpt>
      <trkpt lat="45.97185" lon="6.76242">
        <ele>2155</ele>
        <time>2017-03-30T08:32:46Z</time>
      </trkpt>
      <trkpt lat="45.97188" lon="6.76244">
        <ele>2154</ele>
        <time>2017-03-30T08:32:48Z</time>
      </trkpt>
      <trkpt lat="45.97198" lon="6.76244">
        <ele>2153</ele>
        <time>2017-03-30T08:32:55Z</time>
      </trkpt>
      <trkpt lat="45.97203" lon="6.7625">
        <ele>2154</ele>
        <time>2017-03-30T08:33:01Z</time>
      </trkpt>
      <trkpt lat="45.97224" lon="6.76279">
        <ele>2152</ele>
        <time>2017-03-30T08:33:33Z</time>
      </trkpt>
      <trkpt lat="45.9723" lon="6.76284">
        <ele>2154</ele>
        <time>2017-03-30T08:33:39Z</time>
      </trkpt>
      <trkpt lat="45.9727" lon="6.76297">
        <ele>2151</ele>
        <time>2017-03-30T08:34:09Z</time>
      </trkpt>
      <trkpt lat="45.97287" lon="6.76305">
        <ele>2153</ele>
        <time>2017-03-30T08:34:24Z</time>
      </trkpt>
      <trkpt lat="45.97296" lon="6.76311">
        <ele>2155</ele>
        <time>2017-03-30T08:34:33Z</time>
      </trkpt>
      <trkpt lat="45.97332" lon="6.76299">
        <ele>2152</ele>
        <time>2017-03-30T08:35:04Z</time>
      </trkpt>
      <trkpt lat="45.97341" lon="6.76292">
        <ele>2151</ele>
        <time>2017-03-30T08:35:13Z</time>
      </trkpt>
      <trkpt lat="45.97343" lon="6.7629">
        <ele>2151</ele>
        <time>2017-03-30T08:35:16Z</time>
      </trkpt>
      <trkpt lat="45.97346" lon="6.7629">
        <ele>2153</ele>
        <time>2017-03-30T08:35:22Z</time>
      </trkpt>
      <trkpt lat="45.9738" lon="6.76292">
        <ele>2150</ele>
        <time>2017-03-30T08:35:52Z</time>
      </trkpt>
      <trkpt lat="45.97398" lon="6.7629">
        <ele>2151</ele>
        <time>2017-03-30T08:36:07Z</time>
      </trkpt>
      <trkpt lat="45.97412" lon="6.76304">
        <ele>2153</ele>
        <time>2017-03-30T08:36:24Z</time>
      </trkpt>
      <trkpt lat="45.9744" lon="6.76326">
        <ele>2156</ele>
        <time>2017-03-30T08:36:53Z</time>
      </trkpt>
      <trkpt lat="45.97461" lon="6.76348">
        <ele>2157</ele>
        <time>2017-03-30T08:37:17Z</time>
      </trkpt>
      <trkpt lat="45.97477" lon="6.76371">
        <ele>2161</ele>
        <time>2017-03-30T08:37:38Z</time>
      </trkpt>
      <trkpt lat="45.97485" lon="6.76379">
        <ele>2163</ele>
        <time>2017-03-30T08:37:46Z</time>
      </trkpt>
      <trkpt lat="45.97491" lon="6.76383">
        <ele>2164</ele>
        <time>2017-03-30T08:38:08Z</time>
      </trkpt>
      <trkpt lat="45.97493" lon="6.76389">
        <ele>2163</ele>
        <time>2017-03-30T08:41:02Z</time>
      </trkpt>
      <trkpt lat="45.97496" lon="6.76396">
        <ele>2164</ele>
        <time>2017-03-30T08:41:07Z</time>
      </trkpt>
      <trkpt lat="45.97499" lon="6.76396">
        <ele>2163</ele>
        <time>2017-03-30T08:41:13Z</time>
      </trkpt>
      <trkpt lat="45.97512" lon="6.76413">
        <ele>2164</ele>
        <time>2017-03-30T08:41:45Z</time>
      </trkpt>
      <trkpt lat="45.97515" lon="6.76421">
        <ele>2165</ele>
        <time>2017-03-30T08:41:55Z</time>
      </trkpt>
      <trkpt lat="45.97526" lon="6.76443">
        <ele>2170</ele>
        <time>2017-03-30T08:42:28Z</time>
      </trkpt>
      <trkpt lat="45.9753" lon="6.76456">
        <ele>2174</ele>
        <time>2017-03-30T08:42:47Z</time>
      </trkpt>
      <trkpt lat="45.97536" lon="6.76475">
        <ele>2176</ele>
        <time>2017-03-30T08:43:19Z</time>
      </trkpt>
      <trkpt lat="45.97541" lon="6.7649">
        <ele>2179</ele>
        <time>2017-03-30T08:43:53Z</time>
      </trkpt>
      <trkpt lat="45.97547" lon="6.76511">
        <ele>2185</ele>
        <time>2017-03-30T08:44:23Z</time>
      </trkpt>
      <trkpt lat="45.97556" lon="6.76533">
        <ele>2189</ele>
        <time>2017-03-30T08:44:56Z</time>
      </trkpt>
      <trkpt lat="45.97567" lon="6.76556">
        <ele>2191</ele>
        <time>2017-03-30T08:45:27Z</time>
      </trkpt>
      <trkpt lat="45.97578" lon="6.76583">
        <ele>2193</ele>
        <time>2017-03-30T08:45:58Z</time>
      </trkpt>
      <trkpt lat="45.97587" lon="6.76602">
        <ele>2195</ele>
        <time>2017-03-30T08:46:22Z</time>
      </trkpt>
      <trkpt lat="45.97587" lon="6.76606">
        <ele>2195</ele>
        <time>2017-03-30T08:46:27Z</time>
      </trkpt>
      <trkpt lat="45.9759" lon="6.76609">
        <ele>2196</ele>
        <time>2017-03-30T08:46:32Z</time>
      </trkpt>
      <trkpt lat="45.9759" lon="6.76626">
        <ele>2200</ele>
        <time>2017-03-30T08:46:54Z</time>
      </trkpt>
      <trkpt lat="45.97593" lon="6.76633">
        <ele>2202</ele>
        <time>2017-03-30T08:47:17Z</time>
      </trkpt>
      <trkpt lat="45.97594" lon="6.76637">
        <ele>2202</ele>
        <time>2017-03-30T08:47:21Z</time>
      </trkpt>
      <trkpt lat="45.97597" lon="6.76639">
        <ele>2202</ele>
        <time>2017-03-30T08:47:25Z</time>
      </trkpt>
      <trkpt lat="45.97609" lon="6.76666">
        <ele>2207</ele>
        <time>2017-03-30T08:47:59Z</time>
      </trkpt>
      <trkpt lat="45.97625" lon="6.7669">
        <ele>2212</ele>
        <time>2017-03-30T08:48:29Z</time>
      </trkpt>
      <trkpt lat="45.97628" lon="6.76693">
        <ele>2213</ele>
        <time>2017-03-30T08:48:33Z</time>
      </trkpt>
      <trkpt lat="45.97639" lon="6.76702">
        <ele>2212</ele>
        <time>2017-03-30T08:48:48Z</time>
      </trkpt>
      <trkpt lat="45.97642" lon="6.76709">
        <ele>2213</ele>
        <time>2017-03-30T08:48:53Z</time>
      </trkpt>
      <trkpt lat="45.9766" lon="6.76734">
        <ele>2212</ele>
        <time>2017-03-30T08:49:23Z</time>
      </trkpt>
      <trkpt lat="45.97679" lon="6.76759">
        <ele>2214</ele>
        <time>2017-03-30T08:49:53Z</time>
      </trkpt>
      <trkpt lat="45.97694" lon="6.76777">
        <ele>2217</ele>
        <time>2017-03-30T08:50:19Z</time>
      </trkpt>
      <trkpt lat="45.97706" lon="6.76796">
        <ele>2219</ele>
        <time>2017-03-30T08:50:42Z</time>
      </trkpt>
      <trkpt lat="45.97708" lon="6.76799">
        <ele>2219</ele>
        <time>2017-03-30T08:50:46Z</time>
      </trkpt>
      <trkpt lat="45.97714" lon="6.76802">
        <ele>2218</ele>
        <time>2017-03-30T08:50:56Z</time>
      </trkpt>
      <trkpt lat="45.97717" lon="6.76809">
        <ele>2218</ele>
        <time>2017-03-30T08:51:02Z</time>
      </trkpt>
      <trkpt lat="45.9772" lon="6.76825">
        <ele>2220</ele>
        <time>2017-03-30T08:51:32Z</time>
      </trkpt>
      <trkpt lat="45.97737" lon="6.76855">
        <ele>2217</ele>
        <time>2017-03-30T08:51:55Z</time>
      </trkpt>
      <trkpt lat="45.97743" lon="6.76857">
        <ele>2216</ele>
        <time>2017-03-30T08:52:01Z</time>
      </trkpt>
      <trkpt lat="45.97748" lon="6.76862">
        <ele>2218</ele>
        <time>2017-03-30T08:52:11Z</time>
      </trkpt>
      <trkpt lat="45.9775" lon="6.76872">
        <ele>2220</ele>
        <time>2017-03-30T08:52:21Z</time>
      </trkpt>
      <trkpt lat="45.97756" lon="6.76882">
        <ele>2222</ele>
        <time>2017-03-30T08:52:34Z</time>
      </trkpt>
      <trkpt lat="45.97771" lon="6.76905">
        <ele>2225</ele>
        <time>2017-03-30T08:53:03Z</time>
      </trkpt>
      <trkpt lat="45.97774" lon="6.76905">
        <ele>2225</ele>
        <time>2017-03-30T08:53:05Z</time>
      </trkpt>
      <trkpt lat="45.97793" lon="6.7691">
        <ele>2223</ele>
        <time>2017-03-30T08:53:24Z</time>
      </trkpt>
      <trkpt lat="45.97798" lon="6.76914">
        <ele>2226</ele>
        <time>2017-03-30T08:53:31Z</time>
      </trkpt>
      <trkpt lat="45.97803" lon="6.76918">
        <ele>2227</ele>
        <time>2017-03-30T08:53:39Z</time>
      </trkpt>
      <trkpt lat="45.9782" lon="6.76923">
        <ele>2229</ele>
        <time>2017-03-30T08:53:59Z</time>
      </trkpt>
      <trkpt lat="45.97837" lon="6.76928">
        <ele>2227</ele>
        <time>2017-03-30T08:54:13Z</time>
      </trkpt>
      <trkpt lat="45.97863" lon="6.76935">
        <ele>2227</ele>
        <time>2017-03-30T08:54:36Z</time>
      </trkpt>
      <trkpt lat="45.97868" lon="6.76929">
        <ele>2227</ele>
        <time>2017-03-30T08:54:43Z</time>
      </trkpt>
      <trkpt lat="45.9787" lon="6.76926">
        <ele>2227</ele>
        <time>2017-03-30T08:54:47Z</time>
      </trkpt>
      <trkpt lat="45.97873" lon="6.76928">
        <ele>2228</ele>
        <time>2017-03-30T08:54:52Z</time>
      </trkpt>
      <trkpt lat="45.97875" lon="6.76932">
        <ele>2230</ele>
        <time>2017-03-30T08:54:58Z</time>
      </trkpt>
      <trkpt lat="45.9788" lon="6.76938">
        <ele>2231</ele>
        <time>2017-03-30T08:55:08Z</time>
      </trkpt>
      <trkpt lat="45.97885" lon="6.76945">
        <ele>2232</ele>
        <time>2017-03-30T08:55:18Z</time>
      </trkpt>
      <trkpt lat="45.97885" lon="6.76959">
        <ele>2239</ele>
        <time>2017-03-30T08:55:48Z</time>
      </trkpt>
      <trkpt lat="45.97885" lon="6.76963">
        <ele>2241</ele>
        <time>2017-03-30T08:55:52Z</time>
      </trkpt>
      <trkpt lat="45.97887" lon="6.76966">
        <ele>2242</ele>
        <time>2017-03-30T08:55:57Z</time>
      </trkpt>
      <trkpt lat="45.97888" lon="6.76993">
        <ele>2249</ele>
        <time>2017-03-30T08:56:31Z</time>
      </trkpt>
      <trkpt lat="45.97887" lon="6.77006">
        <ele>2252</ele>
        <time>2017-03-30T08:56:50Z</time>
      </trkpt>
      <trkpt lat="45.97884" lon="6.77009">
        <ele>2253</ele>
        <time>2017-03-30T08:56:56Z</time>
      </trkpt>
      <trkpt lat="45.97883" lon="6.77018">
        <ele>2257</ele>
        <time>2017-03-30T08:57:07Z</time>
      </trkpt>
      <trkpt lat="45.97885" lon="6.77022">
        <ele>2259</ele>
        <time>2017-03-30T08:57:13Z</time>
      </trkpt>
      <trkpt lat="45.97888" lon="6.77028">
        <ele>2262</ele>
        <time>2017-03-30T08:57:25Z</time>
      </trkpt>
      <trkpt lat="45.97893" lon="6.77035">
        <ele>2262</ele>
        <time>2017-03-30T08:57:36Z</time>
      </trkpt>
      <trkpt lat="45.97898" lon="6.7704">
        <ele>2263</ele>
        <time>2017-03-30T08:57:45Z</time>
      </trkpt>
      <trkpt lat="45.97914" lon="6.77058">
        <ele>2269</ele>
        <time>2017-03-30T08:58:18Z</time>
      </trkpt>
      <trkpt lat="45.97922" lon="6.77068">
        <ele>2269</ele>
        <time>2017-03-30T08:58:35Z</time>
      </trkpt>
      <trkpt lat="45.97921" lon="6.77072">
        <ele>2271</ele>
        <time>2017-03-30T08:58:43Z</time>
      </trkpt>
      <trkpt lat="45.97917" lon="6.77081">
        <ele>2275</ele>
        <time>2017-03-30T08:58:55Z</time>
      </trkpt>
      <trkpt lat="45.97917" lon="6.77085">
        <ele>2276</ele>
        <time>2017-03-30T08:58:58Z</time>
      </trkpt>
      <trkpt lat="45.97913" lon="6.77091">
        <ele>2276</ele>
        <time>2017-03-30T08:59:05Z</time>
      </trkpt>
      <trkpt lat="45.9792" lon="6.77099">
        <ele>2280</ele>
        <time>2017-03-30T08:59:19Z</time>
      </trkpt>
      <trkpt lat="45.97923" lon="6.77101">
        <ele>2281</ele>
        <time>2017-03-30T08:59:23Z</time>
      </trkpt>
      <trkpt lat="45.97941" lon="6.77121">
        <ele>2284</ele>
        <time>2017-03-30T08:59:54Z</time>
      </trkpt>
      <trkpt lat="45.97947" lon="6.77121">
        <ele>2285</ele>
        <time>2017-03-30T09:00:01Z</time>
      </trkpt>
      <trkpt lat="45.97956" lon="6.77123">
        <ele>2287</ele>
        <time>2017-03-30T09:00:14Z</time>
      </trkpt>
      <trkpt lat="45.97974" lon="6.77142">
        <ele>2290</ele>
        <time>2017-03-30T09:00:45Z</time>
      </trkpt>
      <trkpt lat="45.97997" lon="6.77156">
        <ele>2292</ele>
        <time>2017-03-30T09:01:17Z</time>
      </trkpt>
      <trkpt lat="45.98" lon="6.77157">
        <ele>2293</ele>
        <time>2017-03-30T09:01:20Z</time>
      </trkpt>
      <trkpt lat="45.98002" lon="6.7716">
        <ele>2294</ele>
        <time>2017-03-30T09:01:24Z</time>
      </trkpt>
      <trkpt lat="45.98005" lon="6.7716">
        <ele>2296</ele>
        <time>2017-03-30T09:01:27Z</time>
      </trkpt>
      <trkpt lat="45.98007" lon="6.77163">
        <ele>2296</ele>
        <time>2017-03-30T09:01:32Z</time>
      </trkpt>
      <trkpt lat="45.98012" lon="6.77172">
        <ele>2301</ele>
        <time>2017-03-30T09:01:57Z</time>
      </trkpt>
      <trkpt lat="45.98011" lon="6.77181">
        <ele>2303</ele>
        <time>2017-03-30T09:02:10Z</time>
      </trkpt>
      <trkpt lat="45.98007" lon="6.77188">
        <ele>2306</ele>
        <time>2017-03-30T09:02:22Z</time>
      </trkpt>
      <trkpt lat="45.98002" lon="6.77192">
        <ele>2307</ele>
        <time>2017-03-30T09:02:33Z</time>
      </trkpt>
      <trkpt lat="45.97993" lon="6.77205">
        <ele>2310</ele>
        <time>2017-03-30T09:02:53Z</time>
      </trkpt>
      <trkpt lat="45.97993" lon="6.77209">
        <ele>2311</ele>
        <time>2017-03-30T09:02:57Z</time>
      </trkpt>
      <trkpt lat="45.97995" lon="6.77212">
        <ele>2311</ele>
        <time>2017-03-30T09:03:01Z</time>
      </trkpt>
      <trkpt lat="45.98" lon="6.77218">
        <ele>2314</ele>
        <time>2017-03-30T09:03:13Z</time>
      </trkpt>
      <trkpt lat="45.98004" lon="6.77225">
        <ele>2314</ele>
        <time>2017-03-30T09:03:23Z</time>
      </trkpt>
      <trkpt lat="45.9801" lon="6.77229">
        <ele>2314</ele>
        <time>2017-03-30T09:03:34Z</time>
      </trkpt>
      <trkpt lat="45.98011" lon="6.77233">
        <ele>2317</ele>
        <time>2017-03-30T09:03:39Z</time>
      </trkpt>
      <trkpt lat="45.98023" lon="6.77246">
        <ele>2320</ele>
        <time>2017-03-30T09:04:03Z</time>
      </trkpt>
      <trkpt lat="45.98029" lon="6.77251">
        <ele>2321</ele>
        <time>2017-03-30T09:04:14Z</time>
      </trkpt>
      <trkpt lat="45.98034" lon="6.77261">
        <ele>2324</ele>
        <time>2017-03-30T09:04:28Z</time>
      </trkpt>
      <trkpt lat="45.98042" lon="6.7727">
        <ele>2326</ele>
        <time>2017-03-30T09:04:41Z</time>
      </trkpt>
      <trkpt lat="45.98058" lon="6.77283">
        <ele>2331</ele>
        <time>2017-03-30T09:05:11Z</time>
      </trkpt>
      <trkpt lat="45.98064" lon="6.77287">
        <ele>2333</ele>
        <time>2017-03-30T09:05:19Z</time>
      </trkpt>
      <trkpt lat="45.98071" lon="6.77302">
        <ele>2336</ele>
        <time>2017-03-30T09:05:39Z</time>
      </trkpt>
      <trkpt lat="45.98086" lon="6.77323">
        <ele>2342</ele>
        <time>2017-03-30T09:06:09Z</time>
      </trkpt>
      <trkpt lat="45.98091" lon="6.77334">
        <ele>2342</ele>
        <time>2017-03-30T09:06:24Z</time>
      </trkpt>
      <trkpt lat="45.98098" lon="6.77345">
        <ele>2341</ele>
        <time>2017-03-30T09:06:39Z</time>
      </trkpt>
      <trkpt lat="45.98103" lon="6.77357">
        <ele>2344</ele>
        <time>2017-03-30T09:06:51Z</time>
      </trkpt>
      <trkpt lat="45.98113" lon="6.77369">
        <ele>2346</ele>
        <time>2017-03-30T09:07:11Z</time>
      </trkpt>
      <trkpt lat="45.98122" lon="6.77376">
        <ele>2351</ele>
        <time>2017-03-30T09:07:25Z</time>
      </trkpt>
      <trkpt lat="45.98125" lon="6.77377">
        <ele>2351</ele>
        <time>2017-03-30T09:07:28Z</time>
      </trkpt>
      <trkpt lat="45.98127" lon="6.7738">
        <ele>2354</ele>
        <time>2017-03-30T09:07:33Z</time>
      </trkpt>
      <trkpt lat="45.98139" lon="6.77405">
        <ele>2355</ele>
        <time>2017-03-30T09:08:05Z</time>
      </trkpt>
      <trkpt lat="45.98155" lon="6.77424">
        <ele>2361</ele>
        <time>2017-03-30T09:08:29Z</time>
      </trkpt>
      <trkpt lat="45.98158" lon="6.77424">
        <ele>2361</ele>
        <time>2017-03-30T09:08:32Z</time>
      </trkpt>
      <trkpt lat="45.98176" lon="6.77418">
        <ele>2362</ele>
        <time>2017-03-30T09:08:55Z</time>
      </trkpt>
      <trkpt lat="45.98187" lon="6.77412">
        <ele>2363</ele>
        <time>2017-03-30T09:09:11Z</time>
      </trkpt>
      <trkpt lat="45.98188" lon="6.7742">
        <ele>2362</ele>
        <time>2017-03-30T09:15:10Z</time>
      </trkpt>
      <trkpt lat="45.98185" lon="6.77418">
        <ele>2362</ele>
        <time>2017-03-30T09:16:32Z</time>
      </trkpt>
      <trkpt lat="45.98184" lon="6.77421">
        <ele>2362</ele>
        <time>2017-03-30T09:16:56Z</time>
      </trkpt>
      <trkpt lat="45.98187" lon="6.77426">
        <ele>2362</ele>
        <time>2017-03-30T09:17:06Z</time>
      </trkpt>
      <trkpt lat="45.98184" lon="6.77429">
        <ele>2357</ele>
        <time>2017-03-30T09:17:09Z</time>
      </trkpt>
      <trkpt lat="45.98181" lon="6.7744">
        <ele>2366</ele>
        <time>2017-03-30T09:17:29Z</time>
      </trkpt>
      <trkpt lat="45.98181" lon="6.77446">
        <ele>2367</ele>
        <time>2017-03-30T09:17:39Z</time>
      </trkpt>
      <trkpt lat="45.98181" lon="6.77467">
        <ele>2374</ele>
        <time>2017-03-30T09:18:11Z</time>
      </trkpt>
      <trkpt lat="45.9818" lon="6.77476">
        <ele>2381</ele>
        <time>2017-03-30T09:18:31Z</time>
      </trkpt>
      <trkpt lat="45.98175" lon="6.77483">
        <ele>2384</ele>
        <time>2017-03-30T09:18:44Z</time>
      </trkpt>
      <trkpt lat="45.98173" lon="6.77486">
        <ele>2384</ele>
        <time>2017-03-30T09:18:51Z</time>
      </trkpt>
      <trkpt lat="45.98167" lon="6.77497">
        <ele>2386</ele>
        <time>2017-03-30T09:19:13Z</time>
      </trkpt>
      <trkpt lat="45.98167" lon="6.7751">
        <ele>2382</ele>
        <time>2017-03-30T09:19:30Z</time>
      </trkpt>
      <trkpt lat="45.98164" lon="6.77513">
        <ele>2385</ele>
        <time>2017-03-30T09:19:38Z</time>
      </trkpt>
      <trkpt lat="45.98162" lon="6.77518">
        <ele>2386</ele>
        <time>2017-03-30T09:19:43Z</time>
      </trkpt>
      <trkpt lat="45.98162" lon="6.77532">
        <ele>2387</ele>
        <time>2017-03-30T09:20:00Z</time>
      </trkpt>
      <trkpt lat="45.98157" lon="6.77548">
        <ele>2396</ele>
        <time>2017-03-30T09:20:40Z</time>
      </trkpt>
      <trkpt lat="45.98158" lon="6.77558">
        <ele>2398</ele>
        <time>2017-03-30T09:20:50Z</time>
      </trkpt>
      <trkpt lat="45.98157" lon="6.77567">
        <ele>2404</ele>
        <time>2017-03-30T09:21:03Z</time>
      </trkpt>
      <trkpt lat="45.98156" lon="6.77576">
        <ele>2409</ele>
        <time>2017-03-30T09:21:23Z</time>
      </trkpt>
      <trkpt lat="45.98157" lon="6.77583">
        <ele>2409</ele>
        <time>2017-03-30T09:21:35Z</time>
      </trkpt>
      <trkpt lat="45.98158" lon="6.77592">
        <ele>2409</ele>
        <time>2017-03-30T09:21:56Z</time>
      </trkpt>
      <trkpt lat="45.98161" lon="6.77593">
        <ele>2409</ele>
        <time>2017-03-30T09:21:58Z</time>
      </trkpt>
      <trkpt lat="45.98159" lon="6.77597">
        <ele>2409</ele>
        <time>2017-03-30T09:22:02Z</time>
      </trkpt>
      <trkpt lat="45.98144" lon="6.77603">
        <ele>2418</ele>
        <time>2017-03-30T09:22:36Z</time>
      </trkpt>
      <trkpt lat="45.98138" lon="6.77612">
        <ele>2417</ele>
        <time>2017-03-30T09:22:47Z</time>
      </trkpt>
      <trkpt lat="45.98131" lon="6.77625">
        <ele>2418</ele>
        <time>2017-03-30T09:23:05Z</time>
      </trkpt>
      <trkpt lat="45.98132" lon="6.77636">
        <ele>2421</ele>
        <time>2017-03-30T09:23:23Z</time>
      </trkpt>
      <trkpt lat="45.98135" lon="6.77639">
        <ele>2423</ele>
        <time>2017-03-30T09:23:26Z</time>
      </trkpt>
      <trkpt lat="45.98137" lon="6.77647">
        <ele>2423</ele>
        <time>2017-03-30T09:23:34Z</time>
      </trkpt>
      <trkpt lat="45.98135" lon="6.77649">
        <ele>2423</ele>
        <time>2017-03-30T09:23:43Z</time>
      </trkpt>
      <trkpt lat="45.98131" lon="6.77652">
        <ele>2424</ele>
        <time>2017-03-30T09:23:51Z</time>
      </trkpt>
      <trkpt lat="45.98121" lon="6.77654">
        <ele>2430</ele>
        <time>2017-03-30T09:24:12Z</time>
      </trkpt>
      <trkpt lat="45.98123" lon="6.7766">
        <ele>2433</ele>
        <time>2017-03-30T09:24:29Z</time>
      </trkpt>
      <trkpt lat="45.98123" lon="6.77666">
        <ele>2440</ele>
        <time>2017-03-30T09:24:42Z</time>
      </trkpt>
      <trkpt lat="45.98122" lon="6.77672">
        <ele>2442</ele>
        <time>2017-03-30T09:24:50Z</time>
      </trkpt>
      <trkpt lat="45.98122" lon="6.77676">
        <ele>2414</ele>
        <time>2017-03-30T09:25:00Z</time>
      </trkpt>
      <trkpt lat="45.98124" lon="6.77686">
        <ele>2419</ele>
        <time>2017-03-30T09:25:08Z</time>
      </trkpt>
      <trkpt lat="45.98124" lon="6.77688">
        <ele>2441</ele>
        <time>2017-03-30T09:25:54Z</time>
      </trkpt>
      <trkpt lat="45.98136" lon="6.77692">
        <ele>2446</ele>
        <time>2017-03-30T09:26:22Z</time>
      </trkpt>
      <trkpt lat="45.98146" lon="6.77696">
        <ele>2448</ele>
        <time>2017-03-30T09:26:34Z</time>
      </trkpt>
      <trkpt lat="45.98155" lon="6.77701">
        <ele>2452</ele>
        <time>2017-03-30T09:26:46Z</time>
      </trkpt>
      <trkpt lat="45.98159" lon="6.777">
        <ele>2453</ele>
        <time>2017-03-30T09:26:54Z</time>
      </trkpt>
      <trkpt lat="45.98167" lon="6.77706">
        <ele>2454</ele>
        <time>2017-03-30T09:27:17Z</time>
      </trkpt>
      <trkpt lat="45.98168" lon="6.77712">
        <ele>2454</ele>
        <time>2017-03-30T09:27:23Z</time>
      </trkpt>
      <trkpt lat="45.98166" lon="6.77717">
        <ele>2457</ele>
        <time>2017-03-30T09:27:30Z</time>
      </trkpt>
      <trkpt lat="45.98163" lon="6.77721">
        <ele>2459</ele>
        <time>2017-03-30T09:27:35Z</time>
      </trkpt>
      <trkpt lat="45.98153" lon="6.77734">
        <ele>2457</ele>
        <time>2017-03-30T09:27:59Z</time>
      </trkpt>
      <trkpt lat="45.98148" lon="6.77744">
        <ele>2461</ele>
        <time>2017-03-30T09:28:15Z</time>
      </trkpt>
      <trkpt lat="45.98139" lon="6.77757">
        <ele>2464</ele>
        <time>2017-03-30T09:28:38Z</time>
      </trkpt>
      <trkpt lat="45.98141" lon="6.77765">
        <ele>2466</ele>
        <time>2017-03-30T09:28:58Z</time>
      </trkpt>
      <trkpt lat="45.98141" lon="6.77774">
        <ele>2469</ele>
        <time>2017-03-30T09:29:16Z</time>
      </trkpt>
      <trkpt lat="45.9814" lon="6.77779">
        <ele>2402</ele>
        <time>2017-03-30T09:29:23Z</time>
      </trkpt>
      <trkpt lat="45.98142" lon="6.77788">
        <ele>2457</ele>
        <time>2017-03-30T09:29:38Z</time>
      </trkpt>
      <trkpt lat="45.98143" lon="6.77794">
        <ele>2461</ele>
        <time>2017-03-30T09:29:45Z</time>
      </trkpt>
      <trkpt lat="45.98145" lon="6.77799">
        <ele>2467</ele>
        <time>2017-03-30T09:29:50Z</time>
      </trkpt>
      <trkpt lat="45.98148" lon="6.77804">
        <ele>2468</ele>
        <time>2017-03-30T09:29:56Z</time>
      </trkpt>
      <trkpt lat="45.98152" lon="6.77819">
        <ele>2475</ele>
        <time>2017-03-30T09:30:14Z</time>
      </trkpt>
      <trkpt lat="45.98154" lon="6.77826">
        <ele>2473</ele>
        <time>2017-03-30T09:30:23Z</time>
      </trkpt>
      <trkpt lat="45.98157" lon="6.77831">
        <ele>2475</ele>
        <time>2017-03-30T09:30:38Z</time>
      </trkpt>
      <trkpt lat="45.98157" lon="6.77836">
        <ele>2477</ele>
        <time>2017-03-30T09:30:42Z</time>
      </trkpt>
      <trkpt lat="45.98156" lon="6.7784">
        <ele>2477</ele>
        <time>2017-03-30T09:30:51Z</time>
      </trkpt>
      <trkpt lat="45.98153" lon="6.77842">
        <ele>2478</ele>
        <time>2017-03-30T09:30:55Z</time>
      </trkpt>
      <trkpt lat="45.98151" lon="6.77846">
        <ele>2480</ele>
        <time>2017-03-30T09:31:03Z</time>
      </trkpt>
      <trkpt lat="45.98147" lon="6.77847">
        <ele>2482</ele>
        <time>2017-03-30T09:31:12Z</time>
      </trkpt>
      <trkpt lat="45.98144" lon="6.77846">
        <ele>2487</ele>
        <time>2017-03-30T09:31:18Z</time>
      </trkpt>
      <trkpt lat="45.9814" lon="6.77844">
        <ele>2490</ele>
        <time>2017-03-30T09:31:25Z</time>
      </trkpt>
      <trkpt lat="45.98136" lon="6.77844">
        <ele>2494</ele>
        <time>2017-03-30T09:31:31Z</time>
      </trkpt>
      <trkpt lat="45.98125" lon="6.77851">
        <ele>2496</ele>
        <time>2017-03-30T09:31:54Z</time>
      </trkpt>
      <trkpt lat="45.98123" lon="6.7785">
        <ele>2497</ele>
        <time>2017-03-30T09:31:58Z</time>
      </trkpt>
      <trkpt lat="45.98116" lon="6.77853">
        <ele>2502</ele>
        <time>2017-03-30T09:32:17Z</time>
      </trkpt>
      <trkpt lat="45.98114" lon="6.77854">
        <ele>2502</ele>
        <time>2017-03-30T09:32:20Z</time>
      </trkpt>
      <trkpt lat="45.98103" lon="6.77862">
        <ele>2500</ele>
        <time>2017-03-30T09:32:42Z</time>
      </trkpt>
      <trkpt lat="45.98104" lon="6.77867">
        <ele>2501</ele>
        <time>2017-03-30T09:33:10Z</time>
      </trkpt>
      <trkpt lat="45.98107" lon="6.7787">
        <ele>2501</ele>
        <time>2017-03-30T09:33:30Z</time>
      </trkpt>
      <trkpt lat="45.98109" lon="6.77874">
        <ele>2504</ele>
        <time>2017-03-30T09:33:40Z</time>
      </trkpt>
      <trkpt lat="45.98112" lon="6.77877">
        <ele>2508</ele>
        <time>2017-03-30T09:34:28Z</time>
      </trkpt>
      <trkpt lat="45.98115" lon="6.77881">
        <ele>2509</ele>
        <time>2017-03-30T09:34:34Z</time>
      </trkpt>
      <trkpt lat="45.98123" lon="6.77894">
        <ele>2514</ele>
        <time>2017-03-30T09:34:54Z</time>
      </trkpt>
      <trkpt lat="45.98128" lon="6.77912">
        <ele>2509</ele>
        <time>2017-03-30T09:35:22Z</time>
      </trkpt>
      <trkpt lat="45.98137" lon="6.77926">
        <ele>2513</ele>
        <time>2017-03-30T09:35:44Z</time>
      </trkpt>
      <trkpt lat="45.98137" lon="6.7793">
        <ele>2514</ele>
        <time>2017-03-30T09:35:51Z</time>
      </trkpt>
      <trkpt lat="45.9815" lon="6.77945">
        <ele>2517</ele>
        <time>2017-03-30T09:36:15Z</time>
      </trkpt>
      <trkpt lat="45.98155" lon="6.77957">
        <ele>2518</ele>
        <time>2017-03-30T09:36:31Z</time>
      </trkpt>
      <trkpt lat="45.98152" lon="6.77959">
        <ele>2520</ele>
        <time>2017-03-30T09:36:45Z</time>
      </trkpt>
      <trkpt lat="45.98141" lon="6.77962">
        <ele>2526</ele>
        <time>2017-03-30T09:37:08Z</time>
      </trkpt>
      <trkpt lat="45.98132" lon="6.77964">
        <ele>2526</ele>
        <time>2017-03-30T09:37:24Z</time>
      </trkpt>
      <trkpt lat="45.9813" lon="6.77967">
        <ele>2528</ele>
        <time>2017-03-30T09:37:31Z</time>
      </trkpt>
      <trkpt lat="45.98134" lon="6.77977">
        <ele>2530</ele>
        <time>2017-03-30T09:37:49Z</time>
      </trkpt>
      <trkpt lat="45.98134" lon="6.77982">
        <ele>2529</ele>
        <time>2017-03-30T09:37:55Z</time>
      </trkpt>
      <trkpt lat="45.98136" lon="6.77985">
        <ele>2530</ele>
        <time>2017-03-30T09:38:04Z</time>
      </trkpt>
      <trkpt lat="45.98138" lon="6.77988">
        <ele>2531</ele>
        <time>2017-03-30T09:38:09Z</time>
      </trkpt>
      <trkpt lat="45.98143" lon="6.77992">
        <ele>2535</ele>
        <time>2017-03-30T09:38:20Z</time>
      </trkpt>
      <trkpt lat="45.98143" lon="6.77996">
        <ele>2538</ele>
        <time>2017-03-30T09:38:48Z</time>
      </trkpt>
      <trkpt lat="45.98138" lon="6.77995">
        <ele>2539</ele>
        <time>2017-03-30T09:38:57Z</time>
      </trkpt>
      <trkpt lat="45.9812" lon="6.77993">
        <ele>2542</ele>
        <time>2017-03-30T09:39:13Z</time>
      </trkpt>
      <trkpt lat="45.98112" lon="6.77989">
        <ele>2545</ele>
        <time>2017-03-30T09:39:32Z</time>
      </trkpt>
      <trkpt lat="45.98101" lon="6.77995">
        <ele>2544</ele>
        <time>2017-03-30T09:39:55Z</time>
      </trkpt>
      <trkpt lat="45.981" lon="6.78">
        <ele>2546</ele>
        <time>2017-03-30T09:41:19Z</time>
      </trkpt>
      <trkpt lat="45.981" lon="6.78004">
        <ele>2547</ele>
        <time>2017-03-30T09:41:27Z</time>
      </trkpt>
      <trkpt lat="45.98102" lon="6.78013">
        <ele>2546</ele>
        <time>2017-03-30T09:42:54Z</time>
      </trkpt>
      <trkpt lat="45.98099" lon="6.78015">
        <ele>2547</ele>
        <time>2017-03-30T09:43:04Z</time>
      </trkpt>
      <trkpt lat="45.98097" lon="6.78017">
        <ele>2549</ele>
        <time>2017-03-30T09:43:08Z</time>
      </trkpt>
      <trkpt lat="45.98094" lon="6.78017">
        <ele>2549</ele>
        <time>2017-03-30T09:43:13Z</time>
      </trkpt>
      <trkpt lat="45.98092" lon="6.78014">
        <ele>2553</ele>
        <time>2017-03-30T09:43:18Z</time>
      </trkpt>
      <trkpt lat="45.98089" lon="6.78013">
        <ele>2553</ele>
        <time>2017-03-30T09:43:23Z</time>
      </trkpt>
      <trkpt lat="45.98074" lon="6.78013">
        <ele>2559</ele>
        <time>2017-03-30T09:43:55Z</time>
      </trkpt>
      <trkpt lat="45.98068" lon="6.78013">
        <ele>2560</ele>
        <time>2017-03-30T09:44:05Z</time>
      </trkpt>
      <trkpt lat="45.98066" lon="6.78015">
        <ele>2561</ele>
        <time>2017-03-30T09:44:11Z</time>
      </trkpt>
      <trkpt lat="45.98063" lon="6.78016">
        <ele>2562</ele>
        <time>2017-03-30T09:44:16Z</time>
      </trkpt>
      <trkpt lat="45.98061" lon="6.78019">
        <ele>2561</ele>
        <time>2017-03-30T09:44:25Z</time>
      </trkpt>
      <trkpt lat="45.98058" lon="6.78021">
        <ele>2560</ele>
        <time>2017-03-30T09:44:30Z</time>
      </trkpt>
      <trkpt lat="45.9806" lon="6.78024">
        <ele>2561</ele>
        <time>2017-03-30T09:44:38Z</time>
      </trkpt>
      <trkpt lat="45.98059" lon="6.78033">
        <ele>2561</ele>
        <time>2017-03-30T09:44:53Z</time>
      </trkpt>
      <trkpt lat="45.98057" lon="6.78036">
        <ele>2561</ele>
        <time>2017-03-30T09:45:01Z</time>
      </trkpt>
      <trkpt lat="45.98056" lon="6.78041">
        <ele>2563</ele>
        <time>2017-03-30T09:45:12Z</time>
      </trkpt>
      <trkpt lat="45.98053" lon="6.78047">
        <ele>2566</ele>
        <time>2017-03-30T09:45:20Z</time>
      </trkpt>
      <trkpt lat="45.9805" lon="6.7805">
        <ele>2569</ele>
        <time>2017-03-30T09:45:27Z</time>
      </trkpt>
      <trkpt lat="45.9805" lon="6.78058">
        <ele>2568</ele>
        <time>2017-03-30T09:45:36Z</time>
      </trkpt>
      <trkpt lat="45.98051" lon="6.78067">
        <ele>2569</ele>
        <time>2017-03-30T09:45:48Z</time>
      </trkpt>
      <trkpt lat="45.9805" lon="6.78071">
        <ele>2570</ele>
        <time>2017-03-30T09:45:55Z</time>
      </trkpt>
      <trkpt lat="45.98054" lon="6.78078">
        <ele>2570</ele>
        <time>2017-03-30T09:46:10Z</time>
      </trkpt>
      <trkpt lat="45.9806" lon="6.78085">
        <ele>2570</ele>
        <time>2017-03-30T09:46:24Z</time>
      </trkpt>
      <trkpt lat="45.98068" lon="6.78093">
        <ele>2584</ele>
        <time>2017-03-30T09:46:45Z</time>
      </trkpt>
      <trkpt lat="45.98068" lon="6.78098">
        <ele>2587</ele>
        <time>2017-03-30T09:46:59Z</time>
      </trkpt>
      <trkpt lat="45.98073" lon="6.78106">
        <ele>2589</ele>
        <time>2017-03-30T09:47:15Z</time>
      </trkpt>
      <trkpt lat="45.98076" lon="6.78113">
        <ele>2590</ele>
        <time>2017-03-30T09:47:23Z</time>
      </trkpt>
      <trkpt lat="45.98075" lon="6.78118">
        <ele>2589</ele>
        <time>2017-03-30T09:47:28Z</time>
      </trkpt>
      <trkpt lat="45.98078" lon="6.78126">
        <ele>2590</ele>
        <time>2017-03-30T09:47:40Z</time>
      </trkpt>
      <trkpt lat="45.98088" lon="6.78132">
        <ele>2595</ele>
        <time>2017-03-30T09:48:00Z</time>
      </trkpt>
      <trkpt lat="45.98094" lon="6.78143">
        <ele>2595</ele>
        <time>2017-03-30T09:48:22Z</time>
      </trkpt>
      <trkpt lat="45.981" lon="6.78152">
        <ele>2599</ele>
        <time>2017-03-30T09:48:45Z</time>
      </trkpt>
      <trkpt lat="45.98102" lon="6.78155">
        <ele>2599</ele>
        <time>2017-03-30T09:48:49Z</time>
      </trkpt>
      <trkpt lat="45.981" lon="6.78158">
        <ele>2604</ele>
        <time>2017-03-30T09:49:04Z</time>
      </trkpt>
      <trkpt lat="45.98098" lon="6.7816">
        <ele>2607</ele>
        <time>2017-03-30T09:49:13Z</time>
      </trkpt>
      <trkpt lat="45.98092" lon="6.78163">
        <ele>2608</ele>
        <time>2017-03-30T09:49:27Z</time>
      </trkpt>
      <trkpt lat="45.98089" lon="6.78163">
        <ele>2608</ele>
        <time>2017-03-30T09:49:32Z</time>
      </trkpt>
      <trkpt lat="45.98086" lon="6.78165">
        <ele>2611</ele>
        <time>2017-03-30T09:49:38Z</time>
      </trkpt>
      <trkpt lat="45.98078" lon="6.78168">
        <ele>2613</ele>
        <time>2017-03-30T09:49:56Z</time>
      </trkpt>
      <trkpt lat="45.98078" lon="6.78172">
        <ele>2612</ele>
        <time>2017-03-30T09:50:06Z</time>
      </trkpt>
      <trkpt lat="45.9808" lon="6.7818">
        <ele>2612</ele>
        <time>2017-03-30T09:50:17Z</time>
      </trkpt>
      <trkpt lat="45.98083" lon="6.78187">
        <ele>2614</ele>
        <time>2017-03-30T09:50:29Z</time>
      </trkpt>
      <trkpt lat="45.98086" lon="6.78199">
        <ele>2616</ele>
        <time>2017-03-30T09:50:47Z</time>
      </trkpt>
      <trkpt lat="45.98089" lon="6.78207">
        <ele>2617</ele>
        <time>2017-03-30T09:50:59Z</time>
      </trkpt>
      <trkpt lat="45.98086" lon="6.78208">
        <ele>2619</ele>
        <time>2017-03-30T09:51:07Z</time>
      </trkpt>
      <trkpt lat="45.98081" lon="6.78207">
        <ele>2626</ele>
        <time>2017-03-30T09:51:16Z</time>
      </trkpt>
      <trkpt lat="45.98075" lon="6.7821">
        <ele>2631</ele>
        <time>2017-03-30T09:51:33Z</time>
      </trkpt>
      <trkpt lat="45.98072" lon="6.78211">
        <ele>2632</ele>
        <time>2017-03-30T09:51:42Z</time>
      </trkpt>
      <trkpt lat="45.98071" lon="6.78215">
        <ele>2631</ele>
        <time>2017-03-30T09:51:51Z</time>
      </trkpt>
      <trkpt lat="45.98071" lon="6.7822">
        <ele>2631</ele>
        <time>2017-03-30T09:51:59Z</time>
      </trkpt>
      <trkpt lat="45.98071" lon="6.78224">
        <ele>2631</ele>
        <time>2017-03-30T09:52:05Z</time>
      </trkpt>
      <trkpt lat="45.98077" lon="6.78234">
        <ele>2633</ele>
        <time>2017-03-30T09:52:24Z</time>
      </trkpt>
      <trkpt lat="45.98078" lon="6.78244">
        <ele>2632</ele>
        <time>2017-03-30T09:52:39Z</time>
      </trkpt>
      <trkpt lat="45.98083" lon="6.78251">
        <ele>2633</ele>
        <time>2017-03-30T09:52:46Z</time>
      </trkpt>
      <trkpt lat="45.98085" lon="6.78255">
        <ele>2632</ele>
        <time>2017-03-30T09:52:52Z</time>
      </trkpt>
      <trkpt lat="45.98091" lon="6.78258">
        <ele>2637</ele>
        <time>2017-03-30T09:53:03Z</time>
      </trkpt>
      <trkpt lat="45.98089" lon="6.7826">
        <ele>2640</ele>
        <time>2017-03-30T09:53:15Z</time>
      </trkpt>
      <trkpt lat="45.98081" lon="6.78267">
        <ele>2639</ele>
        <time>2017-03-30T09:53:34Z</time>
      </trkpt>
      <trkpt lat="45.98084" lon="6.7827">
        <ele>2640</ele>
        <time>2017-03-30T09:53:46Z</time>
      </trkpt>
      <trkpt lat="45.98089" lon="6.78276">
        <ele>2644</ele>
        <time>2017-03-30T09:54:01Z</time>
      </trkpt>
      <trkpt lat="45.98095" lon="6.78279">
        <ele>2646</ele>
        <time>2017-03-30T09:54:18Z</time>
      </trkpt>
      <trkpt lat="45.98092" lon="6.78282">
        <ele>2651</ele>
        <time>2017-03-30T09:54:27Z</time>
      </trkpt>
      <trkpt lat="45.98079" lon="6.78291">
        <ele>2652</ele>
        <time>2017-03-30T09:54:57Z</time>
      </trkpt>
      <trkpt lat="45.9808" lon="6.78295">
        <ele>2653</ele>
        <time>2017-03-30T09:55:08Z</time>
      </trkpt>
      <trkpt lat="45.98086" lon="6.78299">
        <ele>2653</ele>
        <time>2017-03-30T09:55:19Z</time>
      </trkpt>
      <trkpt lat="45.98092" lon="6.78303">
        <ele>2655</ele>
        <time>2017-03-30T09:55:33Z</time>
      </trkpt>
      <trkpt lat="45.98095" lon="6.78303">
        <ele>2658</ele>
        <time>2017-03-30T09:55:39Z</time>
      </trkpt>
      <trkpt lat="45.98098" lon="6.78305">
        <ele>2659</ele>
        <time>2017-03-30T09:55:51Z</time>
      </trkpt>
      <trkpt lat="45.98096" lon="6.78308">
        <ele>2660</ele>
        <time>2017-03-30T09:55:59Z</time>
      </trkpt>
      <trkpt lat="45.98089" lon="6.78317">
        <ele>2657</ele>
        <time>2017-03-30T09:56:19Z</time>
      </trkpt>
      <trkpt lat="45.98076" lon="6.78333">
        <ele>2657</ele>
        <time>2017-03-30T09:56:53Z</time>
      </trkpt>
      <trkpt lat="45.98078" lon="6.78335">
        <ele>2657</ele>
        <time>2017-03-30T09:56:57Z</time>
      </trkpt>
      <trkpt lat="45.9809" lon="6.78341">
        <ele>2665</ele>
        <time>2017-03-30T09:57:21Z</time>
      </trkpt>
      <trkpt lat="45.98088" lon="6.78344">
        <ele>2667</ele>
        <time>2017-03-30T09:57:33Z</time>
      </trkpt>
      <trkpt lat="45.98075" lon="6.78355">
        <ele>2671</ele>
        <time>2017-03-30T09:58:01Z</time>
      </trkpt>
      <trkpt lat="45.98072" lon="6.78357">
        <ele>2672</ele>
        <time>2017-03-30T09:58:05Z</time>
      </trkpt>
      <trkpt lat="45.98078" lon="6.78365">
        <ele>2677</ele>
        <time>2017-03-30T09:58:21Z</time>
      </trkpt>
      <trkpt lat="45.98081" lon="6.78366">
        <ele>2677</ele>
        <time>2017-03-30T09:58:26Z</time>
      </trkpt>
      <trkpt lat="45.98088" lon="6.78368">
        <ele>2681</ele>
        <time>2017-03-30T09:58:39Z</time>
      </trkpt>
      <trkpt lat="45.98086" lon="6.78371">
        <ele>2682</ele>
        <time>2017-03-30T09:58:51Z</time>
      </trkpt>
      <trkpt lat="45.98078" lon="6.78377">
        <ele>2683</ele>
        <time>2017-03-30T09:59:06Z</time>
      </trkpt>
      <trkpt lat="45.98077" lon="6.7838">
        <ele>2682</ele>
        <time>2017-03-30T09:59:09Z</time>
      </trkpt>
      <trkpt lat="45.98071" lon="6.78383">
        <ele>2680</ele>
        <time>2017-03-30T09:59:18Z</time>
      </trkpt>
      <trkpt lat="45.98069" lon="6.78384">
        <ele>2681</ele>
        <time>2017-03-30T09:59:22Z</time>
      </trkpt>
      <trkpt lat="45.98071" lon="6.78388">
        <ele>2682</ele>
        <time>2017-03-30T09:59:30Z</time>
      </trkpt>
      <trkpt lat="45.98074" lon="6.7839">
        <ele>2684</ele>
        <time>2017-03-30T09:59:37Z</time>
      </trkpt>
      <trkpt lat="45.98082" lon="6.78397">
        <ele>2687</ele>
        <time>2017-03-30T09:59:54Z</time>
      </trkpt>
      <trkpt lat="45.98083" lon="6.78399">
        <ele>2690</ele>
        <time>2017-03-30T10:00:05Z</time>
      </trkpt>
      <trkpt lat="45.9807" lon="6.78411">
        <ele>2691</ele>
        <time>2017-03-30T10:00:33Z</time>
      </trkpt>
      <trkpt lat="45.98071" lon="6.78415">
        <ele>2692</ele>
        <time>2017-03-30T10:00:40Z</time>
      </trkpt>
      <trkpt lat="45.98079" lon="6.78425">
        <ele>2692</ele>
        <time>2017-03-30T10:00:59Z</time>
      </trkpt>
      <trkpt lat="45.98082" lon="6.78427">
        <ele>2695</ele>
        <time>2017-03-30T10:01:07Z</time>
      </trkpt>
      <trkpt lat="45.9809" lon="6.78431">
        <ele>2706</ele>
        <time>2017-03-30T10:01:40Z</time>
      </trkpt>
      <trkpt lat="45.98093" lon="6.78431">
        <ele>2706</ele>
        <time>2017-03-30T10:01:50Z</time>
      </trkpt>
      <trkpt lat="45.98109" lon="6.78432">
        <ele>2717</ele>
        <time>2017-03-30T10:02:22Z</time>
      </trkpt>
      <trkpt lat="45.98112" lon="6.78429">
        <ele>2719</ele>
        <time>2017-03-30T10:02:30Z</time>
      </trkpt>
      <trkpt lat="45.98126" lon="6.78429">
        <ele>2728</ele>
        <time>2017-03-30T10:03:02Z</time>
      </trkpt>
      <trkpt lat="45.98129" lon="6.78427">
        <ele>2728</ele>
        <time>2017-03-30T10:03:09Z</time>
      </trkpt>
      <trkpt lat="45.98129" lon="6.78424">
        <ele>2727</ele>
        <time>2017-03-30T10:04:14Z</time>
      </trkpt>
      <trkpt lat="45.98131" lon="6.78422">
        <ele>2719</ele>
        <time>2017-03-30T10:06:20Z</time>
      </trkpt>
      <trkpt lat="45.98142" lon="6.78412">
        <ele>2730</ele>
        <time>2017-03-30T10:07:04Z</time>
      </trkpt>
      <trkpt lat="45.98145" lon="6.78411">
        <ele>2731</ele>
        <time>2017-03-30T10:07:10Z</time>
      </trkpt>
      <trkpt lat="45.98148" lon="6.78409">
        <ele>2733</ele>
        <time>2017-03-30T10:07:15Z</time>
      </trkpt>
      <trkpt lat="45.98149" lon="6.78406">
        <ele>2735</ele>
        <time>2017-03-30T10:07:27Z</time>
      </trkpt>
      <trkpt lat="45.98153" lon="6.78404">
        <ele>2736</ele>
        <time>2017-03-30T10:08:02Z</time>
      </trkpt>
      <trkpt lat="45.98159" lon="6.78402">
        <ele>2741</ele>
        <time>2017-03-30T10:08:37Z</time>
      </trkpt>
      <trkpt lat="45.98177" lon="6.78406">
        <ele>2747</ele>
        <time>2017-03-30T10:09:42Z</time>
      </trkpt>
      <trkpt lat="45.98175" lon="6.78403">
        <ele>2746</ele>
        <time>2017-03-30T10:09:47Z</time>
      </trkpt>
      <trkpt lat="45.98177" lon="6.78395">
        <ele>2743</ele>
        <time>2017-03-30T10:09:58Z</time>
      </trkpt>
      <trkpt lat="45.98183" lon="6.78384">
        <ele>2740</ele>
        <time>2017-03-30T10:10:13Z</time>
      </trkpt>
      <trkpt lat="45.98186" lon="6.78384">
        <ele>2740</ele>
        <time>2017-03-30T10:10:17Z</time>
      </trkpt>
      <trkpt lat="45.98186" lon="6.78379">
        <ele>2741</ele>
        <time>2017-03-30T10:10:25Z</time>
      </trkpt>
      <trkpt lat="45.98184" lon="6.78382">
        <ele>2725</ele>
        <time>2017-03-30T10:10:47Z</time>
      </trkpt>
      <trkpt lat="45.98183" lon="6.78378">
        <ele>2731</ele>
        <time>2017-03-30T10:10:52Z</time>
      </trkpt>
      <trkpt lat="45.98181" lon="6.78374">
        <ele>2734</ele>
        <time>2017-03-30T10:10:59Z</time>
      </trkpt>
      <trkpt lat="45.9818" lon="6.7837">
        <ele>2734</ele>
        <time>2017-03-30T10:11:04Z</time>
      </trkpt>
      <trkpt lat="45.98181" lon="6.78365">
        <ele>2734</ele>
        <time>2017-03-30T10:11:07Z</time>
      </trkpt>
      <trkpt lat="45.98181" lon="6.78361">
        <ele>2731</ele>
        <time>2017-03-30T10:11:12Z</time>
      </trkpt>
      <trkpt lat="45.98184" lon="6.78361">
        <ele>2730</ele>
        <time>2017-03-30T10:11:42Z</time>
      </trkpt>
      <trkpt lat="45.98182" lon="6.78365">
        <ele>2730</ele>
        <time>2017-03-30T10:11:52Z</time>
      </trkpt>
      <trkpt lat="45.98184" lon="6.78374">
        <ele>2732</ele>
        <time>2017-03-30T10:12:11Z</time>
      </trkpt>
      <trkpt lat="45.98186" lon="6.78376">
        <ele>2734</ele>
        <time>2017-03-30T10:12:21Z</time>
      </trkpt>
      <trkpt lat="45.98186" lon="6.7838">
        <ele>2738</ele>
        <time>2017-03-30T10:12:26Z</time>
      </trkpt>
      <trkpt lat="45.98178" lon="6.78397">
        <ele>2740</ele>
        <time>2017-03-30T10:12:48Z</time>
      </trkpt>
      <trkpt lat="45.98173" lon="6.78403">
        <ele>2740</ele>
        <time>2017-03-30T10:12:58Z</time>
      </trkpt>
      <trkpt lat="45.98175" lon="6.78405">
        <ele>2745</ele>
        <time>2017-03-30T10:19:18Z</time>
      </trkpt>
      <trkpt lat="45.98176" lon="6.78405">
        <ele>2744</ele>
        <time>2017-03-30T10:21:41Z</time>
      </trkpt>
      <trkpt lat="45.98176" lon="6.78401">
        <ele>2744</ele>
        <time>2017-03-30T10:30:39Z</time>
      </trkpt>
      <trkpt lat="45.98178" lon="6.78398">
        <ele>2744</ele>
        <time>2017-03-30T10:30:40Z</time>
      </trkpt>
      <trkpt lat="45.98186" lon="6.78389">
        <ele>2743</ele>
        <time>2017-03-30T10:30:43Z</time>
      </trkpt>
      <trkpt lat="45.98191" lon="6.78383">
        <ele>2742</ele>
        <time>2017-03-30T10:30:48Z</time>
      </trkpt>
      <trkpt lat="45.98198" lon="6.78381">
        <ele>2742</ele>
        <time>2017-03-30T10:30:51Z</time>
      </trkpt>
      <trkpt lat="45.98209" lon="6.78388">
        <ele>2737</ele>
        <time>2017-03-30T10:30:57Z</time>
      </trkpt>
      <trkpt lat="45.98211" lon="6.78382">
        <ele>2737</ele>
        <time>2017-03-30T10:30:59Z</time>
      </trkpt>
      <trkpt lat="45.98221" lon="6.78384">
        <ele>2736</ele>
        <time>2017-03-30T10:31:01Z</time>
      </trkpt>
      <trkpt lat="45.98226" lon="6.78384">
        <ele>2735</ele>
        <time>2017-03-30T10:31:02Z</time>
      </trkpt>
      <trkpt lat="45.98229" lon="6.78381">
        <ele>2733</ele>
        <time>2017-03-30T10:31:03Z</time>
      </trkpt>
      <trkpt lat="45.98227" lon="6.78373">
        <ele>2730</ele>
        <time>2017-03-30T10:31:04Z</time>
      </trkpt>
      <trkpt lat="45.98228" lon="6.78367">
        <ele>2729</ele>
        <time>2017-03-30T10:31:05Z</time>
      </trkpt>
      <trkpt lat="45.98234" lon="6.78368">
        <ele>2727</ele>
        <time>2017-03-30T10:31:06Z</time>
      </trkpt>
      <trkpt lat="45.98238" lon="6.78368">
        <ele>2726</ele>
        <time>2017-03-30T10:31:07Z</time>
      </trkpt>
      <trkpt lat="45.98241" lon="6.78364">
        <ele>2724</ele>
        <time>2017-03-30T10:31:08Z</time>
      </trkpt>
      <trkpt lat="45.98242" lon="6.78359">
        <ele>2723</ele>
        <time>2017-03-30T10:31:09Z</time>
      </trkpt>
      <trkpt lat="45.9824" lon="6.78351">
        <ele>2721</ele>
        <time>2017-03-30T10:31:11Z</time>
      </trkpt>
      <trkpt lat="45.98231" lon="6.78344">
        <ele>2720</ele>
        <time>2017-03-30T10:31:13Z</time>
      </trkpt>
      <trkpt lat="45.98217" lon="6.78333">
        <ele>2717</ele>
        <time>2017-03-30T10:31:17Z</time>
      </trkpt>
      <trkpt lat="45.98212" lon="6.78322">
        <ele>2716</ele>
        <time>2017-03-30T10:31:19Z</time>
      </trkpt>
      <trkpt lat="45.9821" lon="6.78318">
        <ele>2715</ele>
        <time>2017-03-30T10:31:20Z</time>
      </trkpt>
      <trkpt lat="45.98218" lon="6.78307">
        <ele>2712</ele>
        <time>2017-03-30T10:31:22Z</time>
      </trkpt>
      <trkpt lat="45.98217" lon="6.78301">
        <ele>2710</ele>
        <time>2017-03-30T10:31:23Z</time>
      </trkpt>
      <trkpt lat="45.98213" lon="6.78297">
        <ele>2708</ele>
        <time>2017-03-30T10:31:24Z</time>
      </trkpt>
      <trkpt lat="45.98209" lon="6.78293">
        <ele>2707</ele>
        <time>2017-03-30T10:31:25Z</time>
      </trkpt>
      <trkpt lat="45.98205" lon="6.78285">
        <ele>2704</ele>
        <time>2017-03-30T10:31:27Z</time>
      </trkpt>
      <trkpt lat="45.98205" lon="6.78281">
        <ele>2702</ele>
        <time>2017-03-30T10:31:28Z</time>
      </trkpt>
      <trkpt lat="45.98209" lon="6.78277">
        <ele>2701</ele>
        <time>2017-03-30T10:31:29Z</time>
      </trkpt>
      <trkpt lat="45.98206" lon="6.78273">
        <ele>2699</ele>
        <time>2017-03-30T10:31:30Z</time>
      </trkpt>
      <trkpt lat="45.98203" lon="6.78271">
        <ele>2698</ele>
        <time>2017-03-30T10:31:31Z</time>
      </trkpt>
      <trkpt lat="45.98199" lon="6.78271">
        <ele>2697</ele>
        <time>2017-03-30T10:31:34Z</time>
      </trkpt>
      <trkpt lat="45.98194" lon="6.78272">
        <ele>2696</ele>
        <time>2017-03-30T10:31:36Z</time>
      </trkpt>
      <trkpt lat="45.98173" lon="6.78279">
        <ele>2691</ele>
        <time>2017-03-30T10:31:42Z</time>
      </trkpt>
      <trkpt lat="45.9817" lon="6.78276">
        <ele>2691</ele>
        <time>2017-03-30T10:31:46Z</time>
      </trkpt>
      <trkpt lat="45.98168" lon="6.78271">
        <ele>2690</ele>
        <time>2017-03-30T10:31:49Z</time>
      </trkpt>
      <trkpt lat="45.98176" lon="6.78262">
        <ele>2685</ele>
        <time>2017-03-30T10:32:03Z</time>
      </trkpt>
      <trkpt lat="45.98183" lon="6.78249">
        <ele>2681</ele>
        <time>2017-03-30T10:32:08Z</time>
      </trkpt>
      <trkpt lat="45.98182" lon="6.78242">
        <ele>2679</ele>
        <time>2017-03-30T10:32:12Z</time>
      </trkpt>
      <trkpt lat="45.98179" lon="6.7824">
        <ele>2678</ele>
        <time>2017-03-30T10:32:13Z</time>
      </trkpt>
      <trkpt lat="45.98175" lon="6.78237">
        <ele>2675</ele>
        <time>2017-03-30T10:32:48Z</time>
      </trkpt>
      <trkpt lat="45.98179" lon="6.78229">
        <ele>2672</ele>
        <time>2017-03-30T10:32:50Z</time>
      </trkpt>
      <trkpt lat="45.98181" lon="6.78225">
        <ele>2670</ele>
        <time>2017-03-30T10:32:52Z</time>
      </trkpt>
      <trkpt lat="45.98178" lon="6.78222">
        <ele>2669</ele>
        <time>2017-03-30T10:32:53Z</time>
      </trkpt>
      <trkpt lat="45.98171" lon="6.78222">
        <ele>2664</ele>
        <time>2017-03-30T10:32:55Z</time>
      </trkpt>
      <trkpt lat="45.98168" lon="6.78222">
        <ele>2662</ele>
        <time>2017-03-30T10:32:56Z</time>
      </trkpt>
      <trkpt lat="45.98164" lon="6.78217">
        <ele>2661</ele>
        <time>2017-03-30T10:32:58Z</time>
      </trkpt>
      <trkpt lat="45.98168" lon="6.78214">
        <ele>2659</ele>
        <time>2017-03-30T10:32:59Z</time>
      </trkpt>
      <trkpt lat="45.98168" lon="6.78209">
        <ele>2657</ele>
        <time>2017-03-30T10:33:00Z</time>
      </trkpt>
      <trkpt lat="45.98163" lon="6.78206">
        <ele>2654</ele>
        <time>2017-03-30T10:33:02Z</time>
      </trkpt>
      <trkpt lat="45.9816" lon="6.78207">
        <ele>2652</ele>
        <time>2017-03-30T10:33:03Z</time>
      </trkpt>
      <trkpt lat="45.98158" lon="6.78203">
        <ele>2651</ele>
        <time>2017-03-30T10:33:04Z</time>
      </trkpt>
      <trkpt lat="45.98155" lon="6.78198">
        <ele>2648</ele>
        <time>2017-03-30T10:33:06Z</time>
      </trkpt>
      <trkpt lat="45.98159" lon="6.78193">
        <ele>2648</ele>
        <time>2017-03-30T10:33:07Z</time>
      </trkpt>
      <trkpt lat="45.98157" lon="6.7819">
        <ele>2644</ele>
        <time>2017-03-30T10:33:08Z</time>
      </trkpt>
      <trkpt lat="45.98157" lon="6.78186">
        <ele>2642</ele>
        <time>2017-03-30T10:33:14Z</time>
      </trkpt>
      <trkpt lat="45.98158" lon="6.78183">
        <ele>2639</ele>
        <time>2017-03-30T10:34:22Z</time>
      </trkpt>
      <trkpt lat="45.98162" lon="6.78179">
        <ele>2637</ele>
        <time>2017-03-30T10:35:43Z</time>
      </trkpt>
      <trkpt lat="45.98165" lon="6.78176">
        <ele>2636</ele>
        <time>2017-03-30T10:35:45Z</time>
      </trkpt>
      <trkpt lat="45.98162" lon="6.78169">
        <ele>2634</ele>
        <time>2017-03-30T10:35:47Z</time>
      </trkpt>
      <trkpt lat="45.98158" lon="6.78169">
        <ele>2632</ele>
        <time>2017-03-30T10:35:48Z</time>
      </trkpt>
      <trkpt lat="45.98155" lon="6.7817">
        <ele>2630</ele>
        <time>2017-03-30T10:35:49Z</time>
      </trkpt>
      <trkpt lat="45.98152" lon="6.78168">
        <ele>2629</ele>
        <time>2017-03-30T10:35:50Z</time>
      </trkpt>
      <trkpt lat="45.98149" lon="6.78163">
        <ele>2625</ele>
        <time>2017-03-30T10:35:51Z</time>
      </trkpt>
      <trkpt lat="45.98149" lon="6.78159">
        <ele>2624</ele>
        <time>2017-03-30T10:35:52Z</time>
      </trkpt>
      <trkpt lat="45.98154" lon="6.78153">
        <ele>2622</ele>
        <time>2017-03-30T10:35:53Z</time>
      </trkpt>
      <trkpt lat="45.9816" lon="6.78145">
        <ele>2621</ele>
        <time>2017-03-30T10:35:55Z</time>
      </trkpt>
      <trkpt lat="45.98162" lon="6.78142">
        <ele>2621</ele>
        <time>2017-03-30T10:35:56Z</time>
      </trkpt>
      <trkpt lat="45.98154" lon="6.78139">
        <ele>2618</ele>
        <time>2017-03-30T10:35:59Z</time>
      </trkpt>
      <trkpt lat="45.98149" lon="6.78139">
        <ele>2617</ele>
        <time>2017-03-30T10:36:00Z</time>
      </trkpt>
      <trkpt lat="45.98143" lon="6.78132">
        <ele>2615</ele>
        <time>2017-03-30T10:36:02Z</time>
      </trkpt>
      <trkpt lat="45.98141" lon="6.78125">
        <ele>2615</ele>
        <time>2017-03-30T10:36:03Z</time>
      </trkpt>
      <trkpt lat="45.98147" lon="6.7812">
        <ele>2613</ele>
        <time>2017-03-30T10:36:04Z</time>
      </trkpt>
      <trkpt lat="45.98145" lon="6.78114">
        <ele>2611</ele>
        <time>2017-03-30T10:36:05Z</time>
      </trkpt>
      <trkpt lat="45.98141" lon="6.78112">
        <ele>2607</ele>
        <time>2017-03-30T10:36:06Z</time>
      </trkpt>
      <trkpt lat="45.98135" lon="6.7811">
        <ele>2604</ele>
        <time>2017-03-30T10:36:07Z</time>
      </trkpt>
      <trkpt lat="45.98104" lon="6.78103">
        <ele>2596</ele>
        <time>2017-03-30T10:36:13Z</time>
      </trkpt>
      <trkpt lat="45.98103" lon="6.78096">
        <ele>2596</ele>
        <time>2017-03-30T10:36:14Z</time>
      </trkpt>
      <trkpt lat="45.98111" lon="6.78094">
        <ele>2595</ele>
        <time>2017-03-30T10:36:17Z</time>
      </trkpt>
      <trkpt lat="45.98124" lon="6.78089">
        <ele>2594</ele>
        <time>2017-03-30T10:36:19Z</time>
      </trkpt>
      <trkpt lat="45.98125" lon="6.78083">
        <ele>2589</ele>
        <time>2017-03-30T10:36:20Z</time>
      </trkpt>
      <trkpt lat="45.98123" lon="6.78074">
        <ele>2587</ele>
        <time>2017-03-30T10:36:22Z</time>
      </trkpt>
      <trkpt lat="45.98124" lon="6.78058">
        <ele>2583</ele>
        <time>2017-03-30T10:36:24Z</time>
      </trkpt>
      <trkpt lat="45.98128" lon="6.78051">
        <ele>2581</ele>
        <time>2017-03-30T10:36:26Z</time>
      </trkpt>
      <trkpt lat="45.98145" lon="6.78046">
        <ele>2578</ele>
        <time>2017-03-30T10:36:29Z</time>
      </trkpt>
      <trkpt lat="45.98154" lon="6.78044">
        <ele>2577</ele>
        <time>2017-03-30T10:36:31Z</time>
      </trkpt>
      <trkpt lat="45.98156" lon="6.78037">
        <ele>2575</ele>
        <time>2017-03-30T10:36:33Z</time>
      </trkpt>
      <trkpt lat="45.9815" lon="6.78035">
        <ele>2572</ele>
        <time>2017-03-30T10:36:34Z</time>
      </trkpt>
      <trkpt lat="45.98147" lon="6.78032">
        <ele>2571</ele>
        <time>2017-03-30T10:36:35Z</time>
      </trkpt>
      <trkpt lat="45.98144" lon="6.78026">
        <ele>2569</ele>
        <time>2017-03-30T10:36:36Z</time>
      </trkpt>
      <trkpt lat="45.98148" lon="6.78014">
        <ele>2567</ele>
        <time>2017-03-30T10:36:38Z</time>
      </trkpt>
      <trkpt lat="45.98156" lon="6.78008">
        <ele>2564</ele>
        <time>2017-03-30T10:36:40Z</time>
      </trkpt>
      <trkpt lat="45.98154" lon="6.78002">
        <ele>2562</ele>
        <time>2017-03-30T10:36:42Z</time>
      </trkpt>
      <trkpt lat="45.98156" lon="6.77994">
        <ele>2556</ele>
        <time>2017-03-30T10:36:44Z</time>
      </trkpt>
      <trkpt lat="45.98162" lon="6.77989">
        <ele>2554</ele>
        <time>2017-03-30T10:36:45Z</time>
      </trkpt>
      <trkpt lat="45.98172" lon="6.77983">
        <ele>2549</ele>
        <time>2017-03-30T10:36:50Z</time>
      </trkpt>
      <trkpt lat="45.98168" lon="6.77977">
        <ele>2545</ele>
        <time>2017-03-30T10:36:52Z</time>
      </trkpt>
      <trkpt lat="45.98164" lon="6.77975">
        <ele>2544</ele>
        <time>2017-03-30T10:36:53Z</time>
      </trkpt>
      <trkpt lat="45.98161" lon="6.77971">
        <ele>2542</ele>
        <time>2017-03-30T10:36:54Z</time>
      </trkpt>
      <trkpt lat="45.98161" lon="6.77967">
        <ele>2541</ele>
        <time>2017-03-30T10:36:55Z</time>
      </trkpt>
      <trkpt lat="45.98165" lon="6.77959">
        <ele>2538</ele>
        <time>2017-03-30T10:36:57Z</time>
      </trkpt>
      <trkpt lat="45.98179" lon="6.77955">
        <ele>2536</ele>
        <time>2017-03-30T10:36:59Z</time>
      </trkpt>
      <trkpt lat="45.98197" lon="6.77945">
        <ele>2532</ele>
        <time>2017-03-30T10:37:03Z</time>
      </trkpt>
      <trkpt lat="45.98193" lon="6.77937">
        <ele>2528</ele>
        <time>2017-03-30T10:37:05Z</time>
      </trkpt>
      <trkpt lat="45.98188" lon="6.77925">
        <ele>2524</ele>
        <time>2017-03-30T10:37:07Z</time>
      </trkpt>
      <trkpt lat="45.98189" lon="6.77918">
        <ele>2524</ele>
        <time>2017-03-30T10:37:08Z</time>
      </trkpt>
      <trkpt lat="45.98195" lon="6.7791">
        <ele>2523</ele>
        <time>2017-03-30T10:37:09Z</time>
      </trkpt>
      <trkpt lat="45.98207" lon="6.77906">
        <ele>2521</ele>
        <time>2017-03-30T10:37:11Z</time>
      </trkpt>
      <trkpt lat="45.98227" lon="6.77903">
        <ele>2518</ele>
        <time>2017-03-30T10:37:15Z</time>
      </trkpt>
      <trkpt lat="45.98223" lon="6.77896">
        <ele>2516</ele>
        <time>2017-03-30T10:37:18Z</time>
      </trkpt>
      <trkpt lat="45.98214" lon="6.77888">
        <ele>2512</ele>
        <time>2017-03-30T10:37:19Z</time>
      </trkpt>
      <trkpt lat="45.9818" lon="6.77868">
        <ele>2505</ele>
        <time>2017-03-30T10:37:25Z</time>
      </trkpt>
      <trkpt lat="45.9818" lon="6.77864">
        <ele>2500</ele>
        <time>2017-03-30T10:38:31Z</time>
      </trkpt>
      <trkpt lat="45.98173" lon="6.77857">
        <ele>2498</ele>
        <time>2017-03-30T10:38:35Z</time>
      </trkpt>
      <trkpt lat="45.98105" lon="6.77783">
        <ele>2483</ele>
        <time>2017-03-30T10:38:53Z</time>
      </trkpt>
      <trkpt lat="45.98115" lon="6.77783">
        <ele>2481</ele>
        <time>2017-03-30T10:38:55Z</time>
      </trkpt>
      <trkpt lat="45.98121" lon="6.77783">
        <ele>2480</ele>
        <time>2017-03-30T10:38:56Z</time>
      </trkpt>
      <trkpt lat="45.98125" lon="6.77778">
        <ele>2479</ele>
        <time>2017-03-30T10:38:57Z</time>
      </trkpt>
      <trkpt lat="45.98125" lon="6.77769">
        <ele>2477</ele>
        <time>2017-03-30T10:38:58Z</time>
      </trkpt>
      <trkpt lat="45.98123" lon="6.77761">
        <ele>2475</ele>
        <time>2017-03-30T10:38:59Z</time>
      </trkpt>
      <trkpt lat="45.98126" lon="6.77743">
        <ele>2472</ele>
        <time>2017-03-30T10:39:01Z</time>
      </trkpt>
      <trkpt lat="45.98137" lon="6.77744">
        <ele>2470</ele>
        <time>2017-03-30T10:39:02Z</time>
      </trkpt>
      <trkpt lat="45.98138" lon="6.77737">
        <ele>2469</ele>
        <time>2017-03-30T10:39:03Z</time>
      </trkpt>
      <trkpt lat="45.98136" lon="6.77733">
        <ele>2467</ele>
        <time>2017-03-30T10:39:04Z</time>
      </trkpt>
      <trkpt lat="45.98132" lon="6.77728">
        <ele>2465</ele>
        <time>2017-03-30T10:39:06Z</time>
      </trkpt>
      <trkpt lat="45.98131" lon="6.77723">
        <ele>2464</ele>
        <time>2017-03-30T10:39:07Z</time>
      </trkpt>
      <trkpt lat="45.98135" lon="6.77717">
        <ele>2460</ele>
        <time>2017-03-30T10:39:09Z</time>
      </trkpt>
      <trkpt lat="45.98134" lon="6.77714">
        <ele>2459</ele>
        <time>2017-03-30T10:39:10Z</time>
      </trkpt>
      <trkpt lat="45.98131" lon="6.77712">
        <ele>2457</ele>
        <time>2017-03-30T10:39:11Z</time>
      </trkpt>
      <trkpt lat="45.98127" lon="6.7771">
        <ele>2456</ele>
        <time>2017-03-30T10:39:13Z</time>
      </trkpt>
      <trkpt lat="45.98121" lon="6.77711">
        <ele>2455</ele>
        <time>2017-03-30T10:39:15Z</time>
      </trkpt>
      <trkpt lat="45.98118" lon="6.77708">
        <ele>2454</ele>
        <time>2017-03-30T10:39:16Z</time>
      </trkpt>
      <trkpt lat="45.98116" lon="6.77705">
        <ele>2453</ele>
        <time>2017-03-30T10:39:17Z</time>
      </trkpt>
      <trkpt lat="45.9812" lon="6.777">
        <ele>2452</ele>
        <time>2017-03-30T10:39:18Z</time>
      </trkpt>
      <trkpt lat="45.98118" lon="6.77696">
        <ele>2451</ele>
        <time>2017-03-30T10:39:19Z</time>
      </trkpt>
      <trkpt lat="45.98114" lon="6.77695">
        <ele>2449</ele>
        <time>2017-03-30T10:39:20Z</time>
      </trkpt>
      <trkpt lat="45.9811" lon="6.77695">
        <ele>2449</ele>
        <time>2017-03-30T10:39:21Z</time>
      </trkpt>
      <trkpt lat="45.98102" lon="6.77706">
        <ele>2445</ele>
        <time>2017-03-30T10:39:23Z</time>
      </trkpt>
      <trkpt lat="45.98099" lon="6.77708">
        <ele>2445</ele>
        <time>2017-03-30T10:39:24Z</time>
      </trkpt>
      <trkpt lat="45.98093" lon="6.77704">
        <ele>2444</ele>
        <time>2017-03-30T10:39:26Z</time>
      </trkpt>
      <trkpt lat="45.98088" lon="6.77692">
        <ele>2443</ele>
        <time>2017-03-30T10:39:28Z</time>
      </trkpt>
      <trkpt lat="45.98073" lon="6.77657">
        <ele>2437</ele>
        <time>2017-03-30T10:39:34Z</time>
      </trkpt>
      <trkpt lat="45.98069" lon="6.77655">
        <ele>2437</ele>
        <time>2017-03-30T10:39:37Z</time>
      </trkpt>
      <trkpt lat="45.98063" lon="6.77643">
        <ele>2434</ele>
        <time>2017-03-30T10:39:41Z</time>
      </trkpt>
      <trkpt lat="45.98055" lon="6.77634">
        <ele>2432</ele>
        <time>2017-03-30T10:39:43Z</time>
      </trkpt>
      <trkpt lat="45.98045" lon="6.77626">
        <ele>2430</ele>
        <time>2017-03-30T10:39:45Z</time>
      </trkpt>
      <trkpt lat="45.98046" lon="6.77617">
        <ele>2428</ele>
        <time>2017-03-30T10:39:46Z</time>
      </trkpt>
      <trkpt lat="45.98044" lon="6.7761">
        <ele>2427</ele>
        <time>2017-03-30T10:39:47Z</time>
      </trkpt>
      <trkpt lat="45.98039" lon="6.7761">
        <ele>2427</ele>
        <time>2017-03-30T10:39:48Z</time>
      </trkpt>
      <trkpt lat="45.97967" lon="6.77584">
        <ele>2416</ele>
        <time>2017-03-30T10:39:59Z</time>
      </trkpt>
      <trkpt lat="45.97948" lon="6.77563">
        <ele>2415</ele>
        <time>2017-03-30T10:40:03Z</time>
      </trkpt>
      <trkpt lat="45.97915" lon="6.77524">
        <ele>2410</ele>
        <time>2017-03-30T10:40:11Z</time>
      </trkpt>
      <trkpt lat="45.97911" lon="6.77524">
        <ele>2410</ele>
        <time>2017-03-30T10:40:12Z</time>
      </trkpt>
      <trkpt lat="45.97908" lon="6.77526">
        <ele>2410</ele>
        <time>2017-03-30T10:40:14Z</time>
      </trkpt>
      <trkpt lat="45.97894" lon="6.77525">
        <ele>2409</ele>
        <time>2017-03-30T10:40:19Z</time>
      </trkpt>
      <trkpt lat="45.97887" lon="6.77524">
        <ele>2408</ele>
        <time>2017-03-30T10:40:20Z</time>
      </trkpt>
      <trkpt lat="45.97869" lon="6.77517">
        <ele>2404</ele>
        <time>2017-03-30T10:40:23Z</time>
      </trkpt>
      <trkpt lat="45.97818" lon="6.77479">
        <ele>2396</ele>
        <time>2017-03-30T10:40:32Z</time>
      </trkpt>
      <trkpt lat="45.97684" lon="6.77339">
        <ele>2382</ele>
        <time>2017-03-30T10:41:02Z</time>
      </trkpt>
      <trkpt lat="45.97662" lon="6.77316">
        <ele>2382</ele>
        <time>2017-03-30T10:41:09Z</time>
      </trkpt>
      <trkpt lat="45.97649" lon="6.77311">
        <ele>2382</ele>
        <time>2017-03-30T10:41:12Z</time>
      </trkpt>
      <trkpt lat="45.97642" lon="6.77308">
        <ele>2381</ele>
        <time>2017-03-30T10:41:15Z</time>
      </trkpt>
      <trkpt lat="45.97632" lon="6.773">
        <ele>2380</ele>
        <time>2017-03-30T10:41:44Z</time>
      </trkpt>
      <trkpt lat="45.97611" lon="6.77291">
        <ele>2377</ele>
        <time>2017-03-30T10:41:49Z</time>
      </trkpt>
      <trkpt lat="45.97607" lon="6.77292">
        <ele>2376</ele>
        <time>2017-03-30T10:41:50Z</time>
      </trkpt>
      <trkpt lat="45.97586" lon="6.7728">
        <ele>2375</ele>
        <time>2017-03-30T10:41:54Z</time>
      </trkpt>
      <trkpt lat="45.97568" lon="6.77268">
        <ele>2375</ele>
        <time>2017-03-30T10:41:59Z</time>
      </trkpt>
      <trkpt lat="45.97555" lon="6.77268">
        <ele>2374</ele>
        <time>2017-03-30T10:42:02Z</time>
      </trkpt>
      <trkpt lat="45.97551" lon="6.77266">
        <ele>2374</ele>
        <time>2017-03-30T10:42:03Z</time>
      </trkpt>
      <trkpt lat="45.97545" lon="6.77256">
        <ele>2374</ele>
        <time>2017-03-30T10:42:05Z</time>
      </trkpt>
      <trkpt lat="45.97542" lon="6.77242">
        <ele>2373</ele>
        <time>2017-03-30T10:42:07Z</time>
      </trkpt>
      <trkpt lat="45.97539" lon="6.77221">
        <ele>2371</ele>
        <time>2017-03-30T10:42:11Z</time>
      </trkpt>
      <trkpt lat="45.97536" lon="6.77218">
        <ele>2371</ele>
        <time>2017-03-30T10:42:12Z</time>
      </trkpt>
      <trkpt lat="45.97532" lon="6.7721">
        <ele>2370</ele>
        <time>2017-03-30T10:42:14Z</time>
      </trkpt>
      <trkpt lat="45.97496" lon="6.77171">
        <ele>2368</ele>
        <time>2017-03-30T10:42:23Z</time>
      </trkpt>
      <trkpt lat="45.97463" lon="6.77129">
        <ele>2364</ele>
        <time>2017-03-30T10:42:31Z</time>
      </trkpt>
      <trkpt lat="45.97417" lon="6.77063">
        <ele>2357</ele>
        <time>2017-03-30T10:42:42Z</time>
      </trkpt>
      <trkpt lat="45.97379" lon="6.77005">
        <ele>2353</ele>
        <time>2017-03-30T10:42:52Z</time>
      </trkpt>
      <trkpt lat="45.97367" lon="6.76987">
        <ele>2350</ele>
        <time>2017-03-30T10:42:57Z</time>
      </trkpt>
      <trkpt lat="45.97346" lon="6.76967">
        <ele>2347</ele>
        <time>2017-03-30T10:43:04Z</time>
      </trkpt>
      <trkpt lat="45.97329" lon="6.76955">
        <ele>2344</ele>
        <time>2017-03-30T10:43:10Z</time>
      </trkpt>
      <trkpt lat="45.97281" lon="6.76925">
        <ele>2338</ele>
        <time>2017-03-30T10:43:23Z</time>
      </trkpt>
      <trkpt lat="45.97246" lon="6.76869">
        <ele>2331</ele>
        <time>2017-03-30T10:43:31Z</time>
      </trkpt>
      <trkpt lat="45.97225" lon="6.7686">
        <ele>2329</ele>
        <time>2017-03-30T10:43:36Z</time>
      </trkpt>
      <trkpt lat="45.97209" lon="6.76845">
        <ele>2328</ele>
        <time>2017-03-30T10:43:41Z</time>
      </trkpt>
      <trkpt lat="45.97192" lon="6.76821">
        <ele>2326</ele>
        <time>2017-03-30T10:43:46Z</time>
      </trkpt>
      <trkpt lat="45.97146" lon="6.76779">
        <ele>2322</ele>
        <time>2017-03-30T10:43:58Z</time>
      </trkpt>
      <trkpt lat="45.97145" lon="6.76776">
        <ele>2321</ele>
        <time>2017-03-30T10:43:59Z</time>
      </trkpt>
      <trkpt lat="45.97144" lon="6.7677">
        <ele>2321</ele>
        <time>2017-03-30T10:44:00Z</time>
      </trkpt>
      <trkpt lat="45.97148" lon="6.76763">
        <ele>2319</ele>
        <time>2017-03-30T10:44:01Z</time>
      </trkpt>
      <trkpt lat="45.97146" lon="6.76754">
        <ele>2316</ele>
        <time>2017-03-30T10:44:02Z</time>
      </trkpt>
      <trkpt lat="45.97134" lon="6.76724">
        <ele>2310</ele>
        <time>2017-03-30T10:44:06Z</time>
      </trkpt>
      <trkpt lat="45.97131" lon="6.76719">
        <ele>2310</ele>
        <time>2017-03-30T10:44:07Z</time>
      </trkpt>
      <trkpt lat="45.97128" lon="6.76716">
        <ele>2310</ele>
        <time>2017-03-30T10:44:09Z</time>
      </trkpt>
      <trkpt lat="45.97121" lon="6.76706">
        <ele>2309</ele>
        <time>2017-03-30T10:44:14Z</time>
      </trkpt>
      <trkpt lat="45.97121" lon="6.76698">
        <ele>2307</ele>
        <time>2017-03-30T10:44:25Z</time>
      </trkpt>
      <trkpt lat="45.97118" lon="6.76696">
        <ele>2306</ele>
        <time>2017-03-30T10:44:27Z</time>
      </trkpt>
      <trkpt lat="45.97115" lon="6.76696">
        <ele>2305</ele>
        <time>2017-03-30T10:44:28Z</time>
      </trkpt>
      <trkpt lat="45.97112" lon="6.76693">
        <ele>2304</ele>
        <time>2017-03-30T10:44:29Z</time>
      </trkpt>
      <trkpt lat="45.9711" lon="6.76688">
        <ele>2304</ele>
        <time>2017-03-30T10:44:30Z</time>
      </trkpt>
      <trkpt lat="45.9708" lon="6.76633">
        <ele>2296</ele>
        <time>2017-03-30T10:44:43Z</time>
      </trkpt>
      <trkpt lat="45.97068" lon="6.76618">
        <ele>2294</ele>
        <time>2017-03-30T10:44:48Z</time>
      </trkpt>
      <trkpt lat="45.97067" lon="6.76612">
        <ele>2292</ele>
        <time>2017-03-30T10:44:49Z</time>
      </trkpt>
      <trkpt lat="45.97058" lon="6.766">
        <ele>2289</ele>
        <time>2017-03-30T10:44:51Z</time>
      </trkpt>
      <trkpt lat="45.97036" lon="6.76567">
        <ele>2287</ele>
        <time>2017-03-30T10:44:57Z</time>
      </trkpt>
      <trkpt lat="45.97027" lon="6.76556">
        <ele>2285</ele>
        <time>2017-03-30T10:45:00Z</time>
      </trkpt>
      <trkpt lat="45.97011" lon="6.76548">
        <ele>2283</ele>
        <time>2017-03-30T10:45:06Z</time>
      </trkpt>
      <trkpt lat="45.96939" lon="6.76473">
        <ele>2275</ele>
        <time>2017-03-30T10:45:28Z</time>
      </trkpt>
      <trkpt lat="45.96916" lon="6.76435">
        <ele>2272</ele>
        <time>2017-03-30T10:45:37Z</time>
      </trkpt>
      <trkpt lat="45.96844" lon="6.76356">
        <ele>2266</ele>
        <time>2017-03-30T10:45:58Z</time>
      </trkpt>
      <trkpt lat="45.96815" lon="6.76321">
        <ele>2263</ele>
        <time>2017-03-30T10:46:07Z</time>
      </trkpt>
      <trkpt lat="45.96815" lon="6.76313">
        <ele>2263</ele>
        <time>2017-03-30T10:46:08Z</time>
      </trkpt>
      <trkpt lat="45.96807" lon="6.76297">
        <ele>2258</ele>
        <time>2017-03-30T10:46:10Z</time>
      </trkpt>
      <trkpt lat="45.96795" lon="6.76284">
        <ele>2256</ele>
        <time>2017-03-30T10:46:13Z</time>
      </trkpt>
      <trkpt lat="45.96746" lon="6.7624">
        <ele>2251</ele>
        <time>2017-03-30T10:46:28Z</time>
      </trkpt>
      <trkpt lat="45.96676" lon="6.76159">
        <ele>2243</ele>
        <time>2017-03-30T10:46:46Z</time>
      </trkpt>
      <trkpt lat="45.96666" lon="6.76131">
        <ele>2242</ele>
        <time>2017-03-30T10:46:50Z</time>
      </trkpt>
      <trkpt lat="45.96657" lon="6.76093">
        <ele>2243</ele>
        <time>2017-03-30T10:46:59Z</time>
      </trkpt>
      <trkpt lat="45.96655" lon="6.76069">
        <ele>2243</ele>
        <time>2017-03-30T10:47:05Z</time>
      </trkpt>
      <trkpt lat="45.9665" lon="6.76046">
        <ele>2242</ele>
        <time>2017-03-30T10:47:10Z</time>
      </trkpt>
      <trkpt lat="45.96644" lon="6.76021">
        <ele>2242</ele>
        <time>2017-03-30T10:47:15Z</time>
      </trkpt>
      <trkpt lat="45.96643" lon="6.75999">
        <ele>2243</ele>
        <time>2017-03-30T10:47:22Z</time>
      </trkpt>
      <trkpt lat="45.96633" lon="6.75977">
        <ele>2243</ele>
        <time>2017-03-30T10:47:30Z</time>
      </trkpt>
      <trkpt lat="45.96624" lon="6.75959">
        <ele>2242</ele>
        <time>2017-03-30T10:47:37Z</time>
      </trkpt>
      <trkpt lat="45.96617" lon="6.75942">
        <ele>2242</ele>
        <time>2017-03-30T10:47:55Z</time>
      </trkpt>
      <trkpt lat="45.96594" lon="6.75914">
        <ele>2240</ele>
        <time>2017-03-30T10:48:06Z</time>
      </trkpt>
      <trkpt lat="45.96583" lon="6.75908">
        <ele>2240</ele>
        <time>2017-03-30T10:48:17Z</time>
      </trkpt>
      <trkpt lat="45.96582" lon="6.75904">
        <ele>2240</ele>
        <time>2017-03-30T10:48:22Z</time>
      </trkpt>
      <trkpt lat="45.96586" lon="6.75904">
        <ele>2240</ele>
        <time>2017-03-30T10:48:24Z</time>
      </trkpt>
      <trkpt lat="45.9659" lon="6.75903">
        <ele>2240</ele>
        <time>2017-03-30T10:49:59Z</time>
      </trkpt>
      <trkpt lat="45.96594" lon="6.75904">
        <ele>2239</ele>
        <time>2017-03-30T10:50:01Z</time>
      </trkpt>
      <trkpt lat="45.9661" lon="6.75905">
        <ele>2238</ele>
        <time>2017-03-30T10:50:05Z</time>
      </trkpt>
      <trkpt lat="45.96614" lon="6.75902">
        <ele>2237</ele>
        <time>2017-03-30T10:50:06Z</time>
      </trkpt>
      <trkpt lat="45.96612" lon="6.75893">
        <ele>2237</ele>
        <time>2017-03-30T10:50:07Z</time>
      </trkpt>
      <trkpt lat="45.96614" lon="6.75888">
        <ele>2236</ele>
        <time>2017-03-30T10:50:08Z</time>
      </trkpt>
      <trkpt lat="45.96619" lon="6.75886">
        <ele>2235</ele>
        <time>2017-03-30T10:50:09Z</time>
      </trkpt>
      <trkpt lat="45.96623" lon="6.75885">
        <ele>2234</ele>
        <time>2017-03-30T10:50:10Z</time>
      </trkpt>
      <trkpt lat="45.96638" lon="6.7589">
        <ele>2231</ele>
        <time>2017-03-30T10:50:16Z</time>
      </trkpt>
      <trkpt lat="45.9664" lon="6.75887">
        <ele>2231</ele>
        <time>2017-03-30T10:50:18Z</time>
      </trkpt>
      <trkpt lat="45.96639" lon="6.75882">
        <ele>2229</ele>
        <time>2017-03-30T10:50:19Z</time>
      </trkpt>
      <trkpt lat="45.96632" lon="6.75873">
        <ele>2227</ele>
        <time>2017-03-30T10:50:21Z</time>
      </trkpt>
      <trkpt lat="45.96625" lon="6.75866">
        <ele>2226</ele>
        <time>2017-03-30T10:50:23Z</time>
      </trkpt>
      <trkpt lat="45.9663" lon="6.75862">
        <ele>2224</ele>
        <time>2017-03-30T10:50:24Z</time>
      </trkpt>
      <trkpt lat="45.96634" lon="6.7586">
        <ele>2222</ele>
        <time>2017-03-30T10:50:25Z</time>
      </trkpt>
      <trkpt lat="45.96635" lon="6.75852">
        <ele>2219</ele>
        <time>2017-03-30T10:50:26Z</time>
      </trkpt>
      <trkpt lat="45.96628" lon="6.75838">
        <ele>2215</ele>
        <time>2017-03-30T10:50:28Z</time>
      </trkpt>
      <trkpt lat="45.96626" lon="6.75831">
        <ele>2214</ele>
        <time>2017-03-30T10:50:29Z</time>
      </trkpt>
      <trkpt lat="45.96633" lon="6.75828">
        <ele>2212</ele>
        <time>2017-03-30T10:50:31Z</time>
      </trkpt>
      <trkpt lat="45.96635" lon="6.75825">
        <ele>2211</ele>
        <time>2017-03-30T10:50:32Z</time>
      </trkpt>
      <trkpt lat="45.96633" lon="6.75818">
        <ele>2209</ele>
        <time>2017-03-30T10:50:33Z</time>
      </trkpt>
      <trkpt lat="45.96632" lon="6.75812">
        <ele>2209</ele>
        <time>2017-03-30T10:50:34Z</time>
      </trkpt>
      <trkpt lat="45.96638" lon="6.75806">
        <ele>2207</ele>
        <time>2017-03-30T10:50:36Z</time>
      </trkpt>
      <trkpt lat="45.96642" lon="6.7581">
        <ele>2206</ele>
        <time>2017-03-30T10:50:37Z</time>
      </trkpt>
      <trkpt lat="45.96644" lon="6.75806">
        <ele>2203</ele>
        <time>2017-03-30T10:50:38Z</time>
      </trkpt>
      <trkpt lat="45.96648" lon="6.75795">
        <ele>2199</ele>
        <time>2017-03-30T10:50:41Z</time>
      </trkpt>
      <trkpt lat="45.96652" lon="6.75797">
        <ele>2199</ele>
        <time>2017-03-30T10:50:42Z</time>
      </trkpt>
      <trkpt lat="45.96659" lon="6.758">
        <ele>2196</ele>
        <time>2017-03-30T10:50:44Z</time>
      </trkpt>
      <trkpt lat="45.96665" lon="6.75794">
        <ele>2191</ele>
        <time>2017-03-30T10:50:46Z</time>
      </trkpt>
      <trkpt lat="45.96665" lon="6.75787">
        <ele>2190</ele>
        <time>2017-03-30T10:50:47Z</time>
      </trkpt>
      <trkpt lat="45.96656" lon="6.75757">
        <ele>2187</ele>
        <time>2017-03-30T10:50:49Z</time>
      </trkpt>
      <trkpt lat="45.96655" lon="6.75748">
        <ele>2187</ele>
        <time>2017-03-30T10:50:50Z</time>
      </trkpt>
      <trkpt lat="45.96658" lon="6.75738">
        <ele>2190</ele>
        <time>2017-03-30T10:50:52Z</time>
      </trkpt>
      <trkpt lat="45.96665" lon="6.75742">
        <ele>2190</ele>
        <time>2017-03-30T10:50:53Z</time>
      </trkpt>
      <trkpt lat="45.96679" lon="6.75745">
        <ele>2188</ele>
        <time>2017-03-30T10:50:57Z</time>
      </trkpt>
      <trkpt lat="45.96682" lon="6.75743">
        <ele>2185</ele>
        <time>2017-03-30T10:50:58Z</time>
      </trkpt>
      <trkpt lat="45.96683" lon="6.75739">
        <ele>2184</ele>
        <time>2017-03-30T10:50:59Z</time>
      </trkpt>
      <trkpt lat="45.96685" lon="6.75729">
        <ele>2181</ele>
        <time>2017-03-30T10:51:01Z</time>
      </trkpt>
      <trkpt lat="45.96683" lon="6.75714">
        <ele>2177</ele>
        <time>2017-03-30T10:51:04Z</time>
      </trkpt>
      <trkpt lat="45.96682" lon="6.757">
        <ele>2174</ele>
        <time>2017-03-30T10:51:06Z</time>
      </trkpt>
      <trkpt lat="45.96685" lon="6.75695">
        <ele>2173</ele>
        <time>2017-03-30T10:51:07Z</time>
      </trkpt>
      <trkpt lat="45.96689" lon="6.75691">
        <ele>2171</ele>
        <time>2017-03-30T10:51:08Z</time>
      </trkpt>
      <trkpt lat="45.96699" lon="6.75691">
        <ele>2169</ele>
        <time>2017-03-30T10:51:10Z</time>
      </trkpt>
      <trkpt lat="45.96706" lon="6.75678">
        <ele>2167</ele>
        <time>2017-03-30T10:51:12Z</time>
      </trkpt>
      <trkpt lat="45.96709" lon="6.7566">
        <ele>2164</ele>
        <time>2017-03-30T10:51:15Z</time>
      </trkpt>
      <trkpt lat="45.96713" lon="6.75659">
        <ele>2163</ele>
        <time>2017-03-30T10:51:16Z</time>
      </trkpt>
      <trkpt lat="45.96715" lon="6.7566">
        <ele>2162</ele>
        <time>2017-03-30T10:51:17Z</time>
      </trkpt>
      <trkpt lat="45.96734" lon="6.75654">
        <ele>2155</ele>
        <time>2017-03-30T10:51:22Z</time>
      </trkpt>
      <trkpt lat="45.96738" lon="6.75663">
        <ele>2153</ele>
        <time>2017-03-30T10:51:24Z</time>
      </trkpt>
      <trkpt lat="45.96741" lon="6.75665">
        <ele>2152</ele>
        <time>2017-03-30T10:51:25Z</time>
      </trkpt>
      <trkpt lat="45.96751" lon="6.75667">
        <ele>2146</ele>
        <time>2017-03-30T10:53:37Z</time>
      </trkpt>
      <trkpt lat="45.9676" lon="6.75669">
        <ele>2144</ele>
        <time>2017-03-30T10:53:40Z</time>
      </trkpt>
      <trkpt lat="45.96767" lon="6.75678">
        <ele>2142</ele>
        <time>2017-03-30T10:53:42Z</time>
      </trkpt>
      <trkpt lat="45.96772" lon="6.75673">
        <ele>2140</ele>
        <time>2017-03-30T10:53:43Z</time>
      </trkpt>
      <trkpt lat="45.96772" lon="6.75665">
        <ele>2139</ele>
        <time>2017-03-30T10:53:44Z</time>
      </trkpt>
      <trkpt lat="45.96773" lon="6.75659">
        <ele>2137</ele>
        <time>2017-03-30T10:53:45Z</time>
      </trkpt>
      <trkpt lat="45.96776" lon="6.75656">
        <ele>2136</ele>
        <time>2017-03-30T10:53:46Z</time>
      </trkpt>
      <trkpt lat="45.96784" lon="6.75652">
        <ele>2134</ele>
        <time>2017-03-30T10:53:48Z</time>
      </trkpt>
      <trkpt lat="45.96787" lon="6.75655">
        <ele>2134</ele>
        <time>2017-03-30T10:53:49Z</time>
      </trkpt>
      <trkpt lat="45.96791" lon="6.75653">
        <ele>2133</ele>
        <time>2017-03-30T10:53:50Z</time>
      </trkpt>
      <trkpt lat="45.9679" lon="6.75647">
        <ele>2132</ele>
        <time>2017-03-30T10:53:51Z</time>
      </trkpt>
      <trkpt lat="45.96795" lon="6.75633">
        <ele>2130</ele>
        <time>2017-03-30T10:53:53Z</time>
      </trkpt>
      <trkpt lat="45.96797" lon="6.75639">
        <ele>2128</ele>
        <time>2017-03-30T10:53:54Z</time>
      </trkpt>
      <trkpt lat="45.96806" lon="6.75649">
        <ele>2124</ele>
        <time>2017-03-30T10:53:57Z</time>
      </trkpt>
      <trkpt lat="45.96809" lon="6.75653">
        <ele>2122</ele>
        <time>2017-03-30T10:53:58Z</time>
      </trkpt>
      <trkpt lat="45.96812" lon="6.75647">
        <ele>2122</ele>
        <time>2017-03-30T10:53:59Z</time>
      </trkpt>
      <trkpt lat="45.96815" lon="6.75637">
        <ele>2120</ele>
        <time>2017-03-30T10:54:00Z</time>
      </trkpt>
      <trkpt lat="45.9682" lon="6.75632">
        <ele>2119</ele>
        <time>2017-03-30T10:54:01Z</time>
      </trkpt>
      <trkpt lat="45.96825" lon="6.75633">
        <ele>2117</ele>
        <time>2017-03-30T10:54:02Z</time>
      </trkpt>
      <trkpt lat="45.96828" lon="6.75638">
        <ele>2117</ele>
        <time>2017-03-30T10:54:03Z</time>
      </trkpt>
      <trkpt lat="45.96833" lon="6.75634">
        <ele>2115</ele>
        <time>2017-03-30T10:54:04Z</time>
      </trkpt>
      <trkpt lat="45.96835" lon="6.75628">
        <ele>2114</ele>
        <time>2017-03-30T10:54:05Z</time>
      </trkpt>
      <trkpt lat="45.96836" lon="6.75614">
        <ele>2112</ele>
        <time>2017-03-30T10:54:07Z</time>
      </trkpt>
      <trkpt lat="45.9684" lon="6.7561">
        <ele>2111</ele>
        <time>2017-03-30T10:54:08Z</time>
      </trkpt>
      <trkpt lat="45.96845" lon="6.75607">
        <ele>2111</ele>
        <time>2017-03-30T10:54:09Z</time>
      </trkpt>
      <trkpt lat="45.96848" lon="6.7561">
        <ele>2109</ele>
        <time>2017-03-30T10:54:10Z</time>
      </trkpt>
      <trkpt lat="45.96852" lon="6.75606">
        <ele>2107</ele>
        <time>2017-03-30T10:54:11Z</time>
      </trkpt>
      <trkpt lat="45.96856" lon="6.756">
        <ele>2106</ele>
        <time>2017-03-30T10:54:12Z</time>
      </trkpt>
      <trkpt lat="45.96855" lon="6.75585">
        <ele>2105</ele>
        <time>2017-03-30T10:54:14Z</time>
      </trkpt>
      <trkpt lat="45.96856" lon="6.75578">
        <ele>2104</ele>
        <time>2017-03-30T10:54:15Z</time>
      </trkpt>
      <trkpt lat="45.96865" lon="6.75569">
        <ele>2101</ele>
        <time>2017-03-30T10:54:17Z</time>
      </trkpt>
      <trkpt lat="45.96868" lon="6.75566">
        <ele>2100</ele>
        <time>2017-03-30T10:54:18Z</time>
      </trkpt>
      <trkpt lat="45.96868" lon="6.7556">
        <ele>2099</ele>
        <time>2017-03-30T10:54:19Z</time>
      </trkpt>
      <trkpt lat="45.96866" lon="6.75546">
        <ele>2097</ele>
        <time>2017-03-30T10:54:21Z</time>
      </trkpt>
      <trkpt lat="45.96864" lon="6.75499">
        <ele>2092</ele>
        <time>2017-03-30T10:54:28Z</time>
      </trkpt>
      <trkpt lat="45.9687" lon="6.75488">
        <ele>2091</ele>
        <time>2017-03-30T10:54:31Z</time>
      </trkpt>
      <trkpt lat="45.96903" lon="6.75402">
        <ele>2087</ele>
        <time>2017-03-30T10:55:01Z</time>
      </trkpt>
      <trkpt lat="45.96912" lon="6.75372">
        <ele>2083</ele>
        <time>2017-03-30T10:55:06Z</time>
      </trkpt>
      <trkpt lat="45.9692" lon="6.75364">
        <ele>2082</ele>
        <time>2017-03-30T10:55:08Z</time>
      </trkpt>
      <trkpt lat="45.96925" lon="6.75373">
        <ele>2080</ele>
        <time>2017-03-30T10:55:09Z</time>
      </trkpt>
      <trkpt lat="45.96929" lon="6.75373">
        <ele>2079</ele>
        <time>2017-03-30T10:55:10Z</time>
      </trkpt>
      <trkpt lat="45.96932" lon="6.75366">
        <ele>2077</ele>
        <time>2017-03-30T10:55:11Z</time>
      </trkpt>
      <trkpt lat="45.96934" lon="6.75363">
        <ele>2077</ele>
        <time>2017-03-30T10:55:12Z</time>
      </trkpt>
      <trkpt lat="45.96938" lon="6.75347">
        <ele>2074</ele>
        <time>2017-03-30T10:55:15Z</time>
      </trkpt>
      <trkpt lat="45.96942" lon="6.75343">
        <ele>2073</ele>
        <time>2017-03-30T10:55:16Z</time>
      </trkpt>
      <trkpt lat="45.96947" lon="6.75345">
        <ele>2072</ele>
        <time>2017-03-30T10:55:17Z</time>
      </trkpt>
      <trkpt lat="45.96953" lon="6.75348">
        <ele>2070</ele>
        <time>2017-03-30T10:55:18Z</time>
      </trkpt>
      <trkpt lat="45.96963" lon="6.7534">
        <ele>2069</ele>
        <time>2017-03-30T10:55:20Z</time>
      </trkpt>
      <trkpt lat="45.96961" lon="6.75325">
        <ele>2067</ele>
        <time>2017-03-30T10:55:21Z</time>
      </trkpt>
      <trkpt lat="45.96967" lon="6.75297">
        <ele>2063</ele>
        <time>2017-03-30T10:55:24Z</time>
      </trkpt>
      <trkpt lat="45.9698" lon="6.75301">
        <ele>2060</ele>
        <time>2017-03-30T10:55:25Z</time>
      </trkpt>
      <trkpt lat="45.96985" lon="6.75294">
        <ele>2058</ele>
        <time>2017-03-30T10:55:26Z</time>
      </trkpt>
      <trkpt lat="45.9699" lon="6.75274">
        <ele>2054</ele>
        <time>2017-03-30T10:55:28Z</time>
      </trkpt>
      <trkpt lat="45.97006" lon="6.75225">
        <ele>2048</ele>
        <time>2017-03-30T10:55:33Z</time>
      </trkpt>
      <trkpt lat="45.97053" lon="6.75135">
        <ele>2044</ele>
        <time>2017-03-30T10:55:57Z</time>
      </trkpt>
      <trkpt lat="45.97054" lon="6.7513">
        <ele>2044</ele>
        <time>2017-03-30T10:56:01Z</time>
      </trkpt>
      <trkpt lat="45.97056" lon="6.75126">
        <ele>2052</ele>
        <time>2017-03-30T11:06:19Z</time>
      </trkpt>
      <trkpt lat="45.97056" lon="6.7512">
        <ele>2052</ele>
        <time>2017-03-30T11:06:30Z</time>
      </trkpt>
      <trkpt lat="45.97058" lon="6.75116">
        <ele>2051</ele>
        <time>2017-03-30T11:06:34Z</time>
      </trkpt>
      <trkpt lat="45.97062" lon="6.751">
        <ele>2048</ele>
        <time>2017-03-30T11:06:51Z</time>
      </trkpt>
      <trkpt lat="45.97068" lon="6.75061">
        <ele>2044</ele>
        <time>2017-03-30T11:07:23Z</time>
      </trkpt>
      <trkpt lat="45.9707" lon="6.75038">
        <ele>2043</ele>
        <time>2017-03-30T11:07:40Z</time>
      </trkpt>
      <trkpt lat="45.97072" lon="6.74992">
        <ele>2043</ele>
        <time>2017-03-30T11:08:12Z</time>
      </trkpt>
      <trkpt lat="45.97073" lon="6.74959">
        <ele>2043</ele>
        <time>2017-03-30T11:08:31Z</time>
      </trkpt>
      <trkpt lat="45.97075" lon="6.74938">
        <ele>2041</ele>
        <time>2017-03-30T11:08:41Z</time>
      </trkpt>
      <trkpt lat="45.97078" lon="6.74923">
        <ele>2043</ele>
        <time>2017-03-30T11:08:51Z</time>
      </trkpt>
      <trkpt lat="45.97083" lon="6.74895">
        <ele>2045</ele>
        <time>2017-03-30T11:09:09Z</time>
      </trkpt>
      <trkpt lat="45.97087" lon="6.74875">
        <ele>2044</ele>
        <time>2017-03-30T11:09:21Z</time>
      </trkpt>
      <trkpt lat="45.97092" lon="6.74844">
        <ele>2046</ele>
        <time>2017-03-30T11:09:47Z</time>
      </trkpt>
      <trkpt lat="45.97091" lon="6.74804">
        <ele>2048</ele>
        <time>2017-03-30T11:10:18Z</time>
      </trkpt>
      <trkpt lat="45.97093" lon="6.74791">
        <ele>2049</ele>
        <time>2017-03-30T11:10:30Z</time>
      </trkpt>
      <trkpt lat="45.97094" lon="6.74756">
        <ele>2053</ele>
        <time>2017-03-30T11:11:00Z</time>
      </trkpt>
      <trkpt lat="45.97095" lon="6.74751">
        <ele>2053</ele>
        <time>2017-03-30T11:11:04Z</time>
      </trkpt>
      <trkpt lat="45.97096" lon="6.74738">
        <ele>2056</ele>
        <time>2017-03-30T11:11:22Z</time>
      </trkpt>
      <trkpt lat="45.97095" lon="6.74729">
        <ele>2058</ele>
        <time>2017-03-30T11:11:30Z</time>
      </trkpt>
      <trkpt lat="45.97092" lon="6.74722">
        <ele>2058</ele>
        <time>2017-03-30T11:11:40Z</time>
      </trkpt>
      <trkpt lat="45.9709" lon="6.74714">
        <ele>2059</ele>
        <time>2017-03-30T11:11:49Z</time>
      </trkpt>
      <trkpt lat="45.9709" lon="6.7471">
        <ele>2059</ele>
        <time>2017-03-30T11:11:54Z</time>
      </trkpt>
      <trkpt lat="45.97088" lon="6.74697">
        <ele>2063</ele>
        <time>2017-03-30T11:12:09Z</time>
      </trkpt>
      <trkpt lat="45.9709" lon="6.74692">
        <ele>2062</ele>
        <time>2017-03-30T11:12:14Z</time>
      </trkpt>
      <trkpt lat="45.97095" lon="6.74688">
        <ele>2062</ele>
        <time>2017-03-30T11:12:20Z</time>
      </trkpt>
      <trkpt lat="45.97098" lon="6.74687">
        <ele>2062</ele>
        <time>2017-03-30T11:12:24Z</time>
      </trkpt>
      <trkpt lat="45.971" lon="6.74684">
        <ele>2063</ele>
        <time>2017-03-30T11:12:29Z</time>
      </trkpt>
      <trkpt lat="45.971" lon="6.74675">
        <ele>2065</ele>
        <time>2017-03-30T11:12:37Z</time>
      </trkpt>
      <trkpt lat="45.97101" lon="6.74667">
        <ele>2065</ele>
        <time>2017-03-30T11:12:45Z</time>
      </trkpt>
      <trkpt lat="45.97099" lon="6.74659">
        <ele>2067</ele>
        <time>2017-03-30T11:12:51Z</time>
      </trkpt>
      <trkpt lat="45.97097" lon="6.74656">
        <ele>2068</ele>
        <time>2017-03-30T11:12:55Z</time>
      </trkpt>
      <trkpt lat="45.97092" lon="6.74639">
        <ele>2067</ele>
        <time>2017-03-30T11:13:08Z</time>
      </trkpt>
      <trkpt lat="45.97085" lon="6.74623">
        <ele>2072</ele>
        <time>2017-03-30T11:13:29Z</time>
      </trkpt>
      <trkpt lat="45.97079" lon="6.74598">
        <ele>2076</ele>
        <time>2017-03-30T11:13:59Z</time>
      </trkpt>
      <trkpt lat="45.9708" lon="6.74589">
        <ele>2079</ele>
        <time>2017-03-30T11:14:07Z</time>
      </trkpt>
      <trkpt lat="45.97079" lon="6.7458">
        <ele>2079</ele>
        <time>2017-03-30T11:14:17Z</time>
      </trkpt>
      <trkpt lat="45.97077" lon="6.74569">
        <ele>2081</ele>
        <time>2017-03-30T11:14:31Z</time>
      </trkpt>
      <trkpt lat="45.97077" lon="6.74564">
        <ele>2083</ele>
        <time>2017-03-30T11:14:36Z</time>
      </trkpt>
      <trkpt lat="45.97075" lon="6.74556">
        <ele>2086</ele>
        <time>2017-03-30T11:14:45Z</time>
      </trkpt>
      <trkpt lat="45.97077" lon="6.74553">
        <ele>2086</ele>
        <time>2017-03-30T11:14:52Z</time>
      </trkpt>
      <trkpt lat="45.97084" lon="6.74552">
        <ele>2088</ele>
        <time>2017-03-30T11:15:01Z</time>
      </trkpt>
      <trkpt lat="45.97085" lon="6.74548">
        <ele>2089</ele>
        <time>2017-03-30T11:15:06Z</time>
      </trkpt>
      <trkpt lat="45.97083" lon="6.74539">
        <ele>2091</ele>
        <time>2017-03-30T11:15:17Z</time>
      </trkpt>
      <trkpt lat="45.97082" lon="6.74531">
        <ele>2092</ele>
        <time>2017-03-30T11:15:24Z</time>
      </trkpt>
      <trkpt lat="45.97086" lon="6.74492">
        <ele>2093</ele>
        <time>2017-03-30T11:15:56Z</time>
      </trkpt>
      <trkpt lat="45.97082" lon="6.74484">
        <ele>2094</ele>
        <time>2017-03-30T11:16:04Z</time>
      </trkpt>
      <trkpt lat="45.97074" lon="6.74466">
        <ele>2093</ele>
        <time>2017-03-30T11:16:23Z</time>
      </trkpt>
      <trkpt lat="45.97072" lon="6.74463">
        <ele>2094</ele>
        <time>2017-03-30T11:16:26Z</time>
      </trkpt>
      <trkpt lat="45.97071" lon="6.74454">
        <ele>2096</ele>
        <time>2017-03-30T11:16:33Z</time>
      </trkpt>
      <trkpt lat="45.97068" lon="6.74451">
        <ele>2097</ele>
        <time>2017-03-30T11:16:38Z</time>
      </trkpt>
      <trkpt lat="45.97061" lon="6.74442">
        <ele>2101</ele>
        <time>2017-03-30T11:16:50Z</time>
      </trkpt>
      <trkpt lat="45.97044" lon="6.74423">
        <ele>2105</ele>
        <time>2017-03-30T11:17:23Z</time>
      </trkpt>
      <trkpt lat="45.97041" lon="6.74414">
        <ele>2109</ele>
        <time>2017-03-30T11:17:33Z</time>
      </trkpt>
      <trkpt lat="45.97043" lon="6.74407">
        <ele>2110</ele>
        <time>2017-03-30T11:17:42Z</time>
      </trkpt>
      <trkpt lat="45.9705" lon="6.74375">
        <ele>2109</ele>
        <time>2017-03-30T11:18:15Z</time>
      </trkpt>
      <trkpt lat="45.97053" lon="6.74362">
        <ele>2111</ele>
        <time>2017-03-30T11:18:30Z</time>
      </trkpt>
      <trkpt lat="45.97057" lon="6.74355">
        <ele>2114</ele>
        <time>2017-03-30T11:18:40Z</time>
      </trkpt>
      <trkpt lat="45.97063" lon="6.74351">
        <ele>2115</ele>
        <time>2017-03-30T11:18:49Z</time>
      </trkpt>
      <trkpt lat="45.97066" lon="6.74351">
        <ele>2116</ele>
        <time>2017-03-30T11:18:54Z</time>
      </trkpt>
      <trkpt lat="45.97081" lon="6.74352">
        <ele>2120</ele>
        <time>2017-03-30T11:19:18Z</time>
      </trkpt>
      <trkpt lat="45.97103" lon="6.74336">
        <ele>2125</ele>
        <time>2017-03-30T11:19:51Z</time>
      </trkpt>
      <trkpt lat="45.97112" lon="6.74333">
        <ele>2126</ele>
        <time>2017-03-30T11:20:04Z</time>
      </trkpt>
      <trkpt lat="45.97118" lon="6.74331">
        <ele>2126</ele>
        <time>2017-03-30T11:20:13Z</time>
      </trkpt>
      <trkpt lat="45.9714" lon="6.74317">
        <ele>2132</ele>
        <time>2017-03-30T11:20:46Z</time>
      </trkpt>
      <trkpt lat="45.97152" lon="6.74301">
        <ele>2136</ele>
        <time>2017-03-30T11:21:11Z</time>
      </trkpt>
      <trkpt lat="45.97169" lon="6.74296">
        <ele>2137</ele>
        <time>2017-03-30T11:21:40Z</time>
      </trkpt>
      <trkpt lat="45.97183" lon="6.74283">
        <ele>2142</ele>
        <time>2017-03-30T11:22:04Z</time>
      </trkpt>
      <trkpt lat="45.97205" lon="6.74262">
        <ele>2146</ele>
        <time>2017-03-30T11:22:35Z</time>
      </trkpt>
      <trkpt lat="45.97222" lon="6.74239">
        <ele>2146</ele>
        <time>2017-03-30T11:22:56Z</time>
      </trkpt>
      <trkpt lat="45.97228" lon="6.74225">
        <ele>2148</ele>
        <time>2017-03-30T11:23:09Z</time>
      </trkpt>
      <trkpt lat="45.97227" lon="6.74216">
        <ele>2149</ele>
        <time>2017-03-30T11:23:16Z</time>
      </trkpt>
      <trkpt lat="45.97231" lon="6.74186">
        <ele>2150</ele>
        <time>2017-03-30T11:23:32Z</time>
      </trkpt>
      <trkpt lat="45.97236" lon="6.74178">
        <ele>2149</ele>
        <time>2017-03-30T11:23:36Z</time>
      </trkpt>
      <trkpt lat="45.97245" lon="6.74165">
        <ele>2151</ele>
        <time>2017-03-30T11:23:54Z</time>
      </trkpt>
      <trkpt lat="45.97245" lon="6.74161">
        <ele>2154</ele>
        <time>2017-03-30T11:24:14Z</time>
      </trkpt>
      <trkpt lat="45.97247" lon="6.74159">
        <ele>2153</ele>
        <time>2017-03-30T11:25:06Z</time>
      </trkpt>
      <trkpt lat="45.97251" lon="6.74147">
        <ele>2151</ele>
        <time>2017-03-30T11:25:14Z</time>
      </trkpt>
      <trkpt lat="45.97255" lon="6.7414">
        <ele>2151</ele>
        <time>2017-03-30T11:25:22Z</time>
      </trkpt>
      <trkpt lat="45.97263" lon="6.7413">
        <ele>2151</ele>
        <time>2017-03-30T11:25:32Z</time>
      </trkpt>
      <trkpt lat="45.97264" lon="6.74122">
        <ele>2152</ele>
        <time>2017-03-30T11:25:38Z</time>
      </trkpt>
      <trkpt lat="45.97269" lon="6.7408">
        <ele>2151</ele>
        <time>2017-03-30T11:26:02Z</time>
      </trkpt>
      <trkpt lat="45.97272" lon="6.74077">
        <ele>2151</ele>
        <time>2017-03-30T11:26:04Z</time>
      </trkpt>
      <trkpt lat="45.97279" lon="6.74074">
        <ele>2150</ele>
        <time>2017-03-30T11:26:09Z</time>
      </trkpt>
      <trkpt lat="45.97305" lon="6.74069">
        <ele>2148</ele>
        <time>2017-03-30T11:26:40Z</time>
      </trkpt>
      <trkpt lat="45.97313" lon="6.74064">
        <ele>2147</ele>
        <time>2017-03-30T11:26:50Z</time>
      </trkpt>
      <trkpt lat="45.97332" lon="6.74062">
        <ele>2148</ele>
        <time>2017-03-30T11:27:15Z</time>
      </trkpt>
      <trkpt lat="45.97333" lon="6.74058">
        <ele>2149</ele>
        <time>2017-03-30T11:27:22Z</time>
      </trkpt>
      <trkpt lat="45.97336" lon="6.74038">
        <ele>2149</ele>
        <time>2017-03-30T11:27:37Z</time>
      </trkpt>
      <trkpt lat="45.9735" lon="6.73995">
        <ele>2143</ele>
        <time>2017-03-30T11:27:56Z</time>
      </trkpt>
      <trkpt lat="45.97352" lon="6.7398">
        <ele>2143</ele>
        <time>2017-03-30T11:28:04Z</time>
      </trkpt>
      <trkpt lat="45.97347" lon="6.73954">
        <ele>2146</ele>
        <time>2017-03-30T11:28:25Z</time>
      </trkpt>
      <trkpt lat="45.97344" lon="6.73946">
        <ele>2146</ele>
        <time>2017-03-30T11:28:34Z</time>
      </trkpt>
      <trkpt lat="45.97342" lon="6.73916">
        <ele>2146</ele>
        <time>2017-03-30T11:28:55Z</time>
      </trkpt>
      <trkpt lat="45.97341" lon="6.73895">
        <ele>2147</ele>
        <time>2017-03-30T11:29:10Z</time>
      </trkpt>
      <trkpt lat="45.97343" lon="6.73881">
        <ele>2149</ele>
        <time>2017-03-30T11:29:20Z</time>
      </trkpt>
      <trkpt lat="45.97343" lon="6.73876">
        <ele>2149</ele>
        <time>2017-03-30T11:29:24Z</time>
      </trkpt>
      <trkpt lat="45.97347" lon="6.73868">
        <ele>2149</ele>
        <time>2017-03-30T11:29:29Z</time>
      </trkpt>
      <trkpt lat="45.97354" lon="6.73853">
        <ele>2149</ele>
        <time>2017-03-30T11:29:41Z</time>
      </trkpt>
      <trkpt lat="45.97357" lon="6.73832">
        <ele>2156</ele>
        <time>2017-03-30T11:30:02Z</time>
      </trkpt>
      <trkpt lat="45.9736" lon="6.73819">
        <ele>2156</ele>
        <time>2017-03-30T11:30:12Z</time>
      </trkpt>
      <trkpt lat="45.97364" lon="6.73812">
        <ele>2156</ele>
        <time>2017-03-30T11:30:20Z</time>
      </trkpt>
      <trkpt lat="45.97373" lon="6.73802">
        <ele>2157</ele>
        <time>2017-03-30T11:30:39Z</time>
      </trkpt>
      <trkpt lat="45.97379" lon="6.738">
        <ele>2158</ele>
        <time>2017-03-30T11:30:47Z</time>
      </trkpt>
      <trkpt lat="45.97382" lon="6.73798">
        <ele>2159</ele>
        <time>2017-03-30T11:30:53Z</time>
      </trkpt>
      <trkpt lat="45.97384" lon="6.73794">
        <ele>2160</ele>
        <time>2017-03-30T11:30:58Z</time>
      </trkpt>
      <trkpt lat="45.97385" lon="6.73789">
        <ele>2160</ele>
        <time>2017-03-30T11:31:04Z</time>
      </trkpt>
      <trkpt lat="45.97384" lon="6.73784">
        <ele>2162</ele>
        <time>2017-03-30T11:31:10Z</time>
      </trkpt>
      <trkpt lat="45.97381" lon="6.73777">
        <ele>2163</ele>
        <time>2017-03-30T11:31:20Z</time>
      </trkpt>
      <trkpt lat="45.97375" lon="6.73767">
        <ele>2165</ele>
        <time>2017-03-30T11:31:35Z</time>
      </trkpt>
      <trkpt lat="45.97374" lon="6.73763">
        <ele>2167</ele>
        <time>2017-03-30T11:31:41Z</time>
      </trkpt>
      <trkpt lat="45.97376" lon="6.73759">
        <ele>2167</ele>
        <time>2017-03-30T11:31:47Z</time>
      </trkpt>
      <trkpt lat="45.97383" lon="6.73746">
        <ele>2171</ele>
        <time>2017-03-30T11:32:10Z</time>
      </trkpt>
      <trkpt lat="45.97389" lon="6.73742">
        <ele>2171</ele>
        <time>2017-03-30T11:32:21Z</time>
      </trkpt>
      <trkpt lat="45.97396" lon="6.73734">
        <ele>2173</ele>
        <time>2017-03-30T11:32:34Z</time>
      </trkpt>
      <trkpt lat="45.97397" lon="6.7373">
        <ele>2174</ele>
        <time>2017-03-30T11:32:39Z</time>
      </trkpt>
      <trkpt lat="45.97398" lon="6.73726">
        <ele>2174</ele>
        <time>2017-03-30T11:32:45Z</time>
      </trkpt>
      <trkpt lat="45.97396" lon="6.73718">
        <ele>2177</ele>
        <time>2017-03-30T11:32:56Z</time>
      </trkpt>
      <trkpt lat="45.97394" lon="6.73715">
        <ele>2178</ele>
        <time>2017-03-30T11:33:01Z</time>
      </trkpt>
      <trkpt lat="45.97394" lon="6.73711">
        <ele>2179</ele>
        <time>2017-03-30T11:33:05Z</time>
      </trkpt>
      <trkpt lat="45.97395" lon="6.73707">
        <ele>2181</ele>
        <time>2017-03-30T11:33:11Z</time>
      </trkpt>
      <trkpt lat="45.97399" lon="6.73701">
        <ele>2181</ele>
        <time>2017-03-30T11:33:23Z</time>
      </trkpt>
      <trkpt lat="45.97401" lon="6.73693">
        <ele>2184</ele>
        <time>2017-03-30T11:33:35Z</time>
      </trkpt>
      <trkpt lat="45.97402" lon="6.73689">
        <ele>2184</ele>
        <time>2017-03-30T11:33:40Z</time>
      </trkpt>
      <trkpt lat="45.97401" lon="6.73686">
        <ele>2184</ele>
        <time>2017-03-30T11:33:45Z</time>
      </trkpt>
      <trkpt lat="45.97407" lon="6.73669">
        <ele>2189</ele>
        <time>2017-03-30T11:34:07Z</time>
      </trkpt>
      <trkpt lat="45.97411" lon="6.73663">
        <ele>2191</ele>
        <time>2017-03-30T11:34:19Z</time>
      </trkpt>
      <trkpt lat="45.97412" lon="6.73655">
        <ele>2193</ele>
        <time>2017-03-30T11:34:26Z</time>
      </trkpt>
      <trkpt lat="45.97412" lon="6.73602">
        <ele>2185</ele>
        <time>2017-03-30T11:34:47Z</time>
      </trkpt>
      <trkpt lat="45.97415" lon="6.73579">
        <ele>2184</ele>
        <time>2017-03-30T11:35:00Z</time>
      </trkpt>
      <trkpt lat="45.97423" lon="6.73562">
        <ele>2188</ele>
        <time>2017-03-30T11:35:17Z</time>
      </trkpt>
      <trkpt lat="45.97423" lon="6.73559">
        <ele>2191</ele>
        <time>2017-03-30T11:37:07Z</time>
      </trkpt>
      <trkpt lat="45.97429" lon="6.73561">
        <ele>2191</ele>
        <time>2017-03-30T11:39:36Z</time>
      </trkpt>
      <trkpt lat="45.97431" lon="6.73555">
        <ele>2191</ele>
        <time>2017-03-30T11:39:59Z</time>
      </trkpt>
      <trkpt lat="45.97437" lon="6.73532">
        <ele>2196</ele>
        <time>2017-03-30T11:40:11Z</time>
      </trkpt>
      <trkpt lat="45.97441" lon="6.73519">
        <ele>2193</ele>
        <time>2017-03-30T11:40:17Z</time>
      </trkpt>
      <trkpt lat="45.9744" lon="6.73515">
        <ele>2192</ele>
        <time>2017-03-30T11:40:21Z</time>
      </trkpt>
      <trkpt lat="45.97444" lon="6.73504">
        <ele>2191</ele>
        <time>2017-03-30T11:40:33Z</time>
      </trkpt>
      <trkpt lat="45.9746" lon="6.7348">
        <ele>2195</ele>
        <time>2017-03-30T11:41:03Z</time>
      </trkpt>
      <trkpt lat="45.97464" lon="6.73479">
        <ele>2195</ele>
        <time>2017-03-30T11:41:07Z</time>
      </trkpt>
      <trkpt lat="45.97479" lon="6.73467">
        <ele>2195</ele>
        <time>2017-03-30T11:41:27Z</time>
      </trkpt>
      <trkpt lat="45.97506" lon="6.73445">
        <ele>2199</ele>
        <time>2017-03-30T11:42:00Z</time>
      </trkpt>
      <trkpt lat="45.97514" lon="6.73436">
        <ele>2198</ele>
        <time>2017-03-30T11:42:10Z</time>
      </trkpt>
      <trkpt lat="45.97518" lon="6.73427">
        <ele>2197</ele>
        <time>2017-03-30T11:42:15Z</time>
      </trkpt>
      <trkpt lat="45.97523" lon="6.73421">
        <ele>2199</ele>
        <time>2017-03-30T11:42:22Z</time>
      </trkpt>
      <trkpt lat="45.97542" lon="6.73385">
        <ele>2197</ele>
        <time>2017-03-30T11:42:53Z</time>
      </trkpt>
      <trkpt lat="45.97547" lon="6.73378">
        <ele>2201</ele>
        <time>2017-03-30T11:43:05Z</time>
      </trkpt>
      <trkpt lat="45.97553" lon="6.73361">
        <ele>2196</ele>
        <time>2017-03-30T11:43:16Z</time>
      </trkpt>
      <trkpt lat="45.97558" lon="6.73356">
        <ele>2197</ele>
        <time>2017-03-30T11:43:24Z</time>
      </trkpt>
      <trkpt lat="45.97564" lon="6.73351">
        <ele>2197</ele>
        <time>2017-03-30T11:43:34Z</time>
      </trkpt>
      <trkpt lat="45.97568" lon="6.73352">
        <ele>2197</ele>
        <time>2017-03-30T11:43:38Z</time>
      </trkpt>
      <trkpt lat="45.97571" lon="6.73349">
        <ele>2196</ele>
        <time>2017-03-30T11:43:43Z</time>
      </trkpt>
      <trkpt lat="45.97579" lon="6.73343">
        <ele>2205</ele>
        <time>2017-03-30T11:43:56Z</time>
      </trkpt>
      <trkpt lat="45.97582" lon="6.73341">
        <ele>2205</ele>
        <time>2017-03-30T11:44:02Z</time>
      </trkpt>
      <trkpt lat="45.97596" lon="6.73326">
        <ele>2200</ele>
        <time>2017-03-30T11:44:21Z</time>
      </trkpt>
      <trkpt lat="45.97617" lon="6.73306">
        <ele>2210</ele>
        <time>2017-03-30T11:44:51Z</time>
      </trkpt>
      <trkpt lat="45.9762" lon="6.73305">
        <ele>2210</ele>
        <time>2017-03-30T11:44:54Z</time>
      </trkpt>
      <trkpt lat="45.9764" lon="6.73292">
        <ele>2211</ele>
        <time>2017-03-30T11:45:24Z</time>
      </trkpt>
      <trkpt lat="45.97643" lon="6.73292">
        <ele>2210</ele>
        <time>2017-03-30T11:45:27Z</time>
      </trkpt>
      <trkpt lat="45.97646" lon="6.73291">
        <ele>2210</ele>
        <time>2017-03-30T11:45:32Z</time>
      </trkpt>
      <trkpt lat="45.97655" lon="6.73287">
        <ele>2210</ele>
        <time>2017-03-30T11:45:42Z</time>
      </trkpt>
      <trkpt lat="45.97669" lon="6.73284">
        <ele>2214</ele>
        <time>2017-03-30T11:45:56Z</time>
      </trkpt>
      <trkpt lat="45.97675" lon="6.7329">
        <ele>2212</ele>
        <time>2017-03-30T11:46:05Z</time>
      </trkpt>
      <trkpt lat="45.97679" lon="6.73288">
        <ele>2213</ele>
        <time>2017-03-30T11:46:10Z</time>
      </trkpt>
      <trkpt lat="45.97682" lon="6.73286">
        <ele>2214</ele>
        <time>2017-03-30T11:46:16Z</time>
      </trkpt>
      <trkpt lat="45.97695" lon="6.73273">
        <ele>2217</ele>
        <time>2017-03-30T11:46:39Z</time>
      </trkpt>
      <trkpt lat="45.977" lon="6.73265">
        <ele>2222</ele>
        <time>2017-03-30T11:46:49Z</time>
      </trkpt>
      <trkpt lat="45.97706" lon="6.73259">
        <ele>2223</ele>
        <time>2017-03-30T11:46:59Z</time>
      </trkpt>
      <trkpt lat="45.97709" lon="6.73253">
        <ele>2224</ele>
        <time>2017-03-30T11:47:07Z</time>
      </trkpt>
      <trkpt lat="45.9772" lon="6.73244">
        <ele>2229</ele>
        <time>2017-03-30T11:47:34Z</time>
      </trkpt>
      <trkpt lat="45.97726" lon="6.73228">
        <ele>2230</ele>
        <time>2017-03-30T11:47:52Z</time>
      </trkpt>
      <trkpt lat="45.97736" lon="6.73218">
        <ele>2234</ele>
        <time>2017-03-30T11:48:13Z</time>
      </trkpt>
      <trkpt lat="45.97743" lon="6.732">
        <ele>2234</ele>
        <time>2017-03-30T11:48:36Z</time>
      </trkpt>
      <trkpt lat="45.97747" lon="6.73197">
        <ele>2239</ele>
        <time>2017-03-30T11:48:40Z</time>
      </trkpt>
      <trkpt lat="45.97749" lon="6.73192">
        <ele>2238</ele>
        <time>2017-03-30T11:48:48Z</time>
      </trkpt>
      <trkpt lat="45.97747" lon="6.73187">
        <ele>2236</ele>
        <time>2017-03-30T11:48:55Z</time>
      </trkpt>
      <trkpt lat="45.97754" lon="6.73184">
        <ele>2239</ele>
        <time>2017-03-30T11:49:06Z</time>
      </trkpt>
      <trkpt lat="45.97755" lon="6.73178">
        <ele>2239</ele>
        <time>2017-03-30T11:49:12Z</time>
      </trkpt>
      <trkpt lat="45.9776" lon="6.73171">
        <ele>2240</ele>
        <time>2017-03-30T11:49:21Z</time>
      </trkpt>
      <trkpt lat="45.97762" lon="6.73166">
        <ele>2246</ele>
        <time>2017-03-30T11:49:28Z</time>
      </trkpt>
      <trkpt lat="45.97765" lon="6.73163">
        <ele>2248</ele>
        <time>2017-03-30T11:49:35Z</time>
      </trkpt>
      <trkpt lat="45.97767" lon="6.73159">
        <ele>2251</ele>
        <time>2017-03-30T11:49:40Z</time>
      </trkpt>
      <trkpt lat="45.97772" lon="6.73137">
        <ele>2253</ele>
        <time>2017-03-30T11:50:06Z</time>
      </trkpt>
      <trkpt lat="45.97773" lon="6.73131">
        <ele>2251</ele>
        <time>2017-03-30T11:50:10Z</time>
      </trkpt>
      <trkpt lat="45.97775" lon="6.73113">
        <ele>2249</ele>
        <time>2017-03-30T11:50:28Z</time>
      </trkpt>
      <trkpt lat="45.97779" lon="6.7311">
        <ele>2249</ele>
        <time>2017-03-30T11:50:33Z</time>
      </trkpt>
      <trkpt lat="45.97779" lon="6.73104">
        <ele>2251</ele>
        <time>2017-03-30T11:50:38Z</time>
      </trkpt>
      <trkpt lat="45.97782" lon="6.73102">
        <ele>2251</ele>
        <time>2017-03-30T11:50:44Z</time>
      </trkpt>
      <trkpt lat="45.97783" lon="6.73096">
        <ele>2253</ele>
        <time>2017-03-30T11:50:48Z</time>
      </trkpt>
      <trkpt lat="45.97783" lon="6.73091">
        <ele>2252</ele>
        <time>2017-03-30T11:50:53Z</time>
      </trkpt>
      <trkpt lat="45.97786" lon="6.73087">
        <ele>2253</ele>
        <time>2017-03-30T11:50:58Z</time>
      </trkpt>
      <trkpt lat="45.97786" lon="6.73076">
        <ele>2255</ele>
        <time>2017-03-30T11:51:08Z</time>
      </trkpt>
      <trkpt lat="45.97786" lon="6.73071">
        <ele>2255</ele>
        <time>2017-03-30T11:51:12Z</time>
      </trkpt>
      <trkpt lat="45.97791" lon="6.73062">
        <ele>2253</ele>
        <time>2017-03-30T11:51:20Z</time>
      </trkpt>
      <trkpt lat="45.97793" lon="6.73057">
        <ele>2248</ele>
        <time>2017-03-30T11:51:32Z</time>
      </trkpt>
      <trkpt lat="45.97795" lon="6.73053">
        <ele>2256</ele>
        <time>2017-03-30T11:52:35Z</time>
      </trkpt>
      <trkpt lat="45.97795" lon="6.73048">
        <ele>2257</ele>
        <time>2017-03-30T11:53:22Z</time>
      </trkpt>
      <trkpt lat="45.97794" lon="6.73043">
        <ele>2254</ele>
        <time>2017-03-30T11:53:29Z</time>
      </trkpt>
      <trkpt lat="45.97796" lon="6.73038">
        <ele>2255</ele>
        <time>2017-03-30T11:53:37Z</time>
      </trkpt>
      <trkpt lat="45.978" lon="6.73035">
        <ele>2256</ele>
        <time>2017-03-30T11:53:40Z</time>
      </trkpt>
      <trkpt lat="45.97803" lon="6.73027">
        <ele>2262</ele>
        <time>2017-03-30T11:53:53Z</time>
      </trkpt>
      <trkpt lat="45.97799" lon="6.73016">
        <ele>2261</ele>
        <time>2017-03-30T11:54:02Z</time>
      </trkpt>
      <trkpt lat="45.978" lon="6.73011">
        <ele>2260</ele>
        <time>2017-03-30T11:54:08Z</time>
      </trkpt>
      <trkpt lat="45.97803" lon="6.73001">
        <ele>2263</ele>
        <time>2017-03-30T11:54:19Z</time>
      </trkpt>
      <trkpt lat="45.97803" lon="6.72992">
        <ele>2266</ele>
        <time>2017-03-30T11:54:31Z</time>
      </trkpt>
      <trkpt lat="45.97807" lon="6.72974">
        <ele>2270</ele>
        <time>2017-03-30T11:54:53Z</time>
      </trkpt>
      <trkpt lat="45.97803" lon="6.72964">
        <ele>2269</ele>
        <time>2017-03-30T11:55:10Z</time>
      </trkpt>
      <trkpt lat="45.97804" lon="6.72955">
        <ele>2268</ele>
        <time>2017-03-30T11:55:21Z</time>
      </trkpt>
      <trkpt lat="45.97806" lon="6.72948">
        <ele>2274</ele>
        <time>2017-03-30T11:55:25Z</time>
      </trkpt>
      <trkpt lat="45.97803" lon="6.72939">
        <ele>2274</ele>
        <time>2017-03-30T11:55:37Z</time>
      </trkpt>
      <trkpt lat="45.97808" lon="6.7294">
        <ele>2275</ele>
        <time>2017-03-30T11:55:39Z</time>
      </trkpt>
      <trkpt lat="45.97812" lon="6.72936">
        <ele>2280</ele>
        <time>2017-03-30T11:55:46Z</time>
      </trkpt>
      <trkpt lat="45.97814" lon="6.72932">
        <ele>2284</ele>
        <time>2017-03-30T11:55:52Z</time>
      </trkpt>
      <trkpt lat="45.97814" lon="6.72932">
        <ele>2293</ele>
        <time>2017-03-30T11:57:51Z</time>
      </trkpt>
      <trkpt lat="45.97813" lon="6.72927">
        <ele>2290</ele>
        <time>2017-03-30T11:58:42Z</time>
      </trkpt>
      <trkpt lat="45.9781" lon="6.72921">
        <ele>2289</ele>
        <time>2017-03-30T11:59:05Z</time>
      </trkpt>
      <trkpt lat="45.97814" lon="6.72919">
        <ele>2287</ele>
        <time>2017-03-30T11:59:12Z</time>
      </trkpt>
      <trkpt lat="45.97812" lon="6.72914">
        <ele>2288</ele>
        <time>2017-03-30T11:59:18Z</time>
      </trkpt>
      <trkpt lat="45.9782" lon="6.729">
        <ele>2292</ele>
        <time>2017-03-30T11:59:42Z</time>
      </trkpt>
      <trkpt lat="45.97829" lon="6.72898">
        <ele>2296</ele>
        <time>2017-03-30T11:59:59Z</time>
      </trkpt>
      <trkpt lat="45.97831" lon="6.72893">
        <ele>2298</ele>
        <time>2017-03-30T12:00:08Z</time>
      </trkpt>
      <trkpt lat="45.97834" lon="6.7289">
        <ele>2299</ele>
        <time>2017-03-30T12:00:13Z</time>
      </trkpt>
      <trkpt lat="45.97838" lon="6.72888">
        <ele>2300</ele>
        <time>2017-03-30T12:00:20Z</time>
      </trkpt>
      <trkpt lat="45.97849" lon="6.72881">
        <ele>2300</ele>
        <time>2017-03-30T12:00:51Z</time>
      </trkpt>
      <trkpt lat="45.97853" lon="6.72881">
        <ele>2300</ele>
        <time>2017-03-30T12:00:56Z</time>
      </trkpt>
      <trkpt lat="45.97861" lon="6.72877">
        <ele>2301</ele>
        <time>2017-03-30T12:01:09Z</time>
      </trkpt>
      <trkpt lat="45.97863" lon="6.72873">
        <ele>2302</ele>
        <time>2017-03-30T12:01:22Z</time>
      </trkpt>
      <trkpt lat="45.97866" lon="6.72869">
        <ele>2306</ele>
        <time>2017-03-30T12:01:32Z</time>
      </trkpt>
      <trkpt lat="45.97868" lon="6.72864">
        <ele>2304</ele>
        <time>2017-03-30T12:01:40Z</time>
      </trkpt>
      <trkpt lat="45.97872" lon="6.72864">
        <ele>2303</ele>
        <time>2017-03-30T12:01:44Z</time>
      </trkpt>
      <trkpt lat="45.97874" lon="6.72859">
        <ele>2305</ele>
        <time>2017-03-30T12:01:54Z</time>
      </trkpt>
      <trkpt lat="45.97877" lon="6.72857">
        <ele>2307</ele>
        <time>2017-03-30T12:02:03Z</time>
      </trkpt>
      <trkpt lat="45.97879" lon="6.72852">
        <ele>2308</ele>
        <time>2017-03-30T12:02:11Z</time>
      </trkpt>
      <trkpt lat="45.97882" lon="6.72849">
        <ele>2312</ele>
        <time>2017-03-30T12:02:19Z</time>
      </trkpt>
      <trkpt lat="45.97885" lon="6.7284">
        <ele>2319</ele>
        <time>2017-03-30T12:02:31Z</time>
      </trkpt>
      <trkpt lat="45.97888" lon="6.72837">
        <ele>2324</ele>
        <time>2017-03-30T12:02:37Z</time>
      </trkpt>
      <trkpt lat="45.97887" lon="6.72832">
        <ele>2325</ele>
        <time>2017-03-30T12:02:41Z</time>
      </trkpt>
      <trkpt lat="45.97891" lon="6.72822">
        <ele>2325</ele>
        <time>2017-03-30T12:03:00Z</time>
      </trkpt>
      <trkpt lat="45.97888" lon="6.72818">
        <ele>2324</ele>
        <time>2017-03-30T12:03:06Z</time>
      </trkpt>
      <trkpt lat="45.97887" lon="6.72803">
        <ele>2319</ele>
        <time>2017-03-30T12:03:24Z</time>
      </trkpt>
      <trkpt lat="45.9789" lon="6.72802">
        <ele>2320</ele>
        <time>2017-03-30T12:03:29Z</time>
      </trkpt>
      <trkpt lat="45.97893" lon="6.72797">
        <ele>2324</ele>
        <time>2017-03-30T12:03:37Z</time>
      </trkpt>
      <trkpt lat="45.97892" lon="6.72791">
        <ele>2322</ele>
        <time>2017-03-30T12:03:44Z</time>
      </trkpt>
      <trkpt lat="45.97885" lon="6.72779">
        <ele>2321</ele>
        <time>2017-03-30T12:03:57Z</time>
      </trkpt>
      <trkpt lat="45.97884" lon="6.72766">
        <ele>2326</ele>
        <time>2017-03-30T12:04:28Z</time>
      </trkpt>
      <trkpt lat="45.97884" lon="6.72758">
        <ele>2328</ele>
        <time>2017-03-30T12:04:40Z</time>
      </trkpt>
      <trkpt lat="45.97889" lon="6.72754">
        <ele>2334</ele>
        <time>2017-03-30T12:04:51Z</time>
      </trkpt>
      <trkpt lat="45.97893" lon="6.72754">
        <ele>2335</ele>
        <time>2017-03-30T12:04:57Z</time>
      </trkpt>
      <trkpt lat="45.97892" lon="6.72747">
        <ele>2333</ele>
        <time>2017-03-30T12:05:09Z</time>
      </trkpt>
      <trkpt lat="45.97894" lon="6.72743">
        <ele>2332</ele>
        <time>2017-03-30T12:05:14Z</time>
      </trkpt>
      <trkpt lat="45.97898" lon="6.72739">
        <ele>2333</ele>
        <time>2017-03-30T12:05:21Z</time>
      </trkpt>
      <trkpt lat="45.97899" lon="6.72733">
        <ele>2341</ele>
        <time>2017-03-30T12:05:37Z</time>
      </trkpt>
      <trkpt lat="45.97897" lon="6.72729">
        <ele>2344</ele>
        <time>2017-03-30T12:05:42Z</time>
      </trkpt>
      <trkpt lat="45.97899" lon="6.72722">
        <ele>2343</ele>
        <time>2017-03-30T12:05:53Z</time>
      </trkpt>
      <trkpt lat="45.97897" lon="6.72716">
        <ele>2342</ele>
        <time>2017-03-30T12:05:57Z</time>
      </trkpt>
      <trkpt lat="45.97899" lon="6.72712">
        <ele>2345</ele>
        <time>2017-03-30T12:06:09Z</time>
      </trkpt>
      <trkpt lat="45.97897" lon="6.72708">
        <ele>2345</ele>
        <time>2017-03-30T12:06:13Z</time>
      </trkpt>
      <trkpt lat="45.97892" lon="6.72704">
        <ele>2347</ele>
        <time>2017-03-30T12:06:22Z</time>
      </trkpt>
      <trkpt lat="45.97884" lon="6.72697">
        <ele>2349</ele>
        <time>2017-03-30T12:06:44Z</time>
      </trkpt>
      <trkpt lat="45.97878" lon="6.72694">
        <ele>2352</ele>
        <time>2017-03-30T12:06:57Z</time>
      </trkpt>
      <trkpt lat="45.97865" lon="6.72679">
        <ele>2360</ele>
        <time>2017-03-30T12:07:44Z</time>
      </trkpt>
      <trkpt lat="45.97867" lon="6.72673">
        <ele>2359</ele>
        <time>2017-03-30T12:07:49Z</time>
      </trkpt>
      <trkpt lat="45.97868" lon="6.72668">
        <ele>2358</ele>
        <time>2017-03-30T12:07:53Z</time>
      </trkpt>
      <trkpt lat="45.97872" lon="6.72668">
        <ele>2360</ele>
        <time>2017-03-30T12:07:56Z</time>
      </trkpt>
      <trkpt lat="45.97875" lon="6.72664">
        <ele>2365</ele>
        <time>2017-03-30T12:08:02Z</time>
      </trkpt>
      <trkpt lat="45.97874" lon="6.72658">
        <ele>2365</ele>
        <time>2017-03-30T12:08:12Z</time>
      </trkpt>
      <trkpt lat="45.97878" lon="6.72657">
        <ele>2364</ele>
        <time>2017-03-30T12:08:16Z</time>
      </trkpt>
      <trkpt lat="45.97882" lon="6.7265">
        <ele>2364</ele>
        <time>2017-03-30T12:08:25Z</time>
      </trkpt>
      <trkpt lat="45.97885" lon="6.72641">
        <ele>2375</ele>
        <time>2017-03-30T12:08:35Z</time>
      </trkpt>
      <trkpt lat="45.97898" lon="6.72636">
        <ele>2376</ele>
        <time>2017-03-30T12:08:55Z</time>
      </trkpt>
      <trkpt lat="45.9792" lon="6.72628">
        <ele>2379</ele>
        <time>2017-03-30T12:09:28Z</time>
      </trkpt>
      <trkpt lat="45.97922" lon="6.72627">
        <ele>2380</ele>
        <time>2017-03-30T12:09:34Z</time>
      </trkpt>
      <trkpt lat="45.97928" lon="6.72622">
        <ele>2378</ele>
        <time>2017-03-30T12:09:40Z</time>
      </trkpt>
      <trkpt lat="45.97954" lon="6.72615">
        <ele>2386</ele>
        <time>2017-03-30T12:10:07Z</time>
      </trkpt>
      <trkpt lat="45.97967" lon="6.72612">
        <ele>2383</ele>
        <time>2017-03-30T12:10:23Z</time>
      </trkpt>
      <trkpt lat="45.97974" lon="6.72608">
        <ele>2382</ele>
        <time>2017-03-30T12:10:36Z</time>
      </trkpt>
      <trkpt lat="45.97993" lon="6.726">
        <ele>2386</ele>
        <time>2017-03-30T12:11:06Z</time>
      </trkpt>
      <trkpt lat="45.97997" lon="6.7259">
        <ele>2393</ele>
        <time>2017-03-30T12:11:23Z</time>
      </trkpt>
      <trkpt lat="45.98" lon="6.72588">
        <ele>2395</ele>
        <time>2017-03-30T12:11:28Z</time>
      </trkpt>
      <trkpt lat="45.98002" lon="6.72585">
        <ele>2394</ele>
        <time>2017-03-30T12:11:32Z</time>
      </trkpt>
      <trkpt lat="45.98002" lon="6.72581">
        <ele>2395</ele>
        <time>2017-03-30T12:11:41Z</time>
      </trkpt>
      <trkpt lat="45.98004" lon="6.72578">
        <ele>2396</ele>
        <time>2017-03-30T12:11:46Z</time>
      </trkpt>
      <trkpt lat="45.98011" lon="6.72564">
        <ele>2397</ele>
        <time>2017-03-30T12:12:11Z</time>
      </trkpt>
      <trkpt lat="45.98012" lon="6.7256">
        <ele>2398</ele>
        <time>2017-03-30T12:12:15Z</time>
      </trkpt>
      <trkpt lat="45.98011" lon="6.72555">
        <ele>2398</ele>
        <time>2017-03-30T12:12:19Z</time>
      </trkpt>
      <trkpt lat="45.98015" lon="6.72548">
        <ele>2401</ele>
        <time>2017-03-30T12:12:34Z</time>
      </trkpt>
      <trkpt lat="45.98022" lon="6.72545">
        <ele>2406</ele>
        <time>2017-03-30T12:12:43Z</time>
      </trkpt>
      <trkpt lat="45.98025" lon="6.72545">
        <ele>2408</ele>
        <time>2017-03-30T12:12:48Z</time>
      </trkpt>
      <trkpt lat="45.98027" lon="6.72543">
        <ele>2408</ele>
        <time>2017-03-30T12:12:56Z</time>
      </trkpt>
      <trkpt lat="45.9803" lon="6.72541">
        <ele>2409</ele>
        <time>2017-03-30T12:13:02Z</time>
      </trkpt>
      <trkpt lat="45.98032" lon="6.72537">
        <ele>2411</ele>
        <time>2017-03-30T12:13:11Z</time>
      </trkpt>
      <trkpt lat="45.98038" lon="6.72533">
        <ele>2410</ele>
        <time>2017-03-30T12:13:22Z</time>
      </trkpt>
      <trkpt lat="45.98047" lon="6.72526">
        <ele>2409</ele>
        <time>2017-03-30T12:13:39Z</time>
      </trkpt>
      <trkpt lat="45.98064" lon="6.72517">
        <ele>2412</ele>
        <time>2017-03-30T12:14:10Z</time>
      </trkpt>
      <trkpt lat="45.98072" lon="6.72511">
        <ele>2415</ele>
        <time>2017-03-30T12:14:27Z</time>
      </trkpt>
      <trkpt lat="45.98074" lon="6.72506">
        <ele>2417</ele>
        <time>2017-03-30T12:14:31Z</time>
      </trkpt>
      <trkpt lat="45.98076" lon="6.72503">
        <ele>2419</ele>
        <time>2017-03-30T12:14:35Z</time>
      </trkpt>
      <trkpt lat="45.98079" lon="6.72502">
        <ele>2418</ele>
        <time>2017-03-30T12:14:40Z</time>
      </trkpt>
      <trkpt lat="45.98084" lon="6.72496">
        <ele>2417</ele>
        <time>2017-03-30T12:14:51Z</time>
      </trkpt>
      <trkpt lat="45.98088" lon="6.72494">
        <ele>2417</ele>
        <time>2017-03-30T12:14:56Z</time>
      </trkpt>
      <trkpt lat="45.98091" lon="6.72493">
        <ele>2415</ele>
        <time>2017-03-30T12:15:00Z</time>
      </trkpt>
      <trkpt lat="45.98112" lon="6.72478">
        <ele>2414</ele>
        <time>2017-03-30T12:15:36Z</time>
      </trkpt>
      <trkpt lat="45.98114" lon="6.72474">
        <ele>2416</ele>
        <time>2017-03-30T12:15:42Z</time>
      </trkpt>
      <trkpt lat="45.98118" lon="6.72473">
        <ele>2417</ele>
        <time>2017-03-30T12:15:45Z</time>
      </trkpt>
      <trkpt lat="45.98121" lon="6.72471">
        <ele>2418</ele>
        <time>2017-03-30T12:15:50Z</time>
      </trkpt>
      <trkpt lat="45.98122" lon="6.72467">
        <ele>2421</ele>
        <time>2017-03-30T12:16:06Z</time>
      </trkpt>
      <trkpt lat="45.98122" lon="6.72447">
        <ele>2429</ele>
        <time>2017-03-30T12:16:24Z</time>
      </trkpt>
      <trkpt lat="45.98119" lon="6.7242">
        <ele>2433</ele>
        <time>2017-03-30T12:16:47Z</time>
      </trkpt>
      <trkpt lat="45.9812" lon="6.72411">
        <ele>2435</ele>
        <time>2017-03-30T12:16:59Z</time>
      </trkpt>
      <trkpt lat="45.98119" lon="6.72406">
        <ele>2434</ele>
        <time>2017-03-30T12:17:03Z</time>
      </trkpt>
      <trkpt lat="45.98118" lon="6.72402">
        <ele>2434</ele>
        <time>2017-03-30T12:17:05Z</time>
      </trkpt>
      <trkpt lat="45.98119" lon="6.72398">
        <ele>2435</ele>
        <time>2017-03-30T12:17:11Z</time>
      </trkpt>
      <trkpt lat="45.98121" lon="6.72368">
        <ele>2440</ele>
        <time>2017-03-30T12:17:46Z</time>
      </trkpt>
      <trkpt lat="45.98119" lon="6.72353">
        <ele>2440</ele>
        <time>2017-03-30T12:18:05Z</time>
      </trkpt>
      <trkpt lat="45.9812" lon="6.72349">
        <ele>2441</ele>
        <time>2017-03-30T12:18:11Z</time>
      </trkpt>
      <trkpt lat="45.98121" lon="6.72345">
        <ele>2441</ele>
        <time>2017-03-30T12:18:17Z</time>
      </trkpt>
      <trkpt lat="45.98119" lon="6.72341">
        <ele>2441</ele>
        <time>2017-03-30T12:18:22Z</time>
      </trkpt>
      <trkpt lat="45.98117" lon="6.72334">
        <ele>2445</ele>
        <time>2017-03-30T12:18:29Z</time>
      </trkpt>
      <trkpt lat="45.98115" lon="6.72331">
        <ele>2445</ele>
        <time>2017-03-30T12:18:33Z</time>
      </trkpt>
      <trkpt lat="45.98114" lon="6.72328">
        <ele>2446</ele>
        <time>2017-03-30T12:18:38Z</time>
      </trkpt>
      <trkpt lat="45.98112" lon="6.72323">
        <ele>2448</ele>
        <time>2017-03-30T12:18:42Z</time>
      </trkpt>
      <trkpt lat="45.98113" lon="6.72319">
        <ele>2450</ele>
        <time>2017-03-30T12:18:46Z</time>
      </trkpt>
      <trkpt lat="45.98112" lon="6.72314">
        <ele>2449</ele>
        <time>2017-03-30T12:18:50Z</time>
      </trkpt>
      <trkpt lat="45.9811" lon="6.7231">
        <ele>2449</ele>
        <time>2017-03-30T12:18:55Z</time>
      </trkpt>
      <trkpt lat="45.98113" lon="6.72265">
        <ele>2447</ele>
        <time>2017-03-30T12:19:27Z</time>
      </trkpt>
      <trkpt lat="45.98112" lon="6.7226">
        <ele>2446</ele>
        <time>2017-03-30T12:19:32Z</time>
      </trkpt>
      <trkpt lat="45.98113" lon="6.72247">
        <ele>2448</ele>
        <time>2017-03-30T12:19:46Z</time>
      </trkpt>
      <trkpt lat="45.98114" lon="6.72233">
        <ele>2448</ele>
        <time>2017-03-30T12:19:57Z</time>
      </trkpt>
      <trkpt lat="45.98116" lon="6.7223">
        <ele>2450</ele>
        <time>2017-03-30T12:21:49Z</time>
      </trkpt>
      <trkpt lat="45.98114" lon="6.72229">
        <ele>2450</ele>
        <time>2017-03-30T12:23:19Z</time>
      </trkpt>
      <trkpt lat="45.98116" lon="6.72225">
        <ele>2450</ele>
        <time>2017-03-30T12:23:38Z</time>
      </trkpt>
      <trkpt lat="45.98129" lon="6.72218">
        <ele>2451</ele>
        <time>2017-03-30T12:23:55Z</time>
      </trkpt>
      <trkpt lat="45.98134" lon="6.72211">
        <ele>2451</ele>
        <time>2017-03-30T12:24:05Z</time>
      </trkpt>
      <trkpt lat="45.98134" lon="6.72206">
        <ele>2451</ele>
        <time>2017-03-30T12:24:08Z</time>
      </trkpt>
      <trkpt lat="45.98137" lon="6.72203">
        <ele>2453</ele>
        <time>2017-03-30T12:24:11Z</time>
      </trkpt>
      <trkpt lat="45.98138" lon="6.72199">
        <ele>2454</ele>
        <time>2017-03-30T12:24:14Z</time>
      </trkpt>
      <trkpt lat="45.98144" lon="6.72193">
        <ele>2454</ele>
        <time>2017-03-30T12:24:19Z</time>
      </trkpt>
      <trkpt lat="45.98149" lon="6.72183">
        <ele>2452</ele>
        <time>2017-03-30T12:24:26Z</time>
      </trkpt>
      <trkpt lat="45.98157" lon="6.72176">
        <ele>2448</ele>
        <time>2017-03-30T12:24:35Z</time>
      </trkpt>
      <trkpt lat="45.98162" lon="6.72165">
        <ele>2449</ele>
        <time>2017-03-30T12:24:46Z</time>
      </trkpt>
      <trkpt lat="45.9817" lon="6.72147">
        <ele>2450</ele>
        <time>2017-03-30T12:24:59Z</time>
      </trkpt>
      <trkpt lat="45.98174" lon="6.72139">
        <ele>2449</ele>
        <time>2017-03-30T12:25:07Z</time>
      </trkpt>
      <trkpt lat="45.98176" lon="6.72137">
        <ele>2447</ele>
        <time>2017-03-30T12:25:10Z</time>
      </trkpt>
      <trkpt lat="45.98178" lon="6.72129">
        <ele>2448</ele>
        <time>2017-03-30T12:25:17Z</time>
      </trkpt>
      <trkpt lat="45.98181" lon="6.72126">
        <ele>2447</ele>
        <time>2017-03-30T12:25:19Z</time>
      </trkpt>
      <trkpt lat="45.98184" lon="6.72117">
        <ele>2447</ele>
        <time>2017-03-30T12:25:27Z</time>
      </trkpt>
      <trkpt lat="45.98189" lon="6.72106">
        <ele>2450</ele>
        <time>2017-03-30T12:25:42Z</time>
      </trkpt>
      <trkpt lat="45.98192" lon="6.72104">
        <ele>2453</ele>
        <time>2017-03-30T12:26:19Z</time>
      </trkpt>
      <trkpt lat="45.98192" lon="6.72103">
        <ele>2457</ele>
        <time>2017-03-30T12:28:32Z</time>
      </trkpt>
      <trkpt lat="45.98192" lon="6.72099">
        <ele>2455</ele>
        <time>2017-03-30T12:31:44Z</time>
      </trkpt>
      <trkpt lat="45.9819" lon="6.72096">
        <ele>2456</ele>
        <time>2017-03-30T12:31:51Z</time>
      </trkpt>
      <trkpt lat="45.98187" lon="6.72097">
        <ele>2456</ele>
        <time>2017-03-30T12:32:51Z</time>
      </trkpt>
      <trkpt lat="45.98187" lon="6.72101">
        <ele>2451</ele>
        <time>2017-03-30T12:33:46Z</time>
      </trkpt>
      <trkpt lat="45.9819" lon="6.72101">
        <ele>2449</ele>
        <time>2017-03-30T12:43:39Z</time>
      </trkpt>
      <trkpt lat="45.98189" lon="6.72102">
        <ele>2455</ele>
        <time>2017-03-30T12:48:52Z</time>
      </trkpt>
      <trkpt lat="45.98189" lon="6.72096">
        <ele>2455</ele>
        <time>2017-03-30T12:50:08Z</time>
      </trkpt>
      <trkpt lat="45.9819" lon="6.72092">
        <ele>2453</ele>
        <time>2017-03-30T12:50:24Z</time>
      </trkpt>
      <trkpt lat="45.98186" lon="6.72084">
        <ele>2452</ele>
        <time>2017-03-30T12:50:27Z</time>
      </trkpt>
      <trkpt lat="45.98185" lon="6.7208">
        <ele>2451</ele>
        <time>2017-03-30T12:50:28Z</time>
      </trkpt>
      <trkpt lat="45.98186" lon="6.72076">
        <ele>2451</ele>
        <time>2017-03-30T12:50:29Z</time>
      </trkpt>
      <trkpt lat="45.98184" lon="6.72065">
        <ele>2450</ele>
        <time>2017-03-30T12:50:32Z</time>
      </trkpt>
      <trkpt lat="45.98179" lon="6.72049">
        <ele>2447</ele>
        <time>2017-03-30T12:50:34Z</time>
      </trkpt>
      <trkpt lat="45.9818" lon="6.7204">
        <ele>2447</ele>
        <time>2017-03-30T12:50:35Z</time>
      </trkpt>
      <trkpt lat="45.98176" lon="6.72033">
        <ele>2445</ele>
        <time>2017-03-30T12:50:36Z</time>
      </trkpt>
      <trkpt lat="45.9817" lon="6.72028">
        <ele>2443</ele>
        <time>2017-03-30T12:50:37Z</time>
      </trkpt>
      <trkpt lat="45.98167" lon="6.7202">
        <ele>2442</ele>
        <time>2017-03-30T12:50:38Z</time>
      </trkpt>
      <trkpt lat="45.98165" lon="6.72">
        <ele>2438</ele>
        <time>2017-03-30T12:50:40Z</time>
      </trkpt>
      <trkpt lat="45.98163" lon="6.71977">
        <ele>2436</ele>
        <time>2017-03-30T12:50:42Z</time>
      </trkpt>
      <trkpt lat="45.98157" lon="6.7197">
        <ele>2434</ele>
        <time>2017-03-30T12:50:43Z</time>
      </trkpt>
      <trkpt lat="45.98146" lon="6.71959">
        <ele>2431</ele>
        <time>2017-03-30T12:50:45Z</time>
      </trkpt>
      <trkpt lat="45.98145" lon="6.7195">
        <ele>2428</ele>
        <time>2017-03-30T12:50:46Z</time>
      </trkpt>
      <trkpt lat="45.98145" lon="6.71939">
        <ele>2426</ele>
        <time>2017-03-30T12:50:47Z</time>
      </trkpt>
      <trkpt lat="45.9814" lon="6.7193">
        <ele>2424</ele>
        <time>2017-03-30T12:50:48Z</time>
      </trkpt>
      <trkpt lat="45.98134" lon="6.71923">
        <ele>2422</ele>
        <time>2017-03-30T12:50:49Z</time>
      </trkpt>
      <trkpt lat="45.9813" lon="6.71903">
        <ele>2418</ele>
        <time>2017-03-30T12:50:51Z</time>
      </trkpt>
      <trkpt lat="45.98128" lon="6.71892">
        <ele>2417</ele>
        <time>2017-03-30T12:50:52Z</time>
      </trkpt>
      <trkpt lat="45.98123" lon="6.71884">
        <ele>2414</ele>
        <time>2017-03-30T12:50:53Z</time>
      </trkpt>
      <trkpt lat="45.98117" lon="6.71875">
        <ele>2412</ele>
        <time>2017-03-30T12:50:54Z</time>
      </trkpt>
      <trkpt lat="45.98112" lon="6.71848">
        <ele>2408</ele>
        <time>2017-03-30T12:50:56Z</time>
      </trkpt>
      <trkpt lat="45.98097" lon="6.71812">
        <ele>2404</ele>
        <time>2017-03-30T12:50:59Z</time>
      </trkpt>
      <trkpt lat="45.98082" lon="6.71784">
        <ele>2400</ele>
        <time>2017-03-30T12:51:02Z</time>
      </trkpt>
      <trkpt lat="45.9807" lon="6.71766">
        <ele>2396</ele>
        <time>2017-03-30T12:51:04Z</time>
      </trkpt>
      <trkpt lat="45.98052" lon="6.71722">
        <ele>2390</ele>
        <time>2017-03-30T12:51:08Z</time>
      </trkpt>
      <trkpt lat="45.98032" lon="6.71707">
        <ele>2386</ele>
        <time>2017-03-30T12:51:10Z</time>
      </trkpt>
      <trkpt lat="45.9801" lon="6.71669">
        <ele>2381</ele>
        <time>2017-03-30T12:51:14Z</time>
      </trkpt>
      <trkpt lat="45.97973" lon="6.716">
        <ele>2372</ele>
        <time>2017-03-30T12:51:21Z</time>
      </trkpt>
      <trkpt lat="45.97957" lon="6.7157">
        <ele>2370</ele>
        <time>2017-03-30T12:51:25Z</time>
      </trkpt>
      <trkpt lat="45.9795" lon="6.71569">
        <ele>2368</ele>
        <time>2017-03-30T12:51:26Z</time>
      </trkpt>
      <trkpt lat="45.97939" lon="6.71561">
        <ele>2366</ele>
        <time>2017-03-30T12:51:28Z</time>
      </trkpt>
      <trkpt lat="45.97937" lon="6.71556">
        <ele>2365</ele>
        <time>2017-03-30T12:51:29Z</time>
      </trkpt>
      <trkpt lat="45.97932" lon="6.71555">
        <ele>2363</ele>
        <time>2017-03-30T12:51:30Z</time>
      </trkpt>
      <trkpt lat="45.97928" lon="6.71549">
        <ele>2361</ele>
        <time>2017-03-30T12:51:31Z</time>
      </trkpt>
      <trkpt lat="45.97926" lon="6.71542">
        <ele>2359</ele>
        <time>2017-03-30T12:51:32Z</time>
      </trkpt>
      <trkpt lat="45.9792" lon="6.71537">
        <ele>2356</ele>
        <time>2017-03-30T12:51:33Z</time>
      </trkpt>
      <trkpt lat="45.97916" lon="6.71531">
        <ele>2354</ele>
        <time>2017-03-30T12:51:34Z</time>
      </trkpt>
      <trkpt lat="45.97914" lon="6.71522">
        <ele>2352</ele>
        <time>2017-03-30T12:51:35Z</time>
      </trkpt>
      <trkpt lat="45.9791" lon="6.71518">
        <ele>2350</ele>
        <time>2017-03-30T12:51:36Z</time>
      </trkpt>
      <trkpt lat="45.97903" lon="6.71515">
        <ele>2348</ele>
        <time>2017-03-30T12:51:37Z</time>
      </trkpt>
      <trkpt lat="45.97897" lon="6.71515">
        <ele>2346</ele>
        <time>2017-03-30T12:51:38Z</time>
      </trkpt>
      <trkpt lat="45.97891" lon="6.71509">
        <ele>2344</ele>
        <time>2017-03-30T12:51:39Z</time>
      </trkpt>
      <trkpt lat="45.97888" lon="6.71501">
        <ele>2341</ele>
        <time>2017-03-30T12:51:40Z</time>
      </trkpt>
      <trkpt lat="45.97889" lon="6.71478">
        <ele>2336</ele>
        <time>2017-03-30T12:51:42Z</time>
      </trkpt>
      <trkpt lat="45.97895" lon="6.7146">
        <ele>2335</ele>
        <time>2017-03-30T12:51:44Z</time>
      </trkpt>
      <trkpt lat="45.97903" lon="6.71451">
        <ele>2334</ele>
        <time>2017-03-30T12:51:46Z</time>
      </trkpt>
      <trkpt lat="45.97907" lon="6.71448">
        <ele>2334</ele>
        <time>2017-03-30T12:51:47Z</time>
      </trkpt>
      <trkpt lat="45.97908" lon="6.71434">
        <ele>2330</ele>
        <time>2017-03-30T12:51:49Z</time>
      </trkpt>
      <trkpt lat="45.97909" lon="6.71427">
        <ele>2329</ele>
        <time>2017-03-30T12:51:50Z</time>
      </trkpt>
      <trkpt lat="45.97912" lon="6.71423">
        <ele>2328</ele>
        <time>2017-03-30T12:51:51Z</time>
      </trkpt>
      <trkpt lat="45.9792" lon="6.71422">
        <ele>2328</ele>
        <time>2017-03-30T12:51:52Z</time>
      </trkpt>
      <trkpt lat="45.97923" lon="6.71413">
        <ele>2325</ele>
        <time>2017-03-30T12:51:53Z</time>
      </trkpt>
      <trkpt lat="45.97926" lon="6.71403">
        <ele>2322</ele>
        <time>2017-03-30T12:51:54Z</time>
      </trkpt>
      <trkpt lat="45.97932" lon="6.71394">
        <ele>2319</ele>
        <time>2017-03-30T12:51:55Z</time>
      </trkpt>
      <trkpt lat="45.97937" lon="6.71386">
        <ele>2317</ele>
        <time>2017-03-30T12:51:56Z</time>
      </trkpt>
      <trkpt lat="45.97944" lon="6.71387">
        <ele>2316</ele>
        <time>2017-03-30T12:51:57Z</time>
      </trkpt>
      <trkpt lat="45.97955" lon="6.71376">
        <ele>2313</ele>
        <time>2017-03-30T12:51:59Z</time>
      </trkpt>
      <trkpt lat="45.97964" lon="6.71356">
        <ele>2309</ele>
        <time>2017-03-30T12:52:02Z</time>
      </trkpt>
      <trkpt lat="45.97969" lon="6.7136">
        <ele>2308</ele>
        <time>2017-03-30T12:52:03Z</time>
      </trkpt>
      <trkpt lat="45.97974" lon="6.71364">
        <ele>2307</ele>
        <time>2017-03-30T12:52:04Z</time>
      </trkpt>
      <trkpt lat="45.97981" lon="6.71363">
        <ele>2306</ele>
        <time>2017-03-30T12:52:05Z</time>
      </trkpt>
      <trkpt lat="45.98005" lon="6.71351">
        <ele>2287</ele>
        <time>2017-03-30T12:52:25Z</time>
      </trkpt>
      <trkpt lat="45.98005" lon="6.71347">
        <ele>2286</ele>
        <time>2017-03-30T12:53:49Z</time>
      </trkpt>
      <trkpt lat="45.98006" lon="6.71344">
        <ele>2282</ele>
        <time>2017-03-30T12:53:52Z</time>
      </trkpt>
      <trkpt lat="45.98009" lon="6.7134">
        <ele>2280</ele>
        <time>2017-03-30T12:54:51Z</time>
      </trkpt>
      <trkpt lat="45.98012" lon="6.7134">
        <ele>2280</ele>
        <time>2017-03-30T12:54:52Z</time>
      </trkpt>
      <trkpt lat="45.98039" lon="6.71338">
        <ele>2274</ele>
        <time>2017-03-30T12:55:04Z</time>
      </trkpt>
      <trkpt lat="45.9811" lon="6.71325">
        <ele>2273</ele>
        <time>2017-03-30T12:55:25Z</time>
      </trkpt>
      <trkpt lat="45.98132" lon="6.71315">
        <ele>2271</ele>
        <time>2017-03-30T12:55:31Z</time>
      </trkpt>
      <trkpt lat="45.98187" lon="6.71279">
        <ele>2268</ele>
        <time>2017-03-30T12:55:48Z</time>
      </trkpt>
      <trkpt lat="45.98231" lon="6.7123">
        <ele>2269</ele>
        <time>2017-03-30T12:56:19Z</time>
      </trkpt>
      <trkpt lat="45.9826" lon="6.71206">
        <ele>2270</ele>
        <time>2017-03-30T12:56:38Z</time>
      </trkpt>
      <trkpt lat="45.98281" lon="6.71191">
        <ele>2269</ele>
        <time>2017-03-30T12:56:47Z</time>
      </trkpt>
      <trkpt lat="45.98318" lon="6.7117">
        <ele>2265</ele>
        <time>2017-03-30T12:56:56Z</time>
      </trkpt>
      <trkpt lat="45.98333" lon="6.71164">
        <ele>2265</ele>
        <time>2017-03-30T12:57:00Z</time>
      </trkpt>
      <trkpt lat="45.98415" lon="6.71152">
        <ele>2261</ele>
        <time>2017-03-30T12:57:31Z</time>
      </trkpt>
      <trkpt lat="45.98431" lon="6.71149">
        <ele>2260</ele>
        <time>2017-03-30T12:57:36Z</time>
      </trkpt>
      <trkpt lat="45.98437" lon="6.71151">
        <ele>2260</ele>
        <time>2017-03-30T12:57:38Z</time>
      </trkpt>
      <trkpt lat="45.9844" lon="6.7115">
        <ele>2259</ele>
        <time>2017-03-30T12:57:39Z</time>
      </trkpt>
      <trkpt lat="45.98441" lon="6.71146">
        <ele>2259</ele>
        <time>2017-03-30T12:57:40Z</time>
      </trkpt>
      <trkpt lat="45.98442" lon="6.71133">
        <ele>2258</ele>
        <time>2017-03-30T12:57:43Z</time>
      </trkpt>
      <trkpt lat="45.98445" lon="6.71132">
        <ele>2258</ele>
        <time>2017-03-30T12:57:44Z</time>
      </trkpt>
      <trkpt lat="45.98453" lon="6.71129">
        <ele>2257</ele>
        <time>2017-03-30T12:57:46Z</time>
      </trkpt>
      <trkpt lat="45.98467" lon="6.71135">
        <ele>2255</ele>
        <time>2017-03-30T12:57:49Z</time>
      </trkpt>
      <trkpt lat="45.98476" lon="6.71128">
        <ele>2252</ele>
        <time>2017-03-30T12:57:51Z</time>
      </trkpt>
      <trkpt lat="45.98479" lon="6.71106">
        <ele>2248</ele>
        <time>2017-03-30T12:57:53Z</time>
      </trkpt>
      <trkpt lat="45.98487" lon="6.71026">
        <ele>2241</ele>
        <time>2017-03-30T12:58:01Z</time>
      </trkpt>
      <trkpt lat="45.98499" lon="6.71011">
        <ele>2240</ele>
        <time>2017-03-30T12:58:03Z</time>
      </trkpt>
      <trkpt lat="45.98521" lon="6.70976">
        <ele>2237</ele>
        <time>2017-03-30T12:58:07Z</time>
      </trkpt>
      <trkpt lat="45.98525" lon="6.70967">
        <ele>2236</ele>
        <time>2017-03-30T12:58:08Z</time>
      </trkpt>
      <trkpt lat="45.98536" lon="6.70961">
        <ele>2235</ele>
        <time>2017-03-30T12:58:10Z</time>
      </trkpt>
      <trkpt lat="45.98541" lon="6.70947">
        <ele>2233</ele>
        <time>2017-03-30T12:58:12Z</time>
      </trkpt>
      <trkpt lat="45.98559" lon="6.70909">
        <ele>2226</ele>
        <time>2017-03-30T12:58:16Z</time>
      </trkpt>
      <trkpt lat="45.98573" lon="6.70899">
        <ele>2223</ele>
        <time>2017-03-30T12:58:18Z</time>
      </trkpt>
      <trkpt lat="45.98579" lon="6.70879">
        <ele>2219</ele>
        <time>2017-03-30T12:58:20Z</time>
      </trkpt>
      <trkpt lat="45.98581" lon="6.70868">
        <ele>2217</ele>
        <time>2017-03-30T12:58:21Z</time>
      </trkpt>
      <trkpt lat="45.9859" lon="6.70853">
        <ele>2214</ele>
        <time>2017-03-30T12:58:23Z</time>
      </trkpt>
      <trkpt lat="45.98594" lon="6.70834">
        <ele>2211</ele>
        <time>2017-03-30T12:58:25Z</time>
      </trkpt>
      <trkpt lat="45.986" lon="6.70827">
        <ele>2209</ele>
        <time>2017-03-30T12:58:26Z</time>
      </trkpt>
      <trkpt lat="45.98606" lon="6.70819">
        <ele>2206</ele>
        <time>2017-03-30T12:58:27Z</time>
      </trkpt>
      <trkpt lat="45.98608" lon="6.70798">
        <ele>2201</ele>
        <time>2017-03-30T12:58:29Z</time>
      </trkpt>
      <trkpt lat="45.98612" lon="6.70792">
        <ele>2200</ele>
        <time>2017-03-30T12:58:30Z</time>
      </trkpt>
      <trkpt lat="45.98614" lon="6.70792">
        <ele>2199</ele>
        <time>2017-03-30T12:58:31Z</time>
      </trkpt>
      <trkpt lat="45.98622" lon="6.70791">
        <ele>2198</ele>
        <time>2017-03-30T12:58:35Z</time>
      </trkpt>
      <trkpt lat="45.98621" lon="6.70784">
        <ele>2196</ele>
        <time>2017-03-30T12:58:47Z</time>
      </trkpt>
      <trkpt lat="45.98621" lon="6.70771">
        <ele>2194</ele>
        <time>2017-03-30T12:58:49Z</time>
      </trkpt>
      <trkpt lat="45.98625" lon="6.7073">
        <ele>2191</ele>
        <time>2017-03-30T12:58:55Z</time>
      </trkpt>
      <trkpt lat="45.98621" lon="6.70722">
        <ele>2191</ele>
        <time>2017-03-30T12:58:57Z</time>
      </trkpt>
      <trkpt lat="45.98597" lon="6.70676">
        <ele>2188</ele>
        <time>2017-03-30T12:59:19Z</time>
      </trkpt>
      <trkpt lat="45.98593" lon="6.70654">
        <ele>2188</ele>
        <time>2017-03-30T12:59:24Z</time>
      </trkpt>
      <trkpt lat="45.98593" lon="6.70644">
        <ele>2189</ele>
        <time>2017-03-30T12:59:27Z</time>
      </trkpt>
      <trkpt lat="45.98597" lon="6.70629">
        <ele>2189</ele>
        <time>2017-03-30T12:59:31Z</time>
      </trkpt>
      <trkpt lat="45.98609" lon="6.70606">
        <ele>2187</ele>
        <time>2017-03-30T12:59:37Z</time>
      </trkpt>
      <trkpt lat="45.98629" lon="6.70585">
        <ele>2186</ele>
        <time>2017-03-30T12:59:43Z</time>
      </trkpt>
      <trkpt lat="45.98647" lon="6.70561">
        <ele>2184</ele>
        <time>2017-03-30T12:59:49Z</time>
      </trkpt>
      <trkpt lat="45.98665" lon="6.70538">
        <ele>2182</ele>
        <time>2017-03-30T13:00:04Z</time>
      </trkpt>
      <trkpt lat="45.98675" lon="6.70536">
        <ele>2180</ele>
        <time>2017-03-30T13:00:06Z</time>
      </trkpt>
      <trkpt lat="45.98679" lon="6.70539">
        <ele>2179</ele>
        <time>2017-03-30T13:00:07Z</time>
      </trkpt>
      <trkpt lat="45.98682" lon="6.70543">
        <ele>2179</ele>
        <time>2017-03-30T13:00:08Z</time>
      </trkpt>
      <trkpt lat="45.98685" lon="6.70543">
        <ele>2178</ele>
        <time>2017-03-30T13:00:09Z</time>
      </trkpt>
      <trkpt lat="45.98689" lon="6.70547">
        <ele>2177</ele>
        <time>2017-03-30T13:00:22Z</time>
      </trkpt>
      <trkpt lat="45.98691" lon="6.70559">
        <ele>2176</ele>
        <time>2017-03-30T13:00:24Z</time>
      </trkpt>
      <trkpt lat="45.98695" lon="6.70562">
        <ele>2175</ele>
        <time>2017-03-30T13:00:25Z</time>
      </trkpt>
      <trkpt lat="45.987" lon="6.70565">
        <ele>2174</ele>
        <time>2017-03-30T13:00:26Z</time>
      </trkpt>
      <trkpt lat="45.98704" lon="6.70572">
        <ele>2173</ele>
        <time>2017-03-30T13:00:27Z</time>
      </trkpt>
      <trkpt lat="45.9871" lon="6.70577">
        <ele>2171</ele>
        <time>2017-03-30T13:00:28Z</time>
      </trkpt>
      <trkpt lat="45.98724" lon="6.70577">
        <ele>2168</ele>
        <time>2017-03-30T13:00:30Z</time>
      </trkpt>
      <trkpt lat="45.98729" lon="6.70586">
        <ele>2166</ele>
        <time>2017-03-30T13:00:31Z</time>
      </trkpt>
      <trkpt lat="45.98737" lon="6.70589">
        <ele>2164</ele>
        <time>2017-03-30T13:00:32Z</time>
      </trkpt>
      <trkpt lat="45.98759" lon="6.70585">
        <ele>2162</ele>
        <time>2017-03-30T13:00:35Z</time>
      </trkpt>
      <trkpt lat="45.98767" lon="6.70588">
        <ele>2159</ele>
        <time>2017-03-30T13:00:36Z</time>
      </trkpt>
      <trkpt lat="45.98775" lon="6.70586">
        <ele>2157</ele>
        <time>2017-03-30T13:00:37Z</time>
      </trkpt>
      <trkpt lat="45.9879" lon="6.70579">
        <ele>2153</ele>
        <time>2017-03-30T13:00:39Z</time>
      </trkpt>
      <trkpt lat="45.98799" lon="6.70582">
        <ele>2152</ele>
        <time>2017-03-30T13:00:40Z</time>
      </trkpt>
      <trkpt lat="45.98806" lon="6.70578">
        <ele>2150</ele>
        <time>2017-03-30T13:00:41Z</time>
      </trkpt>
      <trkpt lat="45.98812" lon="6.70571">
        <ele>2148</ele>
        <time>2017-03-30T13:00:42Z</time>
      </trkpt>
      <trkpt lat="45.98821" lon="6.70555">
        <ele>2143</ele>
        <time>2017-03-30T13:00:44Z</time>
      </trkpt>
      <trkpt lat="45.98828" lon="6.70559">
        <ele>2142</ele>
        <time>2017-03-30T13:00:45Z</time>
      </trkpt>
      <trkpt lat="45.98835" lon="6.70554">
        <ele>2139</ele>
        <time>2017-03-30T13:00:46Z</time>
      </trkpt>
      <trkpt lat="45.98841" lon="6.70546">
        <ele>2135</ele>
        <time>2017-03-30T13:00:47Z</time>
      </trkpt>
      <trkpt lat="45.98846" lon="6.70535">
        <ele>2132</ele>
        <time>2017-03-30T13:00:48Z</time>
      </trkpt>
      <trkpt lat="45.9886" lon="6.70518">
        <ele>2128</ele>
        <time>2017-03-30T13:00:50Z</time>
      </trkpt>
      <trkpt lat="45.98868" lon="6.70523">
        <ele>2125</ele>
        <time>2017-03-30T13:00:51Z</time>
      </trkpt>
      <trkpt lat="45.98876" lon="6.70519">
        <ele>2122</ele>
        <time>2017-03-30T13:00:52Z</time>
      </trkpt>
      <trkpt lat="45.98884" lon="6.70511">
        <ele>2119</ele>
        <time>2017-03-30T13:00:53Z</time>
      </trkpt>
      <trkpt lat="45.98893" lon="6.70507">
        <ele>2116</ele>
        <time>2017-03-30T13:00:54Z</time>
      </trkpt>
      <trkpt lat="45.98902" lon="6.7051">
        <ele>2114</ele>
        <time>2017-03-30T13:00:55Z</time>
      </trkpt>
      <trkpt lat="45.9891" lon="6.70507">
        <ele>2111</ele>
        <time>2017-03-30T13:00:56Z</time>
      </trkpt>
      <trkpt lat="45.98916" lon="6.70499">
        <ele>2108</ele>
        <time>2017-03-30T13:00:57Z</time>
      </trkpt>
      <trkpt lat="45.98932" lon="6.70488">
        <ele>2104</ele>
        <time>2017-03-30T13:00:59Z</time>
      </trkpt>
      <trkpt lat="45.98933" lon="6.70488">
        <ele>2104</ele>
        <time>2017-03-30T13:00:59Z</time>
      </trkpt>
      <trkpt lat="45.98934" lon="6.70488">
        <ele>2104</ele>
        <time>2017-03-30T13:00:59Z</time>
      </trkpt>
      <trkpt lat="45.98936" lon="6.70489">
        <ele>2104</ele>
        <time>2017-03-30T13:00:59Z</time>
      </trkpt>
      <trkpt lat="45.9894" lon="6.70489">
        <ele>2103</ele>
        <time>2017-03-30T13:01:00Z</time>
      </trkpt>
      <trkpt lat="45.9895" lon="6.70491">
        <ele>2100</ele>
        <time>2017-03-30T13:01:01Z</time>
      </trkpt>
      <trkpt lat="45.98959" lon="6.70488">
        <ele>2098</ele>
        <time>2017-03-30T13:01:02Z</time>
      </trkpt>
      <trkpt lat="45.98967" lon="6.70479">
        <ele>2095</ele>
        <time>2017-03-30T13:01:03Z</time>
      </trkpt>
      <trkpt lat="45.98976" lon="6.70478">
        <ele>2091</ele>
        <time>2017-03-30T13:01:04Z</time>
      </trkpt>
      <trkpt lat="45.98985" lon="6.7048">
        <ele>2089</ele>
        <time>2017-03-30T13:01:05Z</time>
      </trkpt>
      <trkpt lat="45.98992" lon="6.7048">
        <ele>2086</ele>
        <time>2017-03-30T13:01:06Z</time>
      </trkpt>
      <trkpt lat="45.98996" lon="6.70478">
        <ele>2085</ele>
        <time>2017-03-30T13:01:06Z</time>
      </trkpt>
      <trkpt lat="45.98999" lon="6.70477">
        <ele>2084</ele>
        <time>2017-03-30T13:01:07Z</time>
      </trkpt>
      <trkpt lat="45.99006" lon="6.7048">
        <ele>2082</ele>
        <time>2017-03-30T13:01:08Z</time>
      </trkpt>
      <trkpt lat="45.99012" lon="6.70483">
        <ele>2080</ele>
        <time>2017-03-30T13:01:09Z</time>
      </trkpt>
      <trkpt lat="45.99019" lon="6.70481">
        <ele>2078</ele>
        <time>2017-03-30T13:01:10Z</time>
      </trkpt>
      <trkpt lat="45.99031" lon="6.70484">
        <ele>2074</ele>
        <time>2017-03-30T13:01:12Z</time>
      </trkpt>
      <trkpt lat="45.99038" lon="6.70487">
        <ele>2072</ele>
        <time>2017-03-30T13:01:13Z</time>
      </trkpt>
      <trkpt lat="45.99045" lon="6.70485">
        <ele>2070</ele>
        <time>2017-03-30T13:01:14Z</time>
      </trkpt>
      <trkpt lat="45.99052" lon="6.70483">
        <ele>2067</ele>
        <time>2017-03-30T13:01:15Z</time>
      </trkpt>
      <trkpt lat="45.9906" lon="6.70485">
        <ele>2065</ele>
        <time>2017-03-30T13:01:16Z</time>
      </trkpt>
      <trkpt lat="45.99066" lon="6.70492">
        <ele>2062</ele>
        <time>2017-03-30T13:01:17Z</time>
      </trkpt>
      <trkpt lat="45.99073" lon="6.70493">
        <ele>2060</ele>
        <time>2017-03-30T13:01:18Z</time>
      </trkpt>
      <trkpt lat="45.99081" lon="6.70492">
        <ele>2057</ele>
        <time>2017-03-30T13:01:19Z</time>
      </trkpt>
      <trkpt lat="45.99095" lon="6.70496">
        <ele>2054</ele>
        <time>2017-03-30T13:01:21Z</time>
      </trkpt>
      <trkpt lat="45.99101" lon="6.70492">
        <ele>2051</ele>
        <time>2017-03-30T13:01:22Z</time>
      </trkpt>
      <trkpt lat="45.99109" lon="6.7049">
        <ele>2048</ele>
        <time>2017-03-30T13:01:23Z</time>
      </trkpt>
      <trkpt lat="45.99116" lon="6.70492">
        <ele>2046</ele>
        <time>2017-03-30T13:01:24Z</time>
      </trkpt>
      <trkpt lat="45.99122" lon="6.70495">
        <ele>2044</ele>
        <time>2017-03-30T13:01:25Z</time>
      </trkpt>
      <trkpt lat="45.99127" lon="6.70493">
        <ele>2042</ele>
        <time>2017-03-30T13:01:26Z</time>
      </trkpt>
      <trkpt lat="45.99134" lon="6.70485">
        <ele>2039</ele>
        <time>2017-03-30T13:01:28Z</time>
      </trkpt>
      <trkpt lat="45.99141" lon="6.7049">
        <ele>2041</ele>
        <time>2017-03-30T13:01:39Z</time>
      </trkpt>
      <trkpt lat="45.9915" lon="6.70485">
        <ele>2037</ele>
        <time>2017-03-30T13:01:41Z</time>
      </trkpt>
      <trkpt lat="45.99156" lon="6.70488">
        <ele>2034</ele>
        <time>2017-03-30T13:01:42Z</time>
      </trkpt>
      <trkpt lat="45.99162" lon="6.70492">
        <ele>2032</ele>
        <time>2017-03-30T13:01:43Z</time>
      </trkpt>
      <trkpt lat="45.99169" lon="6.70495">
        <ele>2029</ele>
        <time>2017-03-30T13:01:44Z</time>
      </trkpt>
      <trkpt lat="45.99176" lon="6.70491">
        <ele>2027</ele>
        <time>2017-03-30T13:01:45Z</time>
      </trkpt>
      <trkpt lat="45.99183" lon="6.70487">
        <ele>2024</ele>
        <time>2017-03-30T13:01:46Z</time>
      </trkpt>
      <trkpt lat="45.9919" lon="6.70487">
        <ele>2022</ele>
        <time>2017-03-30T13:01:47Z</time>
      </trkpt>
      <trkpt lat="45.99202" lon="6.70493">
        <ele>2019</ele>
        <time>2017-03-30T13:01:49Z</time>
      </trkpt>
      <trkpt lat="45.99208" lon="6.7049">
        <ele>2016</ele>
        <time>2017-03-30T13:01:50Z</time>
      </trkpt>
      <trkpt lat="45.99214" lon="6.70485">
        <ele>2014</ele>
        <time>2017-03-30T13:01:51Z</time>
      </trkpt>
      <trkpt lat="45.9922" lon="6.70484">
        <ele>2011</ele>
        <time>2017-03-30T13:01:52Z</time>
      </trkpt>
      <trkpt lat="45.99233" lon="6.70482">
        <ele>2007</ele>
        <time>2017-03-30T13:01:54Z</time>
      </trkpt>
      <trkpt lat="45.99237" lon="6.70473">
        <ele>2004</ele>
        <time>2017-03-30T13:01:55Z</time>
      </trkpt>
      <trkpt lat="45.9924" lon="6.70464">
        <ele>2002</ele>
        <time>2017-03-30T13:01:56Z</time>
      </trkpt>
      <trkpt lat="45.99247" lon="6.70445">
        <ele>1998</ele>
        <time>2017-03-30T13:01:58Z</time>
      </trkpt>
      <trkpt lat="45.99255" lon="6.70447">
        <ele>1996</ele>
        <time>2017-03-30T13:01:59Z</time>
      </trkpt>
      <trkpt lat="45.99261" lon="6.70443">
        <ele>1994</ele>
        <time>2017-03-30T13:02:00Z</time>
      </trkpt>
      <trkpt lat="45.99266" lon="6.70436">
        <ele>1992</ele>
        <time>2017-03-30T13:02:01Z</time>
      </trkpt>
      <trkpt lat="45.9927" lon="6.70427">
        <ele>1990</ele>
        <time>2017-03-30T13:02:02Z</time>
      </trkpt>
      <trkpt lat="45.99275" lon="6.70419">
        <ele>1988</ele>
        <time>2017-03-30T13:02:03Z</time>
      </trkpt>
      <trkpt lat="45.99281" lon="6.70414">
        <ele>1986</ele>
        <time>2017-03-30T13:02:04Z</time>
      </trkpt>
      <trkpt lat="45.99287" lon="6.70413">
        <ele>1984</ele>
        <time>2017-03-30T13:02:05Z</time>
      </trkpt>
      <trkpt lat="45.99291" lon="6.70407">
        <ele>1982</ele>
        <time>2017-03-30T13:02:06Z</time>
      </trkpt>
      <trkpt lat="45.99295" lon="6.70399">
        <ele>1980</ele>
        <time>2017-03-30T13:02:07Z</time>
      </trkpt>
      <trkpt lat="45.993" lon="6.7038">
        <ele>1976</ele>
        <time>2017-03-30T13:02:09Z</time>
      </trkpt>
      <trkpt lat="45.99306" lon="6.70378">
        <ele>1973</ele>
        <time>2017-03-30T13:02:10Z</time>
      </trkpt>
      <trkpt lat="45.99312" lon="6.70374">
        <ele>1970</ele>
        <time>2017-03-30T13:02:11Z</time>
      </trkpt>
      <trkpt lat="45.99315" lon="6.70366">
        <ele>1968</ele>
        <time>2017-03-30T13:02:12Z</time>
      </trkpt>
      <trkpt lat="45.99316" lon="6.70358">
        <ele>1966</ele>
        <time>2017-03-30T13:02:13Z</time>
      </trkpt>
      <trkpt lat="45.99321" lon="6.70341">
        <ele>1962</ele>
        <time>2017-03-30T13:02:15Z</time>
      </trkpt>
      <trkpt lat="45.99328" lon="6.70342">
        <ele>1960</ele>
        <time>2017-03-30T13:02:16Z</time>
      </trkpt>
      <trkpt lat="45.99333" lon="6.70336">
        <ele>1957</ele>
        <time>2017-03-30T13:02:17Z</time>
      </trkpt>
      <trkpt lat="45.99337" lon="6.70321">
        <ele>1955</ele>
        <time>2017-03-30T13:02:19Z</time>
      </trkpt>
      <trkpt lat="45.99339" lon="6.70315">
        <ele>1953</ele>
        <time>2017-03-30T13:02:20Z</time>
      </trkpt>
      <trkpt lat="45.99344" lon="6.70314">
        <ele>1952</ele>
        <time>2017-03-30T13:02:21Z</time>
      </trkpt>
      <trkpt lat="45.9935" lon="6.70317">
        <ele>1950</ele>
        <time>2017-03-30T13:02:22Z</time>
      </trkpt>
      <trkpt lat="45.99355" lon="6.70314">
        <ele>1950</ele>
        <time>2017-03-30T13:02:23Z</time>
      </trkpt>
      <trkpt lat="45.9936" lon="6.70305">
        <ele>1946</ele>
        <time>2017-03-30T13:02:24Z</time>
      </trkpt>
      <trkpt lat="45.99364" lon="6.70294">
        <ele>1944</ele>
        <time>2017-03-30T13:02:25Z</time>
      </trkpt>
      <trkpt lat="45.99378" lon="6.70263">
        <ele>1939</ele>
        <time>2017-03-30T13:02:28Z</time>
      </trkpt>
      <trkpt lat="45.99384" lon="6.70264">
        <ele>1938</ele>
        <time>2017-03-30T13:02:29Z</time>
      </trkpt>
      <trkpt lat="45.99393" lon="6.70272">
        <ele>1935</ele>
        <time>2017-03-30T13:02:30Z</time>
      </trkpt>
      <trkpt lat="45.99399" lon="6.70267">
        <ele>1932</ele>
        <time>2017-03-30T13:02:31Z</time>
      </trkpt>
      <trkpt lat="45.99406" lon="6.70247">
        <ele>1928</ele>
        <time>2017-03-30T13:02:33Z</time>
      </trkpt>
      <trkpt lat="45.99411" lon="6.70229">
        <ele>1924</ele>
        <time>2017-03-30T13:02:35Z</time>
      </trkpt>
      <trkpt lat="45.99423" lon="6.70226">
        <ele>1920</ele>
        <time>2017-03-30T13:02:37Z</time>
      </trkpt>
      <trkpt lat="45.99431" lon="6.70213">
        <ele>1916</ele>
        <time>2017-03-30T13:02:39Z</time>
      </trkpt>
      <trkpt lat="45.9944" lon="6.70202">
        <ele>1913</ele>
        <time>2017-03-30T13:02:41Z</time>
      </trkpt>
      <trkpt lat="45.99453" lon="6.70207">
        <ele>1909</ele>
        <time>2017-03-30T13:02:43Z</time>
      </trkpt>
      <trkpt lat="45.99459" lon="6.70203">
        <ele>1907</ele>
        <time>2017-03-30T13:02:44Z</time>
      </trkpt>
      <trkpt lat="45.99463" lon="6.70195">
        <ele>1905</ele>
        <time>2017-03-30T13:02:45Z</time>
      </trkpt>
      <trkpt lat="45.99469" lon="6.70186">
        <ele>1903</ele>
        <time>2017-03-30T13:02:46Z</time>
      </trkpt>
      <trkpt lat="45.99475" lon="6.70183">
        <ele>1901</ele>
        <time>2017-03-30T13:02:47Z</time>
      </trkpt>
      <trkpt lat="45.99484" lon="6.70166">
        <ele>1896</ele>
        <time>2017-03-30T13:02:49Z</time>
      </trkpt>
      <trkpt lat="45.99488" lon="6.70158">
        <ele>1894</ele>
        <time>2017-03-30T13:02:50Z</time>
      </trkpt>
      <trkpt lat="45.99494" lon="6.70155">
        <ele>1892</ele>
        <time>2017-03-30T13:02:51Z</time>
      </trkpt>
      <trkpt lat="45.99505" lon="6.70143">
        <ele>1888</ele>
        <time>2017-03-30T13:02:53Z</time>
      </trkpt>
      <trkpt lat="45.99511" lon="6.70128">
        <ele>1885</ele>
        <time>2017-03-30T13:02:55Z</time>
      </trkpt>
      <trkpt lat="45.99522" lon="6.7012">
        <ele>1882</ele>
        <time>2017-03-30T13:02:57Z</time>
      </trkpt>
      <trkpt lat="45.99527" lon="6.70113">
        <ele>1880</ele>
        <time>2017-03-30T13:02:58Z</time>
      </trkpt>
      <trkpt lat="45.99543" lon="6.70086">
        <ele>1876</ele>
        <time>2017-03-30T13:03:02Z</time>
      </trkpt>
      <trkpt lat="45.99546" lon="6.70087">
        <ele>1875</ele>
        <time>2017-03-30T13:03:04Z</time>
      </trkpt>
      <trkpt lat="45.99545" lon="6.70091">
        <ele>1874</ele>
        <time>2017-03-30T13:03:08Z</time>
      </trkpt>
      <trkpt lat="45.99548" lon="6.70099">
        <ele>1873</ele>
        <time>2017-03-30T13:03:11Z</time>
      </trkpt>
      <trkpt lat="45.99561" lon="6.70136">
        <ele>1869</ele>
        <time>2017-03-30T13:03:16Z</time>
      </trkpt>
      <trkpt lat="45.99587" lon="6.70177">
        <ele>1863</ele>
        <time>2017-03-30T13:03:22Z</time>
      </trkpt>
      <trkpt lat="45.99591" lon="6.70177">
        <ele>1861</ele>
        <time>2017-03-30T13:03:23Z</time>
      </trkpt>
      <trkpt lat="45.99595" lon="6.70181">
        <ele>1860</ele>
        <time>2017-03-30T13:03:24Z</time>
      </trkpt>
      <trkpt lat="45.99596" lon="6.70187">
        <ele>1858</ele>
        <time>2017-03-30T13:03:25Z</time>
      </trkpt>
      <trkpt lat="45.996" lon="6.70192">
        <ele>1857</ele>
        <time>2017-03-30T13:03:26Z</time>
      </trkpt>
      <trkpt lat="45.99606" lon="6.70194">
        <ele>1854</ele>
        <time>2017-03-30T13:03:27Z</time>
      </trkpt>
      <trkpt lat="45.99614" lon="6.70207">
        <ele>1850</ele>
        <time>2017-03-30T13:03:29Z</time>
      </trkpt>
      <trkpt lat="45.9962" lon="6.7021">
        <ele>1849</ele>
        <time>2017-03-30T13:03:30Z</time>
      </trkpt>
      <trkpt lat="45.99624" lon="6.70204">
        <ele>1847</ele>
        <time>2017-03-30T13:03:31Z</time>
      </trkpt>
      <trkpt lat="45.9963" lon="6.702">
        <ele>1846</ele>
        <time>2017-03-30T13:03:32Z</time>
      </trkpt>
      <trkpt lat="45.99635" lon="6.70203">
        <ele>1844</ele>
        <time>2017-03-30T13:03:33Z</time>
      </trkpt>
      <trkpt lat="45.99647" lon="6.70217">
        <ele>1841</ele>
        <time>2017-03-30T13:03:36Z</time>
      </trkpt>
      <trkpt lat="45.99652" lon="6.70218">
        <ele>1840</ele>
        <time>2017-03-30T13:03:37Z</time>
      </trkpt>
      <trkpt lat="45.99654" lon="6.70211">
        <ele>1839</ele>
        <time>2017-03-30T13:03:38Z</time>
      </trkpt>
      <trkpt lat="45.99658" lon="6.70208">
        <ele>1837</ele>
        <time>2017-03-30T13:03:39Z</time>
      </trkpt>
      <trkpt lat="45.99662" lon="6.70211">
        <ele>1836</ele>
        <time>2017-03-30T13:03:40Z</time>
      </trkpt>
      <trkpt lat="45.99666" lon="6.70213">
        <ele>1834</ele>
        <time>2017-03-30T13:03:41Z</time>
      </trkpt>
      <trkpt lat="45.99671" lon="6.70209">
        <ele>1832</ele>
        <time>2017-03-30T13:03:42Z</time>
      </trkpt>
      <trkpt lat="45.99676" lon="6.70209">
        <ele>1830</ele>
        <time>2017-03-30T13:03:43Z</time>
      </trkpt>
      <trkpt lat="45.9968" lon="6.70211">
        <ele>1827</ele>
        <time>2017-03-30T13:03:44Z</time>
      </trkpt>
      <trkpt lat="45.99685" lon="6.70208">
        <ele>1826</ele>
        <time>2017-03-30T13:03:45Z</time>
      </trkpt>
      <trkpt lat="45.99688" lon="6.70202">
        <ele>1823</ele>
        <time>2017-03-30T13:03:46Z</time>
      </trkpt>
      <trkpt lat="45.99692" lon="6.70201">
        <ele>1821</ele>
        <time>2017-03-30T13:03:47Z</time>
      </trkpt>
      <trkpt lat="45.99696" lon="6.70203">
        <ele>1819</ele>
        <time>2017-03-30T13:03:48Z</time>
      </trkpt>
      <trkpt lat="45.997" lon="6.702">
        <ele>1818</ele>
        <time>2017-03-30T13:03:49Z</time>
      </trkpt>
      <trkpt lat="45.99705" lon="6.70189">
        <ele>1815</ele>
        <time>2017-03-30T13:03:51Z</time>
      </trkpt>
      <trkpt lat="45.9971" lon="6.70186">
        <ele>1813</ele>
        <time>2017-03-30T13:03:52Z</time>
      </trkpt>
      <trkpt lat="45.99713" lon="6.70189">
        <ele>1812</ele>
        <time>2017-03-30T13:03:53Z</time>
      </trkpt>
      <trkpt lat="45.99718" lon="6.70189">
        <ele>1811</ele>
        <time>2017-03-30T13:03:54Z</time>
      </trkpt>
      <trkpt lat="45.99722" lon="6.70183">
        <ele>1807</ele>
        <time>2017-03-30T13:03:55Z</time>
      </trkpt>
      <trkpt lat="45.99724" lon="6.70176">
        <ele>1805</ele>
        <time>2017-03-30T13:03:56Z</time>
      </trkpt>
      <trkpt lat="45.99728" lon="6.7017">
        <ele>1803</ele>
        <time>2017-03-30T13:03:57Z</time>
      </trkpt>
      <trkpt lat="45.99734" lon="6.70171">
        <ele>1800</ele>
        <time>2017-03-30T13:03:58Z</time>
      </trkpt>
      <trkpt lat="45.9974" lon="6.70176">
        <ele>1798</ele>
        <time>2017-03-30T13:03:59Z</time>
      </trkpt>
      <trkpt lat="45.99746" lon="6.70173">
        <ele>1795</ele>
        <time>2017-03-30T13:04:00Z</time>
      </trkpt>
      <trkpt lat="45.99753" lon="6.7016">
        <ele>1791</ele>
        <time>2017-03-30T13:04:02Z</time>
      </trkpt>
      <trkpt lat="45.99759" lon="6.70156">
        <ele>1788</ele>
        <time>2017-03-30T13:04:03Z</time>
      </trkpt>
      <trkpt lat="45.99764" lon="6.70159">
        <ele>1786</ele>
        <time>2017-03-30T13:04:04Z</time>
      </trkpt>
      <trkpt lat="45.99774" lon="6.70165">
        <ele>1781</ele>
        <time>2017-03-30T13:04:06Z</time>
      </trkpt>
      <trkpt lat="45.9978" lon="6.70163">
        <ele>1779</ele>
        <time>2017-03-30T13:04:07Z</time>
      </trkpt>
      <trkpt lat="45.99782" lon="6.70155">
        <ele>1776</ele>
        <time>2017-03-30T13:04:08Z</time>
      </trkpt>
      <trkpt lat="45.99786" lon="6.70142">
        <ele>1773</ele>
        <time>2017-03-30T13:04:10Z</time>
      </trkpt>
      <trkpt lat="45.99798" lon="6.70138">
        <ele>1772</ele>
        <time>2017-03-30T13:04:12Z</time>
      </trkpt>
      <trkpt lat="45.99804" lon="6.70129">
        <ele>1767</ele>
        <time>2017-03-30T13:04:14Z</time>
      </trkpt>
      <trkpt lat="45.99809" lon="6.70128">
        <ele>1764</ele>
        <time>2017-03-30T13:04:15Z</time>
      </trkpt>
      <trkpt lat="45.99818" lon="6.70116">
        <ele>1757</ele>
        <time>2017-03-30T13:04:17Z</time>
      </trkpt>
      <trkpt lat="45.99823" lon="6.70112">
        <ele>1755</ele>
        <time>2017-03-30T13:04:18Z</time>
      </trkpt>
      <trkpt lat="45.9983" lon="6.70108">
        <ele>1752</ele>
        <time>2017-03-30T13:04:19Z</time>
      </trkpt>
      <trkpt lat="45.99833" lon="6.701">
        <ele>1750</ele>
        <time>2017-03-30T13:04:20Z</time>
      </trkpt>
      <trkpt lat="45.99834" lon="6.70095">
        <ele>1749</ele>
        <time>2017-03-30T13:04:21Z</time>
      </trkpt>
      <trkpt lat="45.99837" lon="6.70092">
        <ele>1744</ele>
        <time>2017-03-30T13:04:31Z</time>
      </trkpt>
      <trkpt lat="45.99846" lon="6.7009">
        <ele>1741</ele>
        <time>2017-03-30T13:04:33Z</time>
      </trkpt>
      <trkpt lat="45.99849" lon="6.70084">
        <ele>1740</ele>
        <time>2017-03-30T13:04:34Z</time>
      </trkpt>
      <trkpt lat="45.99852" lon="6.70079">
        <ele>1738</ele>
        <time>2017-03-30T13:04:35Z</time>
      </trkpt>
      <trkpt lat="45.99857" lon="6.70078">
        <ele>1737</ele>
        <time>2017-03-30T13:04:36Z</time>
      </trkpt>
      <trkpt lat="45.99862" lon="6.7008">
        <ele>1734</ele>
        <time>2017-03-30T13:04:37Z</time>
      </trkpt>
      <trkpt lat="45.9987" lon="6.70071">
        <ele>1731</ele>
        <time>2017-03-30T13:04:39Z</time>
      </trkpt>
      <trkpt lat="45.99881" lon="6.7007">
        <ele>1728</ele>
        <time>2017-03-30T13:04:41Z</time>
      </trkpt>
      <trkpt lat="45.99887" lon="6.70071">
        <ele>1726</ele>
        <time>2017-03-30T13:04:42Z</time>
      </trkpt>
      <trkpt lat="45.99889" lon="6.70064">
        <ele>1725</ele>
        <time>2017-03-30T13:04:43Z</time>
      </trkpt>
      <trkpt lat="45.99891" lon="6.70049">
        <ele>1722</ele>
        <time>2017-03-30T13:04:45Z</time>
      </trkpt>
      <trkpt lat="45.99895" lon="6.70047">
        <ele>1722</ele>
        <time>2017-03-30T13:04:46Z</time>
      </trkpt>
      <trkpt lat="45.999" lon="6.70047">
        <ele>1720</ele>
        <time>2017-03-30T13:04:47Z</time>
      </trkpt>
      <trkpt lat="45.99904" lon="6.70042">
        <ele>1717</ele>
        <time>2017-03-30T13:04:48Z</time>
      </trkpt>
      <trkpt lat="45.99906" lon="6.70035">
        <ele>1716</ele>
        <time>2017-03-30T13:04:49Z</time>
      </trkpt>
      <trkpt lat="45.99912" lon="6.70023">
        <ele>1713</ele>
        <time>2017-03-30T13:04:51Z</time>
      </trkpt>
      <trkpt lat="45.99921" lon="6.70026">
        <ele>1711</ele>
        <time>2017-03-30T13:04:53Z</time>
      </trkpt>
      <trkpt lat="45.99928" lon="6.70017">
        <ele>1709</ele>
        <time>2017-03-30T13:04:55Z</time>
      </trkpt>
      <trkpt lat="45.99933" lon="6.70014">
        <ele>1707</ele>
        <time>2017-03-30T13:04:56Z</time>
      </trkpt>
      <trkpt lat="45.99951" lon="6.69991">
        <ele>1696</ele>
        <time>2017-03-30T13:05:00Z</time>
      </trkpt>
      <trkpt lat="45.99957" lon="6.69983">
        <ele>1694</ele>
        <time>2017-03-30T13:05:01Z</time>
      </trkpt>
      <trkpt lat="45.99964" lon="6.6998">
        <ele>1691</ele>
        <time>2017-03-30T13:05:02Z</time>
      </trkpt>
      <trkpt lat="45.9997" lon="6.69972">
        <ele>1688</ele>
        <time>2017-03-30T13:05:03Z</time>
      </trkpt>
      <trkpt lat="45.99976" lon="6.69961">
        <ele>1685</ele>
        <time>2017-03-30T13:05:04Z</time>
      </trkpt>
      <trkpt lat="45.99995" lon="6.69947">
        <ele>1679</ele>
        <time>2017-03-30T13:05:07Z</time>
      </trkpt>
      <trkpt lat="46.0001" lon="6.69937">
        <ele>1674</ele>
        <time>2017-03-30T13:05:09Z</time>
      </trkpt>
      <trkpt lat="46.00042" lon="6.69907">
        <ele>1667</ele>
        <time>2017-03-30T13:05:14Z</time>
      </trkpt>
      <trkpt lat="46.00111" lon="6.69849">
        <ele>1649</ele>
        <time>2017-03-30T13:05:27Z</time>
      </trkpt>
      <trkpt lat="46.00121" lon="6.6984">
        <ele>1646</ele>
        <time>2017-03-30T13:05:29Z</time>
      </trkpt>
      <trkpt lat="46.00125" lon="6.69833">
        <ele>1645</ele>
        <time>2017-03-30T13:05:30Z</time>
      </trkpt>
      <trkpt lat="46.00125" lon="6.69828">
        <ele>1645</ele>
        <time>2017-03-30T13:05:31Z</time>
      </trkpt>
      <trkpt lat="46.00125" lon="6.69813">
        <ele>1643</ele>
        <time>2017-03-30T13:05:35Z</time>
      </trkpt>
      <trkpt lat="46.00132" lon="6.69809">
        <ele>1642</ele>
        <time>2017-03-30T13:05:49Z</time>
      </trkpt>
      <trkpt lat="46.00134" lon="6.69807">
        <ele>1642</ele>
        <time>2017-03-30T13:05:50Z</time>
      </trkpt>
      <trkpt lat="46.00146" lon="6.69795">
        <ele>1639</ele>
        <time>2017-03-30T13:05:53Z</time>
      </trkpt>
      <trkpt lat="46.00157" lon="6.69794">
        <ele>1636</ele>
        <time>2017-03-30T13:05:55Z</time>
      </trkpt>
      <trkpt lat="46.00168" lon="6.69786">
        <ele>1634</ele>
        <time>2017-03-30T13:05:57Z</time>
      </trkpt>
      <trkpt lat="46.0018" lon="6.69786">
        <ele>1633</ele>
        <time>2017-03-30T13:05:59Z</time>
      </trkpt>
      <trkpt lat="46.0019" lon="6.69776">
        <ele>1629</ele>
        <time>2017-03-30T13:06:01Z</time>
      </trkpt>
      <trkpt lat="46.00195" lon="6.69772">
        <ele>1628</ele>
        <time>2017-03-30T13:06:02Z</time>
      </trkpt>
      <trkpt lat="46.00201" lon="6.69765">
        <ele>1625</ele>
        <time>2017-03-30T13:06:03Z</time>
      </trkpt>
      <trkpt lat="46.00205" lon="6.69757">
        <ele>1622</ele>
        <time>2017-03-30T13:06:04Z</time>
      </trkpt>
      <trkpt lat="46.00213" lon="6.69752">
        <ele>1620</ele>
        <time>2017-03-30T13:06:05Z</time>
      </trkpt>
      <trkpt lat="46.0022" lon="6.69745">
        <ele>1618</ele>
        <time>2017-03-30T13:06:06Z</time>
      </trkpt>
      <trkpt lat="46.00264" lon="6.69684">
        <ele>1607</ele>
        <time>2017-03-30T13:06:13Z</time>
      </trkpt>
      <trkpt lat="46.00281" lon="6.69649">
        <ele>1602</ele>
        <time>2017-03-30T13:06:16Z</time>
      </trkpt>
      <trkpt lat="46.00291" lon="6.69573">
        <ele>1592</ele>
        <time>2017-03-30T13:06:21Z</time>
      </trkpt>
      <trkpt lat="46.00318" lon="6.69379">
        <ele>1583</ele>
        <time>2017-03-30T13:06:38Z</time>
      </trkpt>
      <trkpt lat="46.00337" lon="6.69278">
        <ele>1580</ele>
        <time>2017-03-30T13:06:55Z</time>
      </trkpt>
      <trkpt lat="46.00352" lon="6.69229">
        <ele>1578</ele>
        <time>2017-03-30T13:07:06Z</time>
      </trkpt>
      <trkpt lat="46.0036" lon="6.69214">
        <ele>1577</ele>
        <time>2017-03-30T13:07:10Z</time>
      </trkpt>
      <trkpt lat="46.00382" lon="6.69188">
        <ele>1578</ele>
        <time>2017-03-30T13:07:19Z</time>
      </trkpt>
      <trkpt lat="46.00398" lon="6.69162">
        <ele>1577</ele>
        <time>2017-03-30T13:07:29Z</time>
      </trkpt>
      <trkpt lat="46.00401" lon="6.69156">
        <ele>1576</ele>
        <time>2017-03-30T13:07:31Z</time>
      </trkpt>
      <trkpt lat="46.00408" lon="6.69151">
        <ele>1575</ele>
        <time>2017-03-30T13:07:37Z</time>
      </trkpt>
      <trkpt lat="46.00411" lon="6.69149">
        <ele>1579</ele>
        <time>2017-03-30T13:07:51Z</time>
      </trkpt>
      <trkpt lat="46.00413" lon="6.69145">
        <ele>1581</ele>
        <time>2017-03-30T13:08:23Z</time>
      </trkpt>
      <trkpt lat="46.00411" lon="6.69139">
        <ele>1578</ele>
        <time>2017-03-30T13:08:26Z</time>
      </trkpt>
      <trkpt lat="46.00411" lon="6.69134">
        <ele>1577</ele>
        <time>2017-03-30T13:08:29Z</time>
      </trkpt>
      <trkpt lat="46.00408" lon="6.69126">
        <ele>1574</ele>
        <time>2017-03-30T13:08:41Z</time>
      </trkpt>
      <trkpt lat="46.00409" lon="6.69122">
        <ele>1572</ele>
        <time>2017-03-30T13:08:46Z</time>
      </trkpt>
      <trkpt lat="46.00412" lon="6.69108">
        <ele>1571</ele>
        <time>2017-03-30T13:08:54Z</time>
      </trkpt>
      <trkpt lat="46.00419" lon="6.69092">
        <ele>1568</ele>
        <time>2017-03-30T13:09:05Z</time>
      </trkpt>
      <trkpt lat="46.00419" lon="6.69088">
        <ele>1568</ele>
        <time>2017-03-30T13:09:08Z</time>
      </trkpt>
      <trkpt lat="46.00417" lon="6.69084">
        <ele>1569</ele>
        <time>2017-03-30T13:09:22Z</time>
      </trkpt>
      <trkpt lat="46.00414" lon="6.69085">
        <ele>1569</ele>
        <time>2017-03-30T13:10:59Z</time>
      </trkpt>
    </trkseg>
  </trk>
</gpx>